GFSSW_2pvu_pres_000.txt.gz
Presure
231 239 245 268 244 246 221 212 187 177 204 190 187 183 185 190 184 170 192 162 180 112 96 102 109 127 123 178 193 90 183 181 170 185 122 146 123 164 166 167 121 109 140 177 145
211 218 221 235 248 268 261 249 217 206 82 179 170 184 182 180 179 153 169 190 185 158 101 178 208 131 97 115 119 142 173 166 170 120 125 155 133 181 145 118 125 155 170 196 173
398 253 220 220 225 243 251 279 265 251 206 178 166 192 180 187 194 166 191 173 196 125 97 201 102 117 119 124 170 138 145 147 187 147 159 129 90 175 84 169 174 210 176 95 226
469 528 468 266 233 222 222 249 249 241 276 234 193 172 191 181 201 157 181 172 189 189 102 105 107 116 107 212 144 152 143 196 184 167 153 149 176 170 170 170 179 172 109 268 252
422 417 423 422 429 249 234 231 234 246 191 205 229 190 185 198 184 172 173 166 185 183 147 176 106 142 202 193 216 141 185 166 183 168 151 163 149 102 163 166 171 114 178 131 245
407 407 419 417 440 439 247 246 221 226 225 196 205 201 178 164 189 172 167 176 180 131 178 147 140 162 83 171 130 134 140 112 131 156 165 162 174 151 164 159 170 129 110 231 231
386 390 406 397 408 422 437 432 241 213 226 204 213 214 200 94 194 160 188 188 188 192 167 175 84 86 88 84 210 95 139 82 82 91 163 169 177 162 154 160 151 164 163 110 190
385 399 378 400 364 366 381 411 439 239 243 218 205 208 207 204 195 179 171 170 154 179 176 167 159 192 117 173 99 195 208 140 80 84 169 173 179 138 151 162 152 101 102 192 208
326 322 323 328 347 386 405 406 435 394 238 206 218 209 205 195 197 182 182 191 154 196 191 196 128 178 206 159 156 93 191 191 122 120 94 174 180 156 92 164 164 154 156 150 161
293 285 290 297 301 311 324 353 357 442 463 226 214 203 223 203 206 198 195 199 197 182 190 185 188 191 197 191 196 90 165 137 150 108 126 170 128 164 172 135 164 158 158 166 159
256 261 253 286 294 296 297 304 317 338 371 402 240 216 211 196 212 219 226 158 209 202 181 174 171 191 199 171 185 90 97 96 102 162 119 178 181 133 147 153 133 158 156 157 152
254 253 241 241 247 278 291 292 288 307 329 343 350 301 227 222 189 190 201 201 195 186 194 151 182 196 171 178 164 173 91 96 102 131 142 172 182 162 149 151 150 164 158 157 161
229 245 254 254 249 254 258 179 267 231 278 284 326 363 382 90 214 156 113 184 171 183 221 191 177 164 185 180 185 217 91 164 140 151 168 174 182 102 137 146 152 158 103 159 160
225 233 235 239 236 244 243 256 255 264 256 261 265 280 284 296 294 231 204 195 189 191 200 158 173 195 188 183 246 208 101 163 155 156 168 144 94 97 157 149 153 160 159 167 154
232 229 226 214 235 229 229 234 234 247 247 129 254 249 138 254 257 258 202 308 180 274 152 179 179 177 177 217 207 193 160 162 138 165 145 169 156 180 103 135 105 162 162 163 139
223 216 221 229 219 230 228 226 226 240 231 231 238 227 232 231 229 240 243 263 151 289 235 222 178 218 170 187 205 190 122 157 157 175 147 147 155 104 171 108 163 159 126 131 149
172 240 223 214 211 228 221 226 164 230 224 227 222 229 230 229 233 249 253 255 258 268 272 261 241 179 183 190 198 149 133 167 161 173 161 141 129 99 168 127 129 132 120 127 142
169 228 225 216 226 212 225 210 211 216 220 226 216 213 192 220 223 228 150 233 240 239 239 182 188 177 198 205 192 169 170 133 172 172 166 104 98 102 165 168 167 119 155 168 166
203 213 206 225 200 214 230 98 213 215 215 204 216 207 218 223 216 225 216 219 215 207 208 208 196 188 201 150 146 166 159 163 171 131 143 165 159 158 152 171 173 101 97 157 162
239 228 216 229 158 218 217 201 218 209 208 212 201 192 213 218 232 228 207 223 216 186 212 212 193 179 134 150 130 171 176 164 136 157 125 148 118 146 97 109 127 108 154 167 171
212 214 220 221 232 212 223 205 220 211 203 203 206 217 215 215 221 208 165 201 184 196 166 199 199 156 190 169 160 165 161 139 162 170 141 133 77 142 156 149 159 160 138 143 162
226 225 197 241 236 183 208 231 142 220 171 206 210 212 202 224 217 209 207 143 139 147 138 141 143 188 190 150 177 157 174 165 157 167 167 157 164 136 148 136 149 129 170 169 167
228 232 233 220 208 228 231 223 220 190 199 206 213 210 208 222 191 207 144 209 189 188 195 162 172 165 182 162 154 153 153 168 171 171 169 165 150 168 163 122 152 173 168 148 164
219 237 241 230 232 235 225 149 106 115 204 209 214 139 197 223 211 224 170 177 153 182 160 168 189 167 152 159 172 160 178 170 144 130 145 138 164 164 93 155 174 163 165 169 168
208 202 180 195 237 221 236 239 208 213 210 179 215 211 224 199 195 181 178 205 145 193 181 138 173 91 150 156 153 114 127 137 175 166 172 93 167 166 162 157 166 176 174 118 154
173 211 211 225 232 231 214 220 229 234 205 111 207 199 230 188 198 164 207 205 203 194 189 186 183 80 86 180 163 181 133 173 144 148 172 163 157 168 166 167 164 166 135 177 178
167 196 156 233 142 245 247 218 191 207 233 181 157 229 123 226 185 149 133 154 204 198 192 188 155 115 179 170 172 170 183 183 165 171 167 169 165 167 151 170 169 179 180 176 98

GFSSW_2pvu_pres_003.txt.gz
Presure
221 233 241 246 264 221 189 217 236 198 191 180 194 197 183 186 188 173 164 185 193 180 161 139 99 103 82 94 161 205 85 87 90 145 197 184 189 109 130 144 114 129 111 84 98
328 257 233 216 236 262 255 201 223 243 184 156 173 173 192 180 92 169 173 138 183 160 181 90 162 99 82 81 87 89 93 170 90 223 214 148 152 113 140 156 158 87 141 105 146
416 328 359 267 243 227 262 267 225 268 233 208 189 184 182 192 180 161 109 178 159 182 193 184 143 189 105 161 222 192 92 164 155 150 178 189 178 171 174 93 87 85 153 175 181
378 397 400 391 477 264 237 259 263 195 285 221 83 133 174 169 177 177 180 164 177 184 168 187 148 130 93 95 106 199 130 121 168 235 193 141 175 187 142 103 107 162 172 178 131
376 381 418 422 435 437 256 237 253 265 210 241 209 204 170 174 172 170 174 178 186 170 181 174 188 180 197 157 97 102 200 111 133 132 188 154 173 150 160 169 156 102 174 141 176
384 388 416 426 435 440 449 246 238 252 266 220 248 209 200 188 182 174 180 181 185 153 172 175 100 123 150 173 199 134 166 179 122 140 149 182 170 176 159 163 160 144 170 161 116
314 390 402 397 409 421 447 467 255 227 250 268 226 254 204 187 191 187 178 174 181 181 181 167 184 163 182 103 99 99 118 151 132 142 143 186 163 171 158 177 171 170 160 161 168
290 318 376 387 359 410 423 440 460 251 215 253 278 224 197 176 199 181 188 191 173 176 180 188 174 165 95 151 165 202 194 185 132 120 83 116 135 170 168 180 157 166 162 153 178
252 273 304 358 365 411 393 413 431 284 229 205 253 252 171 149 205 195 177 171 171 178 186 154 148 159 178 129 153 77 97 96 211 131 103 126 83 83 165 170 142 155 178 180 113
264 261 282 299 312 357 384 407 393 395 229 210 242 251 192 273 165 200 191 181 175 177 189 166 186 177 89 92 91 186 208 155 121 187 162 167 142 84 176 179 145 145 172 192 155
252 256 262 287 294 309 322 394 408 408 273 221 199 230 238 192 188 186 202 194 180 180 177 183 180 82 179 183 177 178 121 155 112 150 196 166 162 162 133 136 164 153 133 163 170
229 249 257 254 262 277 308 327 419 437 451 227 207 215 236 194 195 217 203 199 194 187 103 158 191 190 159 207 188 181 213 207 160 147 97 104 145 114 161 129 133 144 150 136 166
230 238 252 242 249 259 274 300 327 359 395 217 202 206 231 196 193 199 201 164 182 188 197 189 171 189 167 139 189 185 196 203 99 196 100 101 145 168 141 176 172 141 149 160 149
228 228 228 245 247 252 260 128 297 322 341 216 192 188 212 201 129 198 196 195 181 198 192 180 179 90 179 136 183 182 207 138 190 92 98 101 107 161 173 168 112 157 124 158 123
219 223 222 237 236 235 248 255 268 309 329 361 215 191 202 186 198 200 190 201 184 187 152 179 127 87 162 171 179 180 198 187 125 201 141 113 176 152 175 170 101 113 138 110 104
224 227 216 224 229 230 230 250 249 234 274 298 197 204 189 181 196 161 199 185 177 184 172 190 156 182 141 188 185 132 195 171 204 201 132 168 161 166 136 104 148 151 116 110 110
219 220 219 223 223 217 234 236 234 156 255 269 283 199 122 190 193 189 173 189 184 210 190 156 147 157 184 165 191 142 198 181 220 150 154 131 157 164 149 122 95 152 173 105 107
161 188 214 218 215 222 221 229 230 233 244 262 262 268 208 207 203 197 192 187 192 181 182 180 196 187 171 179 180 207 207 185 214 171 167 153 149 155 175 97 96 98 97 141 109
224 215 216 214 211 191 210 207 212 224 226 236 246 241 254 242 234 203 203 203 199 202 187 174 185 181 191 159 178 184 175 229 196 146 168 175 179 159 174 165 162 105 159 152 173
228 201 202 217 176 222 211 216 217 219 218 224 227 232 232 242 233 257 246 254 195 194 201 172 200 192 173 203 177 200 167 200 191 185 161 155 173 159 156 160 150 133 103 159 144
223 227 207 224 210 219 209 213 218 220 215 210 213 217 219 226 226 212 230 244 247 248 195 212 220 185 179 174 190 182 190 165 187 172 172 108 104 90 165 152 130 125 143 162 157
213 228 214 219 222 213 217 206 216 210 203 219 209 209 211 215 225 216 220 225 234 238 244 93 154 246 235 229 205 193 184 179 176 149 171 158 163 162 160 168 149 169 155 166 167
212 217 207 221 228 215 186 209 198 205 207 211 203 217 209 208 224 209 225 221 222 218 221 228 229 224 211 206 198 173 204 196 185 161 144 174 151 171 144 166 170 134 175 171 131
164 227 187 239 221 217 220 167 211 193 210 208 216 221 205 219 216 217 220 185 213 180 181 170 211 210 191 140 181 197 145 166 155 158 156 182 177 175 170 160 155 139 137 171 125
219 209 221 183 232 219 222 216 208 205 207 219 216 216 208 216 199 190 210 167 206 203 203 202 191 208 209 201 199 171 192 189 151 137 175 144 155 175 146 158 168 179 177 166 167
188 244 213 197 219 232 228 226 227 86 204 208 216 216 214 225 209 207 220 131 207 208 203 141 132 199 147 137 83 81 82 126 167 165 164 158 181 178 177 175 161 161 166 173 178
159 166 248 191 190 226 225 193 225 189 210 214 216 225 211 213 235 222 208 216 211 206 214 117 135 138 207 189 184 112 159 184 170 183 165 150 173 166 179 170 171 162 172 170 177

GFSSW_2pvu_pres_006.txt.gz
Presure
259 275 277 247 242 250 243 236 267 271 215 199 194 190 160 175 192 187 182 180 196 207 80 127 136 178 196 130 98 93 95 84 87 221 95 92 118 101 165 142 160 110 122 107 116
277 283 347 356 326 257 253 271 236 288 250 215 202 193 187 180 161 170 176 172 178 196 200 181 84 106 144 146 133 100 91 165 87 81 87 105 119 172 166 163 158 149 140 135 90
256 291 354 362 407 368 266 248 277 246 289 231 215 204 193 199 201 160 159 180 182 192 198 197 201 172 102 116 93 157 169 173 108 207 81 216 142 220 197 182 190 190 97 89 84
255 287 367 441 415 397 412 284 252 284 252 282 231 211 205 96 180 161 169 98 150 175 190 195 195 93 198 100 196 82 185 88 138 95 215 169 232 244 205 209 162 182 88 128 104
283 304 335 400 391 455 449 357 273 260 258 266 259 242 220 199 107 148 187 140 175 183 188 182 187 192 208 195 91 154 139 179 171 208 141 175 217 193 136 165 193 118 157 172 152
244 293 309 350 396 398 424 454 366 261 260 227 296 297 165 127 196 195 112 186 182 162 183 179 170 180 194 151 194 127 85 98 116 167 165 152 126 155 161 150 160 159 161 133 110
254 283 294 313 368 395 420 436 465 456 237 260 229 222 278 147 154 158 194 191 174 180 176 168 188 185 189 95 131 211 148 89 191 132 206 166 128 228 190 147 182 159 164 168 116
253 264 279 300 323 386 404 426 453 383 257 219 262 229 242 224 204 171 204 185 183 171 176 161 173 174 192 189 147 180 109 147 209 101 192 127 136 146 149 172 168 160 161 171 163
249 243 268 287 313 372 387 392 427 475 469 228 248 250 203 95 214 176 170 176 180 184 184 165 190 198 89 140 194 182 91 88 194 196 159 130 118 146 119 110 174 161 175 171 148
241 245 266 278 292 332 379 372 377 409 461 254 92 258 265 147 227 201 145 163 177 181 189 151 174 99 173 166 100 169 211 198 184 99 114 215 147 137 81 84 87 166 177 170 145
234 229 253 265 275 304 393 391 384 374 444 259 212 244 273 224 212 200 201 179 180 188 180 178 169 157 184 156 94 170 173 181 85 198 176 108 171 126 156 169 169 162 178 173 158
239 233 240 242 271 291 325 394 413 385 396 244 214 244 263 216 314 210 211 191 201 186 197 173 187 165 91 80 190 162 165 169 113 197 189 170 134 162 145 165 174 163 180 141 167
227 239 231 243 251 282 303 329 377 430 473 228 215 237 255 266 273 237 202 206 197 188 187 142 156 171 184 118 171 101 177 167 174 194 202 160 135 190 149 133 144 154 127 132 140
231 227 223 233 241 250 285 312 362 399 474 216 209 217 246 265 212 295 206 200 200 196 197 168 139 182 174 192 176 182 188 138 198 185 195 166 210 103 102 101 126 156 125 168 168
234 222 238 230 242 245 263 283 313 343 360 214 207 196 235 258 241 272 215 201 196 199 202 177 70 174 180 188 173 194 187 199 179 176 191 208 199 150 129 103 104 149 170 164 101
232 216 222 217 229 236 243 265 304 341 227 213 200 208 223 255 262 252 268 214 198 198 207 194 172 152 180 177 168 161 167 202 181 188 181 203 150 105 170 179 169 144 172 172 176
230 225 229 218 218 221 231 257 286 373 213 214 199 205 200 216 256 249 201 228 212 210 203 201 191 145 183 174 159 177 165 123 161 188 139 183 198 128 137 137 165 158 153 129 104
157 177 226 218 224 215 233 96 259 284 230 217 203 197 202 197 237 254 204 191 197 206 201 185 192 185 190 183 140 104 164 192 121 190 165 180 193 191 180 176 160 166 164 142 96
233 219 216 222 217 220 228 223 104 254 278 212 201 203 201 201 203 244 209 186 195 194 193 195 185 184 191 180 175 188 176 180 170 197 185 168 184 200 159 166 140 153 156 175 170
184 212 216 134 216 220 224 233 230 242 248 197 197 201 200 187 197 222 191 193 187 192 183 191 156 182 189 176 191 174 182 164 175 179 177 194 166 204 177 168 157 159 173 164 177
216 205 191 165 136 217 218 236 229 234 233 244 197 195 199 192 197 187 190 188 185 187 188 156 160 181 169 188 192 159 170 169 192 182 193 175 187 191 154 153 101 93 94 178 175
220 216 214 217 213 223 215 219 229 225 238 232 232 198 198 197 197 194 186 185 186 191 190 200 182 204 189 162 189 189 194 151 180 171 193 172 172 204 183 157 161 141 129 162 184
217 232 208 169 207 220 155 87 226 226 221 219 249 249 198 198 196 197 193 192 191 188 186 186 184 182 185 183 171 171 171 183 233 159 192 185 178 190 194 184 170 168 164 167 177
229 236 212 221 221 214 179 204 204 227 221 230 227 202 233 240 222 205 196 196 198 201 201 197 209 175 172 202 198 195 188 195 177 159 190 185 145 136 188 183 168 171 180 152 173
232 227 195 229 227 214 208 218 211 208 216 228 222 219 218 226 226 235 229 238 242 240 233 196 195 195 195 190 197 211 191 175 176 211 183 197 150 183 192 185 181 180 157 184 179
160 207 210 240 231 206 215 220 177 222 231 220 210 223 211 225 225 229 219 228 225 232 226 218 183 142 145 154 138 149 219 156 217 197 196 134 141 197 168 174 162 158 133 132 141
174 241 229 214 227 212 213 216 216 211 220 225 218 206 220 225 230 215 223 219 183 220 164 227 231 236 226 204 192 218 144 171 118 199 192 149 159 200 199 151 179 162 159 176 180

GFSSW_2pvu_pres_009.txt.gz
Presure
220 260 256 284 258 284 316 323 258 274 236 268 232 194 193 181 173 186 187 187 197 206 167 178 89 211 85 89 90 85 91 157 89 90 85 87 83 89 105 94 167 128 103 157 164
255 239 253 272 294 311 291 428 352 260 274 269 280 225 195 174 179 183 184 191 191 194 149 113 158 133 134 92 92 84 87 118 90 93 90 91 84 91 94 198 122 149 183 169 141
245 232 246 264 289 308 335 481 432 341 244 289 257 263 208 198 185 165 103 183 193 194 191 199 198 190 196 197 86 93 93 89 100 91 84 74 208 87 219 239 137 157 242 161 155
230 251 249 246 274 295 331 424 437 411 340 272 244 284 231 203 185 113 189 176 181 180 192 195 194 87 198 163 197 195 102 93 93 88 100 118 109 90 215 236 160 221 168 177 124
238 244 245 249 263 294 324 390 430 424 318 250 290 255 269 215 196 173 178 194 179 188 194 183 186 181 122 87 194 152 145 178 138 140 181 101 179 112 141 227 248 244 216 193 183
241 243 240 258 272 292 336 379 426 445 390 356 255 260 302 233 205 182 174 183 153 198 178 186 174 181 194 169 195 151 154 203 90 148 159 203 102 169 116 221 228 134 222 179 193
233 242 225 253 272 291 357 373 426 422 429 368 256 270 318 97 205 194 192 177 180 173 184 171 188 190 192 199 190 170 81 93 182 81 106 151 106 105 184 127 130 244 171 189 195
230 236 249 254 267 292 324 382 388 444 424 363 275 275 231 87 215 202 200 182 170 173 167 178 187 179 207 163 195 197 200 141 105 198 155 145 134 187 144 183 195 181 173 197 177
228 239 232 253 264 287 314 403 375 424 468 441 257 248 179 91 172 207 205 192 193 186 173 172 186 180 189 164 184 184 151 215 107 180 146 171 206 131 168 190 117 193 121 132 182
232 239 250 249 265 279 301 405 389 377 430 428 362 168 283 254 236 210 211 197 187 197 195 172 180 190 177 183 187 181 201 195 146 93 180 164 172 112 112 128 137 82 87 187 160
234 227 241 244 254 269 288 321 374 377 399 432 426 145 73 83 160 224 210 202 194 201 202 185 179 69 73 167 144 83 179 121 192 207 146 135 187 194 206 211 148 190 155 173 174
214 239 233 239 251 260 283 308 363 387 394 462 263 223 274 222 316 233 176 151 209 200 201 194 180 171 174 170 181 99 111 163 200 198 187 164 101 108 98 157 154 205 164 157 170
228 212 231 234 251 255 274 299 320 380 408 406 442 224 260 256 241 272 222 208 199 184 204 192 170 178 162 179 67 99 163 158 192 140 158 159 173 97 107 152 173 200 178 168 167
220 247 231 229 240 254 261 293 327 397 438 430 464 218 247 287 204 223 239 215 161 170 199 182 174 177 181 165 162 179 187 180 191 206 190 183 185 186 193 95 114 133 102 107 166
214 228 221 231 228 245 264 284 327 357 372 473 396 216 225 271 221 205 288 209 210 146 160 170 173 173 178 180 172 181 99 127 169 174 144 186 183 189 198 190 114 130 149 101 102
224 221 222 230 228 233 259 289 315 346 351 427 248 219 217 251 229 231 208 234 211 200 182 178 170 178 185 195 179 182 123 163 129 166 100 176 184 186 199 174 212 104 92 155 109
222 225 217 223 224 236 240 280 305 337 371 301 235 208 231 238 262 229 205 293 220 213 196 185 185 95 129 184 176 175 177 193 173 145 151 174 182 186 184 139 201 194 121 179 156
153 216 216 227 218 228 228 263 303 345 237 235 211 206 233 242 257 270 207 294 258 199 193 186 185 194 171 80 166 175 184 174 140 177 185 88 154 186 198 184 196 191 195 177 169
212 232 216 217 219 223 235 84 292 217 225 212 198 209 224 239 256 275 215 231 266 200 194 196 195 192 183 185 122 84 151 174 176 178 152 178 167 186 194 168 184 186 130 138 140
216 225 216 216 228 221 233 237 259 212 215 205 199 202 192 235 249 269 167 217 276 223 195 193 193 191 192 187 159 184 175 166 107 165 178 169 180 191 177 177 177 177 201 203 184
215 217 215 219 227 222 226 236 242 203 212 207 198 200 200 188 222 256 260 241 246 240 197 196 192 192 185 158 196 193 186 159 181 168 174 174 169 174 184 182 188 186 177 194 204
220 222 156 214 214 224 228 223 237 229 200 200 204 199 196 199 196 216 229 255 254 177 182 193 195 195 197 189 191 195 186 173 186 164 182 179 164 162 162 191 194 189 177 204 208
217 220 224 230 211 218 233 227 225 237 203 198 202 203 200 189 197 192 228 241 252 255 186 181 194 195 202 200 193 181 178 163 175 192 160 156 174 193 176 185 170 172 172 192 204
238 218 222 210 233 219 178 228 236 238 254 202 199 204 204 201 201 188 197 224 227 241 184 165 186 189 188 172 166 196 179 180 189 186 175 159 146 166 165 162 198 185 187 175 206
184 184 230 216 141 180 228 232 224 227 235 233 196 200 198 199 202 198 188 192 203 195 200 189 193 183 163 159 186 184 171 191 193 197 164 189 157 182 153 167 170 185 193 180 184
168 224 210 217 216 216 230 217 238 234 219 238 246 198 199 197 199 199 202 197 193 189 193 188 185 186 187 187 138 157 183 178 185 182 186 187 114 170 173 133 143 131 185 166 153
244 193 229 210 189 219 210 214 199 210 233 209 216 231 247 208 197 196 197 197 196 194 195 195 196 192 193 180 187 185 187 176 193 173 194 182 195 172 133 156 183 150 146 155 198

GFSSW_2pvu_pres_012.txt.gz
Presure
222 161 203 240 229 261 264 263 252 274 263 245 229 246 264 202 182 184 184 179 186 200 206 221 204 132 165 87 93 84 102 104 107 101 106 85 148 88 89 114 89 92 153 182 112
207 218 223 260 243 252 245 254 273 282 275 255 274 248 278 263 197 191 183 166 163 202 200 201 117 127 137 83 88 99 119 84 87 111 117 86 84 90 168 86 97 128 180 196 200
207 207 249 245 239 248 241 255 245 279 311 334 340 332 254 309 226 179 172 185 173 199 203 194 212 119 201 146 88 87 91 142 90 181 88 132 88 96 95 78 89 228 220 234 160
208 234 245 242 243 246 242 242 255 295 308 373 372 300 286 234 291 203 190 183 192 194 207 201 154 205 213 164 95 119 88 89 94 88 186 87 93 78 98 158 189 148 195 230 247
228 241 242 242 237 246 244 251 265 295 390 377 386 441 400 243 304 209 205 180 189 198 198 196 197 199 200 154 140 213 88 91 146 87 90 108 93 80 154 186 159 99 188 227 255
252 233 238 237 231 239 244 255 271 294 389 387 422 417 390 321 277 244 203 151 180 194 194 193 192 188 197 206 173 160 161 135 93 89 91 90 86 88 174 102 183 98 194 229 258
251 230 244 232 239 235 265 267 279 286 394 379 429 463 387 315 268 293 211 194 179 180 182 193 192 195 188 195 200 203 196 194 193 183 95 90 109 104 194 98 127 212 102 249 247
239 235 239 236 252 236 263 267 279 298 399 383 408 422 317 148 293 283 218 203 192 172 182 196 191 189 178 198 189 187 202 161 166 188 155 182 105 116 122 94 119 167 222 156 122
239 232 237 239 244 244 260 267 273 299 382 394 399 400 437 348 82 273 223 208 196 188 173 196 198 181 190 125 178 192 185 186 140 136 190 89 164 155 188 165 210 157 217 234 140
238 240 229 253 238 244 261 266 273 343 372 376 248 407 461 329 189 268 231 213 194 191 184 190 188 181 190 183 173 192 187 195 180 123 106 187 178 195 179 136 203 137 184 129 114
166 234 237 253 244 241 251 266 277 329 380 370 426 280 387 333 278 259 245 217 196 198 188 169 186 183 179 188 192 190 190 200 195 194 201 189 190 178 192 197 199 109 140 116 84
184 226 223 237 236 241 252 265 279 347 359 380 432 421 371 262 168 197 254 221 205 198 192 176 144 171 182 177 173 197 191 194 180 201 216 181 194 100 96 136 197 202 88 202 148
239 215 238 231 245 241 252 268 287 340 341 77 450 421 358 261 269 236 263 220 208 203 197 137 163 170 174 183 183 195 126 182 203 186 203 200 184 177 154 130 154 105 140 165 219
238 228 234 224 231 237 251 253 288 338 338 360 294 323 136 95 91 150 295 222 208 204 197 176 170 182 169 166 183 95 185 188 164 88 199 177 167 184 91 111 105 93 163 209 130
238 203 226 232 229 230 246 261 284 344 338 357 427 435 366 255 251 236 294 223 206 203 198 181 192 186 173 168 79 108 182 185 136 183 174 163 166 97 170 161 191 197 192 208 210
152 225 228 221 231 229 244 259 280 341 338 370 467 452 240 255 265 230 297 228 213 208 181 186 189 194 187 180 181 174 187 164 182 191 170 128 183 118 185 189 181 195 187 198 211
237 178 229 224 226 229 241 256 280 341 343 383 507 451 229 254 266 215 300 248 220 210 147 195 188 192 194 117 117 184 183 193 116 165 179 171 134 193 175 144 172 189 191 193 190
241 223 229 224 218 231 237 250 280 346 346 385 498 230 235 258 264 212 297 289 224 212 148 157 185 201 191 186 141 158 181 165 174 180 165 161 95 177 172 177 188 181 187 190 196
259 221 226 223 218 233 236 246 285 332 355 399 445 219 244 247 221 215 262 221 229 215 209 147 159 157 189 190 184 167 180 190 185 191 156 174 156 198 159 161 138 187 190 181 180
261 225 223 217 227 231 238 243 290 337 377 339 223 203 224 245 271 245 199 191 313 224 207 177 175 161 168 173 173 175 181 178 165 176 183 148 163 182 185 156 177 196 191 168 173
267 230 226 211 217 224 239 246 284 233 217 235 220 206 199 226 237 253 206 229 191 319 217 202 187 185 182 180 160 168 167 180 177 184 176 175 167 171 170 164 178 161 190 187 184
275 231 217 216 218 228 242 242 181 220 217 207 200 196 231 230 235 239 257 206 188 203 279 198 197 194 187 183 181 185 191 177 168 179 178 171 173 186 178 186 192 172 177 174 183
279 230 230 224 209 217 234 247 209 210 205 201 192 194 216 225 233 246 259 279 200 194 273 261 196 191 191 190 187 186 191 191 157 192 184 165 184 184 158 177 178 168 183 185 165
225 212 225 224 216 216 225 229 217 207 207 200 200 195 189 202 223 245 252 255 260 205 270 265 245 189 187 184 194 194 199 187 181 190 178 160 184 180 168 159 185 164 186 191 181
170 241 229 227 216 218 232 228 220 204 209 206 198 190 201 196 191 221 232 245 253 259 198 265 258 224 198 193 195 192 191 188 191 187 183 177 159 177 181 178 185 168 168 174 148
162 201 231 222 221 220 123 208 217 237 201 206 204 203 191 193 194 193 200 225 238 244 253 252 184 226 216 213 196 200 198 194 196 197 169 187 164 175 176 184 171 153 170 179 193
172 181 233 224 219 204 211 243 229 226 233 211 204 200 198 199 201 195 195 186 220 230 241 245 248 202 182 185 186 193 196 190 165 178 185 175 164 179 181 192 185 189 194 191 190

GFSSW_2pvu_pres_015.txt.gz
Presure
229 229 223 224 234 232 223 205 212 264 267 275 279 228 230 234 232 278 184 183 186 187 204 159 122 115 94 213 120 104 175 109 123 116 95 103 93 81 90 87 100 89 103 159 147
222 214 225 170 136 179 267 261 258 256 259 253 262 277 263 252 238 233 275 191 183 190 190 189 117 101 204 163 187 128 141 104 150 109 110 99 92 80 92 143 161 89 95 95 133
208 214 220 214 205 266 249 250 239 240 251 243 252 258 269 274 285 230 268 244 192 192 196 201 189 179 89 180 88 108 146 84 100 104 110 112 91 92 90 132 102 87 94 84 84
205 223 227 201 265 251 236 250 243 237 239 242 252 262 261 282 315 330 226 280 202 125 188 198 187 195 203 117 99 82 78 86 86 98 129 108 93 173 116 92 89 80 80 152 200
200 215 201 218 251 241 224 238 238 233 231 233 241 249 253 283 324 372 222 264 240 195 131 102 188 192 192 133 160 159 168 89 83 90 161 174 149 94 135 98 91 88 133 182 147
210 211 203 220 243 218 247 229 238 254 237 261 269 257 300 393 401 410 378 240 283 206 199 156 193 190 195 198 188 124 212 133 93 166 109 99 101 90 96 100 95 87 104 100 212
214 208 208 241 240 238 235 249 236 239 253 265 282 281 408 143 405 403 402 229 290 219 199 190 184 188 198 195 207 211 113 137 212 224 94 93 102 92 100 94 88 94 202 144 217
214 200 209 243 233 232 246 231 251 241 260 273 292 394 373 140 423 397 407 244 284 226 201 193 186 192 199 200 198 201 216 155 181 122 91 90 93 87 90 85 91 121 209 193 121
213 206 212 235 227 237 231 238 242 255 267 283 321 395 379 431 407 381 401 379 281 228 204 196 190 192 145 199 203 203 142 204 162 195 147 139 143 96 88 165 150 158 105 145 107
208 203 212 240 229 231 231 233 238 261 275 283 338 381 382 402 395 389 384 260 283 228 211 201 192 186 201 196 194 194 199 196 203 194 148 197 191 189 190 192 102 195 128 125 185
195 202 211 235 232 228 239 240 249 257 281 282 346 371 391 411 276 386 339 255 287 233 215 201 193 166 98 195 196 189 190 195 153 188 191 89 187 186 185 86 93 183 171 188 205
196 204 210 231 230 222 238 237 247 260 282 319 347 350 434 390 420 321 339 253 288 229 216 202 188 165 177 195 196 189 194 191 188 188 194 188 182 176 186 188 176 187 192 174 208
197 206 209 241 227 226 237 239 246 266 277 327 343 356 219 392 342 355 327 236 290 230 212 192 180 175 167 188 187 183 191 192 185 152 184 141 180 131 192 191 132 185 129 138 198
198 207 214 237 225 229 237 240 249 265 284 326 339 348 428 383 392 336 331 232 285 218 210 193 185 182 167 189 185 192 193 185 189 185 183 186 210 186 186 184 194 162 186 96 183
197 204 213 241 227 226 234 240 247 258 278 328 341 392 393 383 267 313 258 118 279 225 208 192 191 181 178 114 178 187 193 193 186 187 182 191 175 196 155 195 185 176 191 148 109
202 204 190 243 226 231 237 240 250 261 317 323 347 436 206 80 349 328 271 276 246 221 206 196 192 184 187 186 184 187 186 175 193 181 186 193 186 185 178 175 172 149 187 123 189
206 206 213 241 226 229 234 242 246 262 336 343 407 436 375 350 324 257 283 259 267 224 210 198 193 153 188 182 70 167 175 168 189 167 184 138 198 100 170 179 108 177 172 183 185
206 211 236 239 222 233 233 243 248 293 345 348 469 398 376 330 271 256 224 269 238 220 207 167 194 187 187 159 182 181 74 186 176 167 183 167 196 195 177 169 199 107 107 181 162
205 212 247 238 217 234 237 255 264 317 348 347 473 365 373 327 264 273 226 276 254 218 206 199 192 187 184 178 176 174 173 99 179 170 187 138 94 170 152 177 92 106 173 179 181
202 211 238 236 220 235 239 257 266 325 356 378 457 365 357 255 259 251 222 296 254 220 206 196 196 188 181 183 177 182 183 177 178 120 95 183 194 176 169 185 184 156 157 168 159
200 211 252 240 226 233 235 260 277 319 376 408 395 199 226 239 241 215 222 323 289 220 204 199 201 187 186 133 189 187 190 185 183 181 165 120 165 144 179 167 174 178 192 179 165
204 209 249 227 229 228 229 258 232 252 256 212 197 220 241 246 254 222 197 294 301 215 204 200 199 193 184 185 188 189 191 182 179 171 176 171 170 196 187 167 181 158 159 160 172
203 215 245 228 225 229 240 251 208 209 208 197 192 203 232 248 251 230 202 256 295 292 214 202 201 198 193 170 156 151 191 192 187 180 181 184 188 174 184 179 175 169 169 188 177
169 217 250 231 233 228 229 225 215 217 211 202 194 188 192 222 233 223 201 201 231 303 299 220 208 202 184 185 168 164 164 177 174 164 174 176 190 172 178 185 184 175 190 186 176
171 197 248 235 234 227 227 220 212 210 203 201 195 192 216 225 228 234 240 208 198 198 227 328 219 212 205 192 187 187 185 187 173 178 180 165 183 165 182 183 188 182 192 186 186
202 219 257 235 223 228 235 232 217 202 199 195 190 188 204 223 229 248 254 310 312 203 236 190 315 235 211 204 200 193 190 190 184 191 180 191 185 189 164 180 176 174 192 174 190
214 223 233 240 232 231 221 224 213 229 200 198 195 187 196 189 212 214 236 254 287 295 225 194 250 269 269 254 198 195 194 192 192 187 185 183 183 186 188 185 191 190 193 170 170

GFSSW_2pvu_pres_021.txt.gz
Presure
207 183 207 201 193 200 182 195 206 194 216 206 239 228 227 231 230 240 241 220 217 233 255 234 163 189 177 99 172 189 107 89 101 97 98 124 84 174 116 103 169 90 92 98 90
195 204 194 203 215 196 176 202 199 188 204 226 213 284 286 295 288 267 230 234 240 211 219 246 207 200 197 94 152 146 196 127 85 94 96 115 131 99 102 115 115 95 102 101 89
217 196 186 211 215 197 194 199 199 198 226 215 222 266 263 263 264 264 263 270 254 227 220 229 243 202 201 200 185 170 173 178 121 103 95 96 106 193 172 115 81 111 79 90 86
212 197 228 206 208 200 197 199 196 192 227 215 223 250 256 252 252 248 252 248 265 267 233 221 226 248 195 198 133 71 170 184 141 171 110 117 99 111 109 84 105 90 94 89 79
203 197 215 191 201 205 194 199 201 202 216 234 214 252 252 241 241 240 241 241 252 256 264 243 227 231 247 194 117 85 138 189 117 100 117 129 94 102 108 184 94 106 82 90 88
203 188 204 201 203 196 192 191 198 210 203 216 218 252 238 229 232 237 232 237 236 244 250 260 242 225 232 236 196 196 101 156 203 181 101 212 88 99 104 149 110 186 87 92 87
195 200 202 221 198 189 192 182 193 187 209 216 216 236 238 231 227 224 230 231 237 241 248 252 264 237 212 245 197 195 111 85 160 97 180 203 123 100 103 214 203 116 83 88 113
218 212 202 209 199 187 185 195 195 204 210 215 215 232 234 227 223 225 237 242 249 250 251 253 256 259 246 230 247 197 199 124 108 108 178 98 168 80 105 98 118 103 108 91 162
213 203 201 211 199 196 178 194 204 202 206 216 215 235 239 227 228 231 241 251 264 289 268 274 285 281 253 223 247 202 197 129 183 152 86 129 90 143 192 120 83 88 104 102 135
212 206 201 196 194 187 185 191 206 208 208 215 230 235 233 231 236 245 261 284 284 292 350 337 338 298 267 234 231 217 192 191 166 109 155 83 89 177 86 86 90 90 89 102 121
206 210 213 224 203 197 198 195 205 208 224 217 239 231 233 237 249 264 286 286 315 342 342 375 389 377 308 235 233 199 196 192 181 184 77 187 106 83 174 91 91 85 89 150 172
205 208 182 199 182 200 195 204 203 204 217 237 229 229 239 247 269 284 287 316 342 343 352 369 384 410 289 229 233 231 92 188 190 184 182 192 157 107 109 197 87 122 122 180 93
205 221 198 197 207 200 194 205 196 226 225 239 231 243 243 267 289 292 320 333 342 247 429 120 439 495 325 263 205 232 198 191 184 179 186 189 205 202 150 199 197 202 202 199 198
217 203 208 193 201 198 200 201 206 218 256 232 241 240 260 289 296 322 322 347 412 392 374 200 357 398 334 234 245 214 87 181 176 178 188 188 208 205 198 197 178 177 194 196 167
207 203 197 209 198 193 205 202 212 244 242 236 243 256 289 294 322 327 371 411 394 395 357 356 367 306 314 232 251 209 199 187 184 177 185 193 214 206 195 203 176 197 192 164 190
223 196 205 199 198 198 201 205 224 250 229 244 252 282 293 313 333 419 405 400 345 328 151 328 374 320 299 222 236 207 203 196 189 177 184 195 206 208 195 194 199 195 196 188 187
218 203 196 195 194 201 203 215 241 237 236 247 261 292 309 341 393 400 212 329 312 315 316 363 348 314 231 249 221 209 203 196 183 175 180 202 215 203 196 191 195 192 187 181 187
229 201 196 181 197 200 208 224 254 234 240 255 299 315 336 370 411 354 72 315 312 313 333 333 300 270 221 233 218 117 197 183 173 172 196 200 201 212 193 193 188 188 186 167 185
222 212 203 197 202 203 214 243 246 236 250 267 328 352 339 412 343 344 313 304 308 328 330 325 250 226 251 218 203 199 184 171 172 171 197 206 202 190 188 189 186 182 186 181 181
211 217 185 199 200 205 220 263 241 234 250 326 378 343 363 340 312 317 317 315 327 335 311 240 232 253 235 218 207 199 175 152 170 190 196 202 192 197 186 185 184 181 185 183 195
203 216 198 203 200 210 240 239 230 250 226 362 334 344 335 328 316 320 348 326 284 265 228 242 221 215 208 205 195 87 81 172 169 192 193 197 198 189 188 188 186 179 118 156 177
224 206 203 202 209 218 255 247 224 216 251 353 321 323 336 344 328 324 326 262 252 227 223 222 174 222 201 158 193 185 164 180 180 172 192 89 189 181 180 185 177 179 171 175 186
216 197 198 203 206 219 256 233 210 209 208 222 260 321 324 327 328 311 285 261 253 227 224 253 217 213 205 194 197 184 172 182 179 171 181 181 183 184 179 187 176 176 174 174 157
208 205 194 206 211 224 249 246 207 204 204 220 231 228 288 324 276 287 257 239 207 250 257 249 206 212 212 202 192 190 185 177 183 174 178 162 177 183 171 172 167 177 165 163 175
204 208 204 200 215 239 242 216 206 199 202 219 187 236 217 227 221 226 217 236 239 247 246 226 212 205 198 188 188 199 185 177 175 183 186 131 184 178 176 171 174 172 164 168 161
205 208 197 197 213 247 242 231 205 144 179 217 226 216 246 260 263 227 210 249 241 232 230 213 201 195 194 194 192 180 179 139 167 176 177 180 179 190 184 176 185 182 186 189 186
204 207 207 207 214 248 240 235 207 200 199 214 225 234 236 247 261 273 251 230 254 269 242 222 206 197 195 194 191 179 181 181 183 172 188 179 183 185 179 179 186 188 191 192 191

GFSSW_2pvu_pres_024.txt.gz
Presure
177 176 200 202 197 199 206 197 209 223 213 201 206 204 212 212 211 240 234 242 244 231 231 237 243 251 206 105 196 191 168 148 99 96 101 88 190 99 161 83 91 85 85 116 165
191 198 195 190 184 194 186 202 189 215 212 202 185 204 210 198 227 226 226 236 237 240 238 228 224 240 248 210 140 205 94 145 140 93 105 153 101 132 130 97 89 144 95 180 194
212 203 209 194 189 204 203 208 218 209 219 199 200 204 206 197 222 226 275 279 284 286 239 241 241 224 239 225 130 198 185 131 174 93 87 94 102 188 89 94 111 106 96 93 92
191 215 203 183 205 200 200 191 201 205 208 207 196 204 209 203 217 219 257 273 277 269 269 264 239 227 234 235 253 199 94 89 121 188 109 92 97 95 101 125 98 104 108 84 91
203 206 198 201 211 216 209 189 203 200 204 210 197 193 197 204 218 234 228 271 263 262 266 264 267 258 237 219 239 235 139 190 191 165 189 110 106 97 110 94 104 114 197 174 98
216 214 212 218 205 204 217 193 214 224 207 205 192 192 185 207 221 216 215 250 250 247 251 252 254 262 233 237 225 244 108 201 107 84 141 132 108 107 160 85 97 112 98 114 89
208 198 223 218 206 200 204 191 215 209 205 199 190 190 197 206 214 232 220 239 254 245 245 244 250 260 266 253 227 223 242 150 96 89 104 183 176 104 107 106 150 101 105 106 111
216 221 219 197 194 213 209 218 212 204 205 193 181 190 201 214 207 221 223 241 240 235 234 229 237 242 251 267 275 224 237 239 205 116 97 182 167 185 181 112 120 95 102 106 113
153 220 226 214 198 213 207 211 205 211 221 193 196 190 201 204 208 213 226 241 235 231 231 232 231 234 245 256 268 269 211 240 208 157 102 188 105 188 101 103 199 91 101 107 148
226 225 205 225 205 204 206 211 190 218 198 192 207 198 208 204 212 220 239 237 226 227 230 232 235 243 247 255 269 249 192 221 242 202 196 156 162 189 177 120 101 113 92 150 87
228 230 233 158 222 198 207 202 209 218 203 195 194 204 201 211 217 239 239 231 230 233 236 241 249 257 261 288 275 278 235 227 237 211 200 154 89 188 186 130 187 182 89 139 88
291 256 230 226 224 204 208 214 195 215 185 200 198 200 208 214 239 239 236 235 240 241 258 292 291 285 293 189 315 306 303 235 235 241 207 192 116 101 104 80 85 82 89 202 97
249 281 251 243 237 206 203 204 210 212 203 190 201 200 211 227 241 231 242 248 254 296 289 292 266 319 316 326 351 389 328 326 224 235 213 193 186 184 135 99 113 82 145 120 196
242 265 263 238 242 220 206 215 215 209 208 196 195 205 222 246 233 244 258 271 298 293 298 326 275 122 336 343 355 347 330 313 213 243 220 191 182 192 177 138 180 186 206 201 90
245 266 270 244 243 219 218 218 218 190 201 201 206 223 252 244 254 260 301 296 309 322 325 358 351 353 350 358 360 436 73 218 217 243 215 196 186 191 188 185 183 106 203 200 196
250 273 281 254 193 213 215 216 202 201 199 210 224 250 243 254 266 309 321 330 305 385 396 410 382 371 386 395 289 406 305 301 186 238 220 196 180 186 184 185 191 204 205 200 191
286 267 276 261 232 214 225 209 200 201 211 220 243 247 252 264 328 350 399 426 407 388 358 364 250 373 373 397 372 290 267 209 233 236 214 194 183 198 182 184 184 207 204 197 196
273 271 277 264 228 230 220 202 206 204 215 237 247 242 260 360 320 422 432 332 326 328 326 330 340 362 440 417 289 275 266 235 236 235 206 187 183 193 177 191 198 210 198 199 202
272 278 272 252 225 217 198 205 202 209 227 247 227 259 332 309 419 297 83 317 312 320 318 324 376 345 301 264 289 267 252 217 241 216 197 175 185 179 179 191 200 202 200 194 194
274 277 262 230 227 216 203 186 205 220 250 229 241 287 305 366 362 305 311 237 315 249 354 314 305 260 283 258 249 259 217 241 228 207 183 184 183 177 186 198 201 202 197 190 195
276 277 249 235 225 202 209 203 212 240 225 214 233 313 302 353 317 313 312 320 321 334 320 310 274 261 254 258 246 200 210 233 215 200 188 188 185 172 194 202 200 199 199 197 189
282 262 167 223 196 209 196 206 223 247 213 220 231 329 317 340 315 300 318 320 316 161 274 262 252 251 271 251 252 197 242 222 212 198 192 183 167 188 207 198 203 200 191 188 186
274 209 210 211 205 207 208 214 246 215 214 223 227 331 330 331 318 318 302 275 254 264 266 246 228 251 253 231 222 288 228 215 198 190 183 184 180 200 205 201 188 188 182 184 189
269 241 230 200 182 203 209 226 246 211 216 212 225 329 346 325 291 286 269 264 262 269 211 201 251 248 180 185 234 226 213 207 194 179 171 176 195 199 196 193 193 185 177 166 173
245 227 199 210 197 206 213 239 216 209 204 217 226 232 318 292 278 275 263 256 268 253 274 167 219 210 202 230 230 214 208 202 178 183 172 168 177 194 195 186 173 181 174 168 171
228 229 209 214 202 212 216 250 214 207 206 216 226 222 210 289 281 268 228 200 261 178 259 246 180 187 249 219 210 214 189 183 168 168 178 192 190 170 177 160 163 171 176 182 179
233 224 184 204 208 213 220 251 215 210 206 94 216 231 234 214 254 240 166 207 216 252 232 207 256 200 223 216 216 206 198 192 184 181 180 174 178 179 178 175 176 177 177 176 186

GFSSW_2pvu_pres_027.txt.gz
Presure
207 211 186 191 201 186 190 186 201 192 198 198 203 199 200 204 219 201 213 200 217 210 215 238 237 244 246 254 219 160 178 179 104 197 87 196 157 115 129 108 118 90 89 89 88
206 208 210 198 188 187 183 192 186 190 196 196 210 216 193 220 212 204 209 212 211 201 235 243 240 246 245 237 250 246 105 117 152 108 178 95 96 217 117 114 214 182 114 136 91
213 206 209 188 194 202 206 207 188 185 205 195 198 211 194 207 216 206 195 208 209 205 202 230 307 234 233 251 232 250 241 129 171 187 205 150 97 83 210 111 136 99 111 111 82
218 207 205 207 203 194 192 192 211 197 198 195 208 193 214 204 208 210 198 209 211 202 221 243 285 298 297 239 248 236 247 240 131 181 104 195 131 98 153 158 105 186 89 91 93
227 211 197 188 195 195 190 201 191 202 192 218 200 197 213 183 209 207 203 203 204 201 229 229 233 284 279 286 242 248 232 244 87 210 119 196 99 91 96 100 122 106 106 166 93
226 165 210 207 204 199 212 201 199 206 199 188 215 206 191 207 208 206 198 199 205 210 221 235 227 273 276 285 281 240 245 225 241 201 213 115 165 147 104 97 114 88 87 80 123
230 228 221 202 210 213 213 195 210 178 219 204 210 215 189 215 210 203 196 199 199 210 215 218 229 253 263 261 270 273 235 244 222 246 212 177 178 103 150 133 81 78 97 101 114
224 221 221 217 218 212 205 214 208 215 206 217 207 214 219 207 206 203 190 198 186 219 213 216 227 248 263 254 257 260 264 263 217 227 250 143 184 165 114 144 130 107 109 103 105
237 144 226 226 219 219 216 213 213 211 198 206 209 195 215 203 214 212 194 201 201 212 211 216 224 248 246 247 248 248 252 261 266 211 236 135 193 137 84 180 149 148 109 121 114
249 242 232 235 230 202 213 229 227 229 213 199 209 195 216 203 204 202 180 199 205 210 201 213 237 244 240 236 241 243 247 250 261 256 222 252 190 107 196 109 91 185 102 120 113
195 178 219 248 241 235 237 152 220 214 216 217 207 208 212 211 222 202 192 198 209 208 214 223 245 238 237 237 239 248 254 255 256 261 237 240 237 202 184 191 179 180 178 100 185
208 208 207 201 227 250 250 239 212 233 220 211 202 210 189 214 218 187 208 203 188 210 224 244 236 234 233 238 244 249 253 254 256 139 242 124 242 131 125 99 79 179 171 135 96
229 207 200 220 149 228 229 305 270 232 228 207 200 196 217 221 198 202 210 203 212 225 233 223 232 234 240 248 248 251 254 252 260 263 275 230 242 219 201 123 136 86 189 161 90
228 202 227 192 215 214 232 248 289 264 245 209 200 208 216 222 206 210 208 219 228 230 248 247 243 250 253 278 302 306 295 291 295 292 83 151 224 232 203 131 95 69 189 76 148
225 229 183 236 193 220 231 243 278 275 247 239 207 213 220 198 200 206 221 227 239 250 251 279 329 322 302 310 297 301 288 289 311 292 292 301 210 233 213 194 183 111 177 177 171
232 240 235 179 225 240 230 240 269 235 239 237 211 219 201 200 210 226 232 251 259 299 331 323 332 329 297 303 307 307 308 320 325 168 318 290 110 230 222 196 179 184 179 135 107
241 244 243 243 239 242 241 259 292 247 240 219 231 205 204 222 226 236 267 282 339 424 438 425 403 391 379 332 276 328 321 234 331 339 398 296 227 229 201 197 184 189 186 188 189
250 250 249 251 254 249 250 266 282 244 212 233 196 192 225 227 237 221 317 439 390 384 376 369 366 330 374 379 367 398 360 362 373 404 243 285 225 237 226 207 186 181 182 183 178
288 270 266 264 259 263 272 292 258 231 228 201 199 226 225 237 222 344 373 348 353 349 340 325 324 326 346 363 378 397 431 374 323 278 106 275 219 239 227 207 186 185 186 184 186
321 331 307 303 279 279 270 271 244 231 200 202 223 225 231 221 285 345 334 322 337 327 319 322 328 328 335 376 289 394 348 236 275 260 276 225 215 225 218 192 184 177 178 183 181
335 413 359 317 283 282 271 244 230 201 208 220 225 210 216 279 304 329 306 259 339 348 330 330 299 280 282 267 266 264 258 261 228 200 262 215 213 232 216 190 182 186 179 185 196
337 367 338 312 286 261 236 230 206 205 222 227 222 209 239 299 331 310 320 348 306 313 261 283 262 255 255 249 254 248 259 249 186 171 230 216 227 224 208 182 181 183 180 189 196
331 364 317 285 264 168 233 210 201 212 226 227 209 223 271 327 321 320 281 274 264 256 125 246 233 244 258 237 241 255 236 246 273 184 214 232 223 219 195 176 173 178 184 197 203
342 325 292 277 242 216 216 201 211 221 229 207 213 233 337 353 277 204 272 262 247 261 249 244 248 240 240 243 231 230 248 269 243 219 229 224 217 187 173 180 177 184 191 203 201
325 289 291 241 170 220 215 207 216 225 219 205 226 228 386 345 310 313 270 252 255 243 246 253 246 234 245 254 237 232 241 263 221 184 142 219 210 186 180 175 189 192 205 197 200
286 286 248 238 217 212 197 209 223 242 207 208 225 230 294 289 199 270 189 255 215 189 237 145 244 237 242 248 213 194 264 224 228 236 224 202 184 178 181 130 190 199 195 183 189
281 255 242 222 196 212 205 215 227 228 204 199 217 230 228 252 149 248 200 265 204 182 150 242 188 177 187 234 243 269 208 224 242 233 207 197 181 178 188 190 191 182 184 181 176

GFSSW_2pvu_pres_030.txt.gz
Presure
307 285 220 210 215 210 215 200 212 200 198 186 168 166 180 185 179 173 187 188 218 198 206 212 208 212 128 188 147 164 189 207 200 190 87 200 175 126 91 89 90 129 146 122 98
288 271 244 242 215 209 209 212 209 178 183 193 198 166 190 165 178 192 192 223 206 202 221 203 219 204 205 192 157 98 192 193 212 128 136 133 166 208 207 100 89 87 94 90 138
274 263 244 231 218 208 207 211 214 182 196 194 160 197 192 194 178 201 205 213 202 208 223 208 194 205 214 212 240 217 247 238 247 210 135 153 90 192 200 207 219 102 89 89 82
268 255 244 225 221 209 209 205 179 192 191 194 191 178 198 213 197 200 223 205 218 202 217 212 187 209 215 212 202 234 252 236 235 83 256 184 104 106 114 201 203 208 110 102 101
263 254 244 227 228 222 215 210 205 201 194 202 182 193 212 211 195 208 225 196 216 220 210 216 201 206 201 204 228 234 310 307 232 244 89 241 198 112 93 89 91 152 214 117 109
262 253 246 237 228 219 202 208 205 198 202 199 190 196 207 201 211 199 214 223 200 204 215 214 216 204 205 197 223 236 270 292 295 237 240 141 241 152 167 96 99 111 139 190 172
265 247 247 232 236 135 219 217 210 206 194 194 195 183 205 191 196 203 190 218 209 205 218 222 211 197 196 209 228 224 241 281 287 285 240 239 79 74 174 123 184 96 106 193 213
274 255 240 249 237 228 219 220 211 197 202 207 195 193 207 205 209 214 204 212 220 194 209 226 209 208 195 202 224 214 233 272 265 288 272 247 232 91 178 84 146 99 95 103 108
281 265 254 233 232 231 230 228 173 216 202 200 201 202 203 209 219 223 215 206 226 226 209 213 224 193 208 204 219 217 227 256 253 255 264 279 228 226 113 208 99 163 177 100 92
225 283 258 240 230 221 220 226 221 216 161 210 209 205 212 202 220 215 212 208 213 220 205 211 218 194 212 206 221 212 223 258 254 255 262 271 243 224 216 257 202 104 180 193 138
225 212 303 265 253 242 227 223 221 224 139 220 215 220 219 217 208 230 223 205 218 217 221 208 215 188 196 209 215 214 229 263 251 250 249 257 264 234 221 243 248 191 151 182 110
217 225 212 214 280 264 252 238 235 228 230 228 230 226 225 221 224 232 221 216 214 222 224 207 226 205 204 213 209 209 230 256 249 240 250 252 256 224 231 228 97 210 125 185 196
209 212 222 216 203 207 203 140 231 243 235 223 241 243 228 226 223 224 221 223 221 220 224 225 212 206 209 209 217 84 232 197 246 246 250 256 255 262 263 227 246 94 196 185 148
217 215 205 226 218 213 205 202 211 211 213 220 220 232 293 265 234 232 233 213 218 218 230 228 214 207 214 225 232 231 232 246 245 240 243 253 251 267 145 144 234 240 215 108 85
231 219 218 224 210 218 218 215 227 188 211 211 221 235 279 274 262 237 238 238 215 218 235 207 208 222 236 135 137 245 236 246 244 244 250 256 262 264 262 242 213 241 225 118 101
243 229 221 222 217 207 228 223 219 225 193 232 225 235 276 265 252 245 245 233 224 234 212 227 239 241 236 240 256 261 249 247 250 252 264 258 275 210 267 258 125 242 131 83 118
241 239 230 229 224 222 213 232 216 191 207 206 234 248 278 255 240 243 243 230 216 221 239 238 244 269 367 258 358 328 318 315 327 331 324 293 137 341 219 79 224 244 227 206 182
253 248 239 230 229 229 230 234 229 226 219 240 243 298 261 247 243 233 224 214 236 231 245 286 359 372 405 282 271 331 324 305 312 329 325 298 322 301 299 318 230 237 228 209 191
267 259 242 241 238 238 230 237 225 225 235 245 273 267 249 231 228 205 235 231 234 257 353 356 343 336 335 351 368 124 370 319 316 312 300 301 322 292 278 75 231 237 226 208 186
349 342 279 258 257 247 244 235 232 235 250 257 274 248 232 217 221 234 225 234 313 338 341 337 329 322 325 337 342 341 365 325 337 320 179 209 296 241 283 296 144 177 224 210 187
347 334 322 293 290 274 256 242 240 246 260 285 246 231 209 229 234 224 247 344 347 371 282 289 304 291 313 349 340 355 370 218 426 398 362 359 401 381 293 240 221 201 222 210 182
344 346 313 307 315 294 263 251 254 264 278 247 231 200 231 242 222 264 351 276 276 259 262 263 259 258 253 285 298 298 310 309 86 281 277 295 295 268 277 231 220 231 224 210 181
360 316 305 325 346 385 296 269 274 277 245 225 210 231 231 222 278 306 281 267 265 260 121 249 245 252 247 263 269 260 269 276 267 260 104 220 273 258 245 220 229 225 219 198 186
345 307 332 341 387 337 322 302 272 239 223 214 227 243 219 291 273 201 269 258 244 248 239 251 236 245 255 235 238 250 254 262 263 261 252 220 181 252 198 218 225 220 216 191 184
321 275 251 366 322 298 288 170 237 223 209 226 244 217 230 398 251 263 257 257 243 242 239 235 236 252 233 240 234 244 246 165 251 251 252 268 246 213 216 221 224 220 206 179 180
321 321 364 292 285 268 249 235 225 210 223 235 215 219 228 331 273 273 276 241 215 242 237 233 236 241 234 239 242 250 233 237 249 295 280 245 229 215 217 224 219 213 180 180 171
312 320 285 276 257 250 194 224 223 216 233 226 215 227 351 238 178 253 265 250 204 239 235 255 236 243 239 238 227 220 259 227 258 211 270 207 218 209 228 223 207 180 176 176 178

GFSSW_2pvu_pres_033.txt.gz
Presure
223 218 209 206 211 195 206 211 217 215 208 219 207 202 185 203 163 155 203 201 176 161 193 206 197 187 193 195 212 196 185 207 209 89 164 165 167 198 186 167 109 93 105 139 168
271 227 223 227 218 216 199 210 204 194 187 215 218 200 200 178 173 172 172 163 189 198 179 180 201 205 206 172 216 139 205 207 207 189 161 199 207 135 197 173 85 99 178 93 193
256 249 212 220 226 236 239 236 227 223 201 202 211 205 206 202 197 206 179 192 190 166 177 200 191 188 197 212 220 216 96 87 228 223 209 193 199 183 118 195 197 86 93 110 115
247 240 222 221 321 299 281 262 252 213 202 200 211 205 198 194 195 195 208 197 176 171 217 209 209 192 194 223 225 204 202 215 98 207 222 232 142 186 174 100 193 186 90 89 94
238 235 227 313 295 281 266 253 250 247 215 211 209 205 181 193 194 183 173 193 205 208 180 189 201 214 218 210 228 208 197 210 217 147 99 101 199 243 134 97 89 192 175 92 95
238 227 285 297 280 266 254 248 247 237 210 207 208 206 197 193 186 190 196 192 185 185 202 208 211 191 208 226 219 221 191 210 212 213 163 98 102 206 240 147 143 133 194 198 134
237 230 279 285 270 254 248 242 240 231 227 223 213 210 204 189 191 184 203 202 202 192 200 220 209 229 209 210 229 220 218 207 207 204 228 243 316 319 236 241 90 93 124 190 197
238 230 265 288 268 250 245 239 234 183 127 218 218 212 195 194 186 198 203 193 200 204 216 205 209 216 224 214 222 222 216 204 198 209 217 233 276 285 294 242 242 243 87 169 181
237 229 223 292 268 253 243 242 235 231 217 222 173 215 210 198 190 194 194 192 201 200 212 212 216 222 220 224 213 217 228 212 200 203 218 155 230 281 265 278 247 236 219 158 86
246 225 218 295 279 255 249 243 241 232 230 222 216 179 209 211 201 195 202 203 205 209 217 213 229 228 224 221 229 222 227 231 213 209 205 227 191 234 92 295 245 242 157 224 178
243 241 223 222 292 269 254 246 237 231 229 221 215 217 216 159 199 202 194 205 209 209 209 228 224 218 216 227 216 219 211 225 205 221 214 228 222 232 270 290 284 241 235 242 204
266 247 228 222 216 282 260 262 245 242 226 231 228 222 223 150 208 205 211 209 209 216 221 228 228 212 223 221 228 226 224 216 225 199 206 221 223 234 259 265 290 137 235 237 253
271 267 248 226 222 224 231 267 253 239 237 235 234 225 226 223 217 221 220 225 226 227 228 229 233 231 226 221 226 225 230 218 228 223 219 219 219 228 261 261 261 276 135 199 243
219 219 253 243 227 210 226 216 271 261 257 244 186 232 232 234 231 233 235 223 242 247 254 240 230 233 236 228 232 233 230 228 235 218 217 219 211 235 251 259 253 260 248 201 222
219 240 217 220 238 215 219 217 214 201 223 238 239 236 238 238 237 223 223 221 230 240 299 280 245 239 240 240 231 230 224 235 237 217 217 226 246 240 266 254 245 248 256 233 213
242 230 246 232 219 214 212 207 208 210 204 203 201 200 215 209 211 210 228 229 232 278 279 270 261 254 250 249 251 222 226 230 221 226 241 242 257 253 255 222 234 248 252 261 215
267 249 233 234 229 221 218 209 202 219 210 209 205 198 217 209 202 201 209 225 272 275 264 262 257 260 265 260 249 227 229 235 239 240 258 242 245 258 193 248 205 244 247 265 230
278 270 246 235 228 239 225 211 226 210 211 210 221 204 211 215 216 209 208 279 267 258 257 255 226 228 229 238 245 249 262 269 265 265 263 88 251 282 231 239 234 246 252 266 237
395 271 262 255 231 225 241 219 211 213 206 216 210 205 206 223 221 242 277 267 259 241 219 226 231 236 361 346 351 106 356 410 390 360 348 352 175 264 250 235 240 244 256 170 235
364 355 273 255 254 225 235 224 217 222 216 210 219 210 220 226 240 269 271 246 220 229 229 288 296 306 329 329 327 339 333 241 413 373 344 238 367 321 76 211 242 180 181 259 237
352 343 353 259 254 245 232 224 228 223 221 224 220 220 223 238 270 268 222 227 224 276 272 256 285 276 274 304 346 362 359 339 313 387 368 350 356 319 187 149 283 271 268 240 237
332 366 342 357 267 261 254 241 237 227 231 227 222 228 236 278 256 212 225 246 266 248 275 273 269 264 244 262 269 277 351 367 354 354 405 373 318 72 296 293 295 294 298 277 234
341 312 318 362 332 304 262 241 236 236 235 223 237 239 280 246 215 226 249 284 257 276 261 262 249 247 255 248 252 266 269 293 374 379 395 371 287 128 284 288 289 280 271 275 225
328 317 318 326 321 314 334 288 247 245 249 245 243 274 236 217 225 296 187 254 243 240 262 253 249 242 243 247 249 251 250 272 289 313 386 266 311 283 303 81 284 279 265 257 221
331 331 310 306 312 313 315 324 363 303 272 252 268 227 228 222 231 233 251 177 271 263 240 243 235 242 245 247 231 255 234 255 255 261 273 290 299 307 184 297 239 268 262 225 213
319 317 309 291 315 319 325 344 325 295 261 254 227 219 220 231 315 270 237 244 207 242 249 240 234 245 237 232 226 235 251 228 249 256 259 254 268 262 274 274 273 266 226 218 83
329 317 326 300 308 315 333 314 287 267 240 227 221 223 220 243 286 222 217 174 161 237 244 243 233 239 237 230 233 233 240 233 254 245 240 255 265 260 267 262 258 224 219 217 225

GFSSW_2pvu_pres_036.txt.gz
Presure
252 283 266 264 265 237 212 222 209 231 228 227 212 214 214 214 212 203 190 199 172 225 215 182 210 210 208 196 114 190 190 186 182 195 198 208 205 198 191 194 94 191 103 167 216
281 294 317 260 257 269 236 213 202 204 219 199 224 224 205 211 221 229 215 210 191 180 182 204 208 184 198 185 178 145 182 186 214 208 202 198 207 205 207 149 189 185 84 193 91
304 299 282 253 289 271 260 236 209 207 206 200 210 215 211 215 200 212 218 208 213 185 207 188 191 208 204 175 177 199 185 177 182 208 220 221 109 182 179 195 195 202 195 156 98
312 317 245 297 283 276 268 228 219 207 206 200 204 195 199 204 204 214 219 207 204 199 198 163 184 165 205 178 201 172 173 201 122 84 210 209 221 224 81 225 203 194 200 194 191
296 296 292 274 264 264 255 252 227 221 214 215 211 210 195 201 192 209 205 212 203 198 185 185 199 188 183 218 196 204 210 211 205 133 163 219 109 216 225 225 199 194 198 108 132
290 290 272 259 257 250 248 251 240 218 206 212 214 215 215 212 204 195 198 215 205 201 204 199 195 184 210 197 182 181 194 218 221 206 105 135 196 159 205 212 212 85 214 194 202
284 277 261 246 251 245 228 231 222 211 224 230 229 229 230 228 226 203 201 208 207 200 199 202 199 207 211 208 198 183 211 192 213 218 230 232 184 207 126 214 211 224 261 258 111
282 270 257 243 242 248 228 224 275 298 291 280 267 258 242 238 231 220 216 207 205 195 196 196 200 195 190 187 202 185 201 215 224 214 229 236 221 216 223 203 99 244 260 264 258
280 268 251 246 238 244 233 227 294 285 275 266 253 244 241 135 210 223 212 215 204 208 196 186 190 195 202 206 209 208 222 204 217 231 216 237 91 150 218 218 98 99 100 271 254
283 272 258 242 240 240 231 220 281 273 262 253 248 242 236 234 235 231 216 214 203 202 193 191 191 201 205 203 214 211 211 226 233 221 230 217 238 182 219 214 204 231 228 302 301
282 280 267 255 242 239 230 228 275 268 259 247 240 238 235 232 223 217 215 212 211 198 204 202 200 195 203 207 214 216 225 220 236 233 220 229 220 235 225 207 202 212 238 281 293
236 266 275 252 253 242 235 225 270 265 245 246 242 235 229 227 213 219 182 215 208 213 201 190 200 201 202 215 214 217 217 222 231 232 221 232 237 230 234 224 220 201 219 266 282
230 240 259 272 262 247 237 225 225 269 252 243 241 235 232 230 221 206 215 220 218 211 208 214 210 206 213 216 217 221 229 235 245 236 237 230 224 236 229 228 215 206 219 228 269
243 241 242 256 272 258 242 232 223 219 263 248 243 221 230 234 227 226 227 216 177 202 223 219 213 217 223 224 227 237 245 249 250 248 246 247 251 234 223 219 196 190 217 200 232
300 258 241 229 249 264 242 236 226 215 219 256 243 239 231 222 219 229 231 231 230 228 230 231 227 230 243 246 247 243 244 258 260 256 252 245 253 219 229 216 220 202 215 211 102
516 293 252 240 250 263 236 243 227 228 225 211 257 250 241 243 236 209 233 231 231 238 250 252 232 210 230 237 241 265 292 291 285 269 273 255 255 264 218 229 221 207 209 210 243
503 435 283 257 239 229 257 213 242 229 216 216 208 266 253 254 252 249 248 216 221 214 202 206 206 210 226 251 291 285 276 277 279 276 289 281 273 210 212 210 225 200 204 222 249
487 501 294 271 252 246 248 257 224 226 218 209 209 209 208 205 200 201 198 207 211 208 220 213 227 252 285 262 248 249 247 243 251 256 216 187 131 303 160 166 218 216 165 225 244
467 484 447 280 263 234 229 232 225 214 219 209 208 210 213 217 211 208 209 207 207 211 216 239 282 251 235 238 309 355 353 349 357 347 346 297 260 74 190 105 223 223 222 147 82
442 458 430 321 272 252 241 227 227 215 212 213 208 211 209 209 205 212 212 208 201 232 251 267 231 227 285 268 254 286 294 130 230 375 358 363 375 455 206 132 229 147 186 186 238
470 421 354 369 280 267 240 242 230 226 221 209 213 210 209 207 207 209 214 223 228 260 245 225 246 270 245 258 273 274 285 317 161 254 107 350 355 398 402 357 152 217 127 222 237
356 336 356 328 311 274 247 236 235 233 222 223 215 215 209 200 206 213 203 230 259 231 228 275 266 249 255 271 263 260 270 302 322 326 386 348 395 376 353 229 88 91 233 234 234
355 338 334 329 337 282 262 232 233 231 235 226 216 210 211 209 208 206 230 268 225 247 284 251 272 235 258 255 241 256 266 279 323 328 425 372 396 331 317 226 239 122 259 249 245
332 315 330 332 314 320 272 252 233 233 236 233 220 219 213 216 214 234 260 221 248 181 261 243 257 158 260 251 237 251 261 265 290 420 447 341 323 314 308 83 254 182 264 259 253
348 324 313 305 312 308 304 269 241 207 230 232 224 220 221 217 232 253 228 238 285 242 234 237 253 246 238 250 151 234 249 267 269 341 336 318 296 295 285 294 280 272 267 265 258
317 310 312 325 314 313 315 313 266 239 238 246 238 225 210 237 260 225 234 282 218 172 256 157 239 229 229 225 236 235 246 232 261 282 310 307 303 299 303 302 303 217 294 268 287
314 318 279 310 335 326 319 322 349 301 244 229 231 241 244 263 225 223 237 246 191 221 150 172 236 230 221 230 246 223 236 252 243 248 265 280 294 305 295 297 301 286 259 262 266

GFSSW_2pvu_pres_039.txt.gz
Presure
270 252 256 255 253 241 257 257 235 234 219 237 207 208 193 190 188 193 184 202 199 186 196 185 198 188 199 191 193 200 211 208 208 217 173 223 227 229 221 218 221 88 209 220 195
281 271 254 262 259 253 250 246 258 236 228 219 230 235 212 192 192 195 169 194 191 196 198 203 199 201 203 193 201 206 216 212 209 213 213 213 187 221 208 201 206 200 103 207 209
296 283 269 258 275 265 252 279 268 265 245 222 217 219 199 222 216 207 205 141 210 197 194 197 206 208 198 183 203 217 185 179 210 208 206 207 176 197 193 194 200 199 196 97 187
303 282 288 281 278 264 264 266 286 268 271 233 222 220 214 199 205 218 223 226 194 212 222 210 225 218 226 211 178 198 190 199 209 207 94 131 109 186 183 197 219 196 192 196 202
330 332 289 294 282 284 286 306 311 306 229 266 237 219 205 212 206 200 224 221 213 222 220 221 217 214 211 214 178 179 201 174 161 192 196 184 191 179 201 125 204 211 185 186 135
318 317 323 310 318 311 312 303 293 299 239 248 262 231 215 210 199 208 195 196 204 202 195 204 220 212 209 213 199 187 158 167 194 220 217 213 177 163 191 226 207 138 226 226 216
270 306 313 306 298 297 288 286 282 280 281 285 265 247 224 189 197 196 200 200 205 200 201 206 201 216 207 211 212 174 197 195 184 213 207 169 162 196 233 225 212 211 135 224 222
265 266 300 307 295 287 282 278 269 263 266 266 263 251 225 217 209 205 204 205 202 205 190 192 198 221 206 204 207 210 179 196 194 196 198 195 180 190 211 167 200 231 217 151 211
267 265 262 298 293 284 272 267 255 253 243 247 249 246 231 218 213 207 207 206 207 207 204 205 198 198 208 203 206 209 212 209 205 212 203 206 203 214 217 204 223 234 230 213 205
257 253 264 266 294 284 266 260 245 248 239 227 226 232 243 236 214 205 207 211 215 220 223 224 177 215 199 207 204 200 202 202 198 202 206 191 201 209 214 224 235 223 227 230 214
252 251 249 264 275 289 252 251 246 239 240 223 222 212 221 220 218 220 220 220 128 228 228 232 230 218 199 203 205 204 200 202 195 206 212 227 206 216 211 226 221 231 222 220 221
265 267 248 244 245 287 271 247 247 238 238 241 218 274 287 279 277 268 257 246 243 237 238 236 234 225 215 208 206 208 205 205 206 202 213 217 220 208 224 224 236 220 229 220 230
484 426 274 250 248 274 281 234 246 238 238 237 211 281 275 271 264 258 254 242 244 236 235 234 231 216 218 217 207 199 203 207 210 213 217 213 221 216 214 217 229 227 223 221 219
589 498 512 257 247 255 243 262 248 238 241 227 243 269 269 262 257 252 246 244 235 234 176 229 219 219 218 210 214 215 215 214 215 221 224 225 238 228 223 228 232 234 215 221 214
556 468 515 303 252 244 260 265 259 245 241 232 222 267 260 257 246 246 242 241 233 231 223 208 211 141 219 220 227 226 225 225 227 236 235 236 250 244 240 248 240 230 229 219 218
530 457 501 325 264 251 229 239 269 262 240 229 222 243 260 253 238 243 239 234 226 228 223 216 212 219 228 229 204 233 238 242 243 247 266 251 248 101 237 229 245 241 233 215 217
506 463 490 438 280 255 239 236 253 262 239 228 216 228 263 251 239 236 233 233 232 227 228 227 226 227 231 238 244 242 233 216 219 234 252 271 215 98 134 310 265 249 245 239 228
502 501 497 436 285 259 246 230 281 260 238 224 220 217 263 258 244 240 242 236 233 219 230 225 226 237 214 222 219 221 229 238 325 387 273 252 84 283 77 127 263 234 159 251 231
480 491 491 379 298 279 249 247 270 257 247 231 221 220 224 267 262 248 247 244 243 245 241 194 205 210 218 204 219 246 267 243 295 277 288 282 69 125 89 89 132 268 168 240 239
487 451 497 364 337 284 258 244 244 262 229 239 221 222 222 219 213 207 205 205 201 205 210 215 208 207 222 243 260 224 272 261 252 269 289 339 325 188 256 388 166 287 224 241 242
507 491 491 351 338 287 270 240 236 251 254 223 231 218 215 208 209 209 209 213 214 212 212 209 208 223 261 225 268 254 255 273 302 163 86 234 321 311 369 228 183 290 282 179 102
426 425 487 374 348 297 281 243 237 260 248 246 231 221 211 207 207 207 216 213 209 215 192 210 224 251 289 258 257 289 259 257 265 271 146 308 347 337 362 350 415 267 279 262 237
428 432 393 376 336 331 285 249 239 239 260 228 219 216 216 208 208 212 213 210 200 208 200 240 231 263 278 249 254 253 258 245 265 275 366 348 354 360 377 366 360 381 264 261 253
438 391 368 340 338 330 284 257 237 231 241 232 252 225 214 208 208 209 215 210 208 222 245 219 267 249 241 249 243 227 255 248 243 306 408 394 380 366 357 348 349 357 265 165 236
347 354 332 337 332 337 306 274 243 165 239 232 210 225 217 216 213 202 211 212 222 242 224 271 252 238 228 223 251 239 238 232 242 277 293 316 329 344 325 334 341 82 309 84 240
340 325 329 337 334 329 196 343 268 239 216 235 229 222 214 217 214 213 198 219 230 219 201 264 154 234 225 242 231 227 237 242 239 260 319 298 319 322 321 321 315 314 305 285 231
335 315 305 312 327 306 323 338 286 238 231 226 224 226 224 224 219 223 222 228 260 219 273 223 210 230 241 230 240 223 250 234 256 255 261 301 299 230 300 297 293 301 284 250 261

GFSSW_2pvu_pres_042.txt.gz
Presure
300 310 287 265 270 267 253 262 265 251 251 223 226 209 202 200 203 181 196 190 202 172 162 183 159 167 202 200 171 200 155 149 162 183 108 60 188 218 202 148 171 210 118 204 208
295 304 275 255 289 263 263 258 240 263 234 250 225 209 210 196 194 200 196 196 189 195 195 194 186 203 184 164 160 160 159 181 189 205 133 209 206 217 150 207 223 173 212 87 222
359 303 282 268 272 261 268 251 251 260 251 250 244 210 219 206 202 192 193 196 195 204 190 189 194 198 197 207 167 200 194 207 193 209 199 217 205 224 221 204 202 205 222 226 213
297 333 359 284 269 266 271 265 244 256 256 240 254 235 233 223 213 209 205 191 192 195 195 191 191 188 189 191 189 193 205 195 191 206 204 199 207 226 206 202 211 213 211 204 216
281 285 292 350 331 281 280 274 257 260 250 256 268 253 239 229 221 206 221 210 195 199 197 189 190 186 177 183 192 172 186 197 214 216 197 206 225 198 183 213 207 206 186 190 195
288 277 282 278 326 340 283 256 268 258 257 256 265 262 219 229 234 216 211 208 216 211 207 197 202 205 192 209 206 191 217 216 225 224 217 201 208 197 211 217 200 177 180 185 193
287 281 277 279 278 298 331 323 279 284 265 272 270 266 276 258 235 230 215 218 210 201 207 211 215 213 218 225 226 227 217 220 217 213 207 192 194 66 188 190 172 166 178 173 89
287 275 280 273 278 276 298 320 313 302 292 277 284 284 270 276 261 235 224 216 216 209 196 204 204 207 219 212 216 211 210 215 217 213 211 203 197 162 221 217 221 216 205 178 186
302 300 274 269 267 270 277 295 305 304 302 301 300 296 298 304 269 258 238 219 212 210 208 208 213 199 194 199 206 203 204 212 209 210 215 201 194 188 217 191 182 176 185 186 198
276 276 283 270 262 259 267 277 296 291 283 279 279 276 269 286 289 217 248 230 215 211 208 207 199 214 200 204 201 185 177 203 217 208 212 215 211 195 184 217 203 205 209 214 194
280 279 268 266 263 256 266 276 295 279 271 267 265 269 268 270 255 272 239 240 224 214 197 198 203 207 206 208 209 181 196 199 188 198 209 213 211 205 205 186 189 197 206 190 98
544 627 494 273 259 262 257 270 277 273 267 267 257 253 251 253 262 259 251 246 232 219 213 204 204 206 203 206 207 209 213 220 186 208 204 210 208 210 206 206 211 213 208 190 188
535 550 534 484 281 256 256 260 269 277 263 257 248 248 240 239 240 245 247 245 235 220 215 210 201 205 206 209 214 219 224 224 201 215 209 208 211 210 206 200 205 207 209 220 209
505 523 547 479 430 276 258 248 266 281 261 254 244 242 235 228 227 228 227 238 238 225 208 209 194 208 215 216 222 225 228 236 238 235 223 207 222 213 206 200 201 204 208 210 215
492 500 562 465 501 289 261 239 257 283 267 250 244 237 239 221 228 214 211 217 218 218 213 216 218 219 218 224 233 233 238 240 240 239 233 227 237 196 196 193 204 204 207 213 218
449 460 498 453 567 293 276 246 245 280 264 252 248 238 231 238 210 218 276 274 270 269 267 265 239 239 246 244 241 240 239 228 225 227 237 233 236 75 162 224 226 231 232 239 237
462 432 466 449 507 304 283 248 254 263 272 249 247 235 227 218 215 274 266 260 259 256 255 258 256 251 245 241 239 231 221 149 224 229 235 240 246 244 84 129 176 267 263 259 265
441 472 502 441 519 324 290 254 249 268 270 258 237 237 231 218 278 268 260 253 248 249 250 247 244 237 233 231 231 227 229 232 237 239 236 239 166 77 230 163 193 227 236 231 235
469 467 521 473 467 338 291 266 256 230 228 258 245 234 230 216 277 265 257 250 249 247 245 234 231 230 229 230 231 234 236 216 218 214 215 226 287 285 129 292 123 98 300 304 294
471 495 471 513 399 316 296 260 237 228 274 260 249 238 224 217 266 269 259 253 250 244 240 235 232 234 238 237 211 212 212 211 231 268 277 263 186 78 188 97 96 112 111 110 339
492 449 504 410 354 314 292 267 242 237 232 265 248 237 227 218 239 281 269 261 245 244 241 244 231 216 214 214 199 210 216 251 239 261 257 257 309 292 155 329 76 259 318 344 304
434 449 436 336 333 311 296 255 244 242 261 269 247 240 218 221 223 326 295 274 214 214 207 208 213 212 205 193 210 247 267 256 75 78 273 286 311 317 348 358 363 356 364 377 428
418 475 339 318 318 327 300 254 243 244 231 265 247 236 221 218 214 217 212 211 214 211 209 210 210 200 219 217 272 230 265 250 259 259 262 190 129 143 393 310 360 371 146 374 395
407 417 335 336 324 327 315 256 247 239 238 264 246 239 226 218 214 214 209 212 211 211 214 195 206 214 224 270 247 263 225 256 248 269 278 281 282 316 339 374 370 369 364 393 408
418 336 316 315 324 319 337 260 247 239 242 263 244 223 220 221 219 216 210 216 214 217 189 211 214 255 258 252 244 226 255 238 243 260 301 283 293 324 314 320 327 329 343 404 446
384 329 321 307 325 327 335 288 245 242 232 255 254 229 229 215 219 214 212 216 216 214 211 215 229 204 248 238 204 247 246 234 235 259 272 277 298 305 310 317 328 356 387 369 277
392 411 323 307 335 347 328 282 250 242 237 230 251 234 221 226 217 214 219 221 202 207 221 231 223 246 179 218 163 240 226 233 237 250 221 288 278 276 283 290 300 318 325 338 248

GFSSW_2pvu_pres_045.txt.gz
Presure
329 359 306 285 281 267 260 275 276 256 257 238 248 240 224 214 211 207 213 202 199 189 165 172 166 169 151 162 179 165 173 138 145 165 159 152 151 153 163 145 165 152 134 155 173
321 321 325 320 294 284 268 256 280 259 258 254 239 237 241 211 191 211 207 201 210 186 196 171 175 168 165 172 168 168 168 170 163 168 152 166 161 157 159 155 174 201 204 171 139
319 309 309 324 309 306 288 273 265 283 262 253 239 242 248 241 211 209 202 196 184 207 213 190 172 175 179 189 171 181 152 166 159 154 160 157 141 163 164 160 166 147 176 187 208
310 298 298 296 306 320 288 271 273 271 271 257 248 240 249 219 236 205 213 199 199 196 193 186 196 175 176 187 178 159 177 165 183 167 175 169 173 169 161 120 168 173 215 218 195
328 309 295 293 280 296 265 295 282 268 253 267 256 247 252 250 225 235 216 204 196 199 203 188 199 205 197 184 204 189 197 181 201 166 176 189 189 161 81 180 194 194 214 207 218
319 330 310 298 292 280 286 326 279 266 253 268 263 250 256 247 236 246 227 212 202 195 197 194 198 180 183 197 190 202 194 191 204 192 200 192 194 156 189 206 204 229 225 192 219
306 295 317 308 297 285 278 280 326 277 256 268 248 266 253 239 244 229 246 222 211 200 198 201 193 197 194 193 192 189 205 183 189 196 188 192 194 191 202 199 230 227 221 213 206
307 303 298 301 312 292 280 274 274 318 273 262 257 250 254 250 253 238 243 244 225 208 195 192 200 192 195 189 193 196 196 198 193 186 189 191 189 215 216 203 73 221 209 188 202
324 308 297 294 292 298 272 269 272 275 310 312 260 261 243 246 242 257 250 240 230 230 213 206 200 201 199 202 195 194 194 200 186 212 215 214 229 223 224 221 218 214 209 197 185
300 275 271 271 274 275 278 270 279 262 289 319 316 280 260 254 239 236 251 252 236 229 225 200 213 203 199 210 208 206 206 210 213 217 224 224 213 210 221 220 214 218 215 202 176
303 507 522 551 308 273 276 289 269 276 274 295 294 307 291 257 262 258 264 260 250 223 232 220 219 209 208 198 208 203 202 204 205 199 213 206 205 203 205 217 211 215 216 205 158
580 520 515 543 587 414 279 277 258 273 255 275 285 289 296 302 289 289 294 275 286 256 245 228 217 218 212 214 204 208 202 200 209 195 204 206 204 203 190 200 206 209 215 166 215
506 546 510 511 541 488 424 267 262 261 251 280 281 281 282 283 283 282 289 291 297 279 251 243 224 219 215 216 212 212 209 211 200 204 202 206 208 196 194 187 197 199 210 215 214
478 470 478 495 529 475 489 291 267 254 248 270 281 272 276 272 273 269 268 265 277 286 263 246 239 229 219 213 208 210 206 202 208 213 206 209 209 192 185 210 215 229 202 212 220
462 422 455 466 505 452 541 294 265 247 250 265 283 274 270 265 257 255 256 262 257 275 264 213 224 235 230 225 219 206 200 205 211 206 212 210 217 202 216 215 223 226 227 230 225
433 448 448 454 491 442 523 288 262 248 249 273 279 264 260 252 248 246 248 248 252 257 258 254 228 232 234 230 226 210 214 212 213 212 216 216 223 86 192 200 238 245 246 223 214
422 425 455 460 491 477 376 291 258 253 253 254 275 261 255 243 242 239 232 235 235 238 243 246 240 240 238 233 227 210 210 211 216 219 220 226 234 237 87 133 232 240 241 238 234
423 437 469 466 492 488 330 294 260 258 238 261 271 257 252 244 240 231 230 225 224 226 228 232 231 235 234 228 222 217 216 220 222 227 230 260 248 239 228 91 71 126 114 117 245
423 449 477 512 469 381 319 292 269 252 233 258 268 253 247 243 234 233 231 221 228 224 216 214 219 218 217 219 222 222 234 268 263 256 251 239 232 235 233 187 250 102 105 234 166
434 460 468 522 440 356 309 288 276 250 238 244 268 256 241 239 235 232 233 230 209 236 270 265 263 261 257 258 259 254 247 240 240 238 172 240 236 224 220 226 236 258 139 239 225
418 449 473 498 367 331 305 293 272 247 245 247 273 253 248 242 235 231 217 261 268 262 256 250 245 244 248 252 213 239 232 236 232 214 215 188 222 255 272 274 77 143 119 282 108
408 441 470 367 349 329 306 298 265 251 239 246 277 261 242 241 236 218 272 280 269 262 253 250 247 249 253 240 231 215 217 213 214 213 243 277 276 282 275 276 81 83 175 434 406
421 465 498 353 341 318 314 294 262 244 229 247 275 262 241 229 219 215 282 281 272 263 250 246 246 240 205 213 216 207 217 216 271 253 246 259 265 280 319 321 318 333 327 387 127
435 457 465 350 324 323 304 283 266 238 247 229 268 259 252 222 219 215 311 294 278 270 237 211 212 213 212 204 210 216 251 261 258 253 255 255 314 89 118 85 79 327 252 330 379
430 390 388 347 336 327 270 291 259 241 233 227 267 257 236 223 219 218 221 222 215 215 210 212 210 215 199 212 218 256 256 255 211 239 250 280 278 284 303 317 327 327 332 329 347
362 348 345 365 323 317 299 294 255 247 231 225 264 253 238 225 216 214 212 212 209 210 211 214 216 212 216 242 236 262 238 158 236 232 248 260 258 263 289 311 318 336 343 352 364
341 328 347 338 316 320 301 279 252 236 236 221 259 245 236 229 219 217 215 211 210 207 214 209 211 218 236 255 252 218 194 226 226 235 259 247 259 243 261 293 303 345 374 397 397

GFSSW_2pvu_pres_048.txt.gz
Presure
368 360 351 329 329 306 293 292 279 253 238 259 275 255 241 246 217 216 221 202 210 214 183 187 171 173 171 161 170 166 176 165 147 169 173 165 173 165 142 166 171 166 152 162 147
346 356 343 329 318 320 310 286 271 266 257 252 266 269 242 249 233 205 220 211 222 190 178 184 179 166 167 140 171 168 172 175 176 180 160 173 171 154 173 160 151 168 137 148 168
330 324 352 338 316 306 320 336 277 267 272 266 263 267 272 252 250 226 211 220 213 221 194 179 169 181 175 171 171 170 170 173 177 179 182 181 152 170 151 150 134 175 173 147 153
304 352 333 314 327 319 309 299 302 280 276 263 257 260 263 257 230 219 227 216 188 212 197 218 184 177 178 183 182 175 175 158 175 175 164 157 153 172 152 139 145 168 165 162 152
304 330 341 323 310 326 303 304 302 329 286 263 253 267 262 256 254 257 248 222 214 205 206 206 186 209 194 178 187 181 194 178 172 167 180 185 184 180 166 170 175 168 97 148 158
312 333 326 327 315 301 321 297 293 295 320 289 274 259 266 261 248 244 228 246 224 208 207 209 202 197 199 196 180 191 189 188 161 139 177 173 185 171 77 178 102 159 159 174 141
345 342 333 324 325 317 292 308 288 290 305 309 278 273 257 266 254 246 237 235 251 225 207 206 203 211 199 204 198 205 195 186 205 203 198 178 169 183 169 176 165 154 166 170 176
332 253 301 301 311 323 315 285 302 292 283 313 286 273 262 235 261 245 246 237 238 247 231 202 203 203 178 192 193 197 198 197 191 197 204 187 181 180 202 196 216 206 189 196 205
331 288 316 292 278 287 305 318 278 285 285 279 315 268 275 261 258 251 249 241 237 238 247 224 202 204 187 200 200 187 196 197 205 199 203 205 194 209 191 198 196 197 170 190 195
343 318 308 454 568 534 292 289 289 291 290 278 281 314 342 269 260 264 248 242 244 247 237 236 223 202 202 204 202 199 203 197 184 202 186 183 198 196 194 188 190 189 196 191 218
323 581 582 543 531 534 595 298 287 274 282 289 269 268 320 273 247 250 262 247 231 245 241 230 239 224 200 203 200 200 197 197 197 198 200 201 189 196 198 197 206 203 195 228 226
548 520 533 543 505 514 542 495 299 272 291 293 268 268 290 319 266 251 263 256 243 237 237 236 229 244 223 206 202 196 196 189 202 206 201 198 200 201 201 202 212 214 226 220 216
501 474 466 456 474 493 525 476 311 281 266 286 267 269 256 309 313 259 266 250 249 245 246 240 239 240 235 222 206 199 198 201 199 200 201 204 205 205 209 207 212 201 208 205 211
476 454 450 439 455 480 501 450 497 290 261 283 270 265 266 306 305 306 259 258 251 238 234 247 244 231 227 235 231 215 205 205 209 211 209 205 200 204 206 201 200 201 200 203 201
429 424 433 448 449 484 458 457 432 293 271 267 268 264 254 291 288 293 301 261 265 259 248 239 242 247 231 233 233 229 228 203 198 202 211 212 221 198 206 202 206 200 190 208 208
437 421 419 420 440 469 439 437 372 290 269 268 250 255 257 291 286 284 290 294 298 306 280 271 290 278 266 249 234 228 234 233 225 224 223 217 222 216 203 197 199 210 210 208 209
426 422 420 434 447 468 434 363 350 286 276 257 249 246 255 272 273 267 268 273 273 275 275 273 276 284 291 288 252 233 238 238 232 227 224 221 220 209 92 125 200 210 211 211 217
434 426 451 448 458 458 382 356 353 278 246 263 247 256 274 270 269 265 261 262 258 256 257 253 262 278 272 274 264 248 238 240 239 238 233 233 231 219 205 208 111 88 222 225 231
433 423 440 459 468 439 367 338 345 299 257 251 255 248 283 270 263 253 247 248 247 246 247 254 256 259 265 263 253 245 242 225 235 236 233 230 229 223 188 112 223 227 116 171 225
416 433 442 499 522 375 352 327 318 293 255 248 243 261 268 259 248 240 241 238 237 238 239 240 242 247 250 252 253 251 242 237 238 237 235 230 221 219 165 228 237 260 135 103 112
419 430 466 497 451 358 336 315 304 256 257 242 242 281 264 252 244 239 240 237 230 231 231 232 229 227 234 234 231 224 223 224 220 217 185 220 243 253 248 245 241 231 196 238 246
431 455 466 434 391 359 324 315 280 251 238 231 242 275 261 256 246 242 236 233 233 232 219 227 230 224 218 216 218 256 260 258 257 250 247 242 225 219 225 152 272 277 280 289 295
441 481 481 358 333 323 319 307 265 246 241 235 237 271 256 248 240 236 233 234 233 227 224 227 266 268 271 260 250 246 246 245 230 221 215 212 260 271 301 307 315 315 317 314 318
479 427 373 346 334 323 306 290 254 246 240 238 236 268 254 246 239 231 229 225 218 269 267 265 266 265 250 237 237 230 217 214 214 234 238 256 254 265 247 251 331 324 335 346 339
505 387 363 335 324 311 298 284 253 248 235 236 240 269 250 233 236 231 224 212 268 275 270 264 265 243 223 219 218 212 209 222 255 246 248 242 167 247 238 273 279 95 219 96 313
447 358 358 336 324 305 296 283 260 195 235 234 247 266 253 227 226 221 214 229 287 280 275 219 209 213 215 216 217 211 258 223 235 237 233 244 265 230 262 242 259 292 390 382 361
341 322 356 329 329 317 296 282 261 238 228 229 260 261 250 231 223 217 218 218 216 212 210 209 214 220 210 217 224 247 247 236 233 224 241 255 261 226 241 243 244 262 272 292 385

GFSSW_2pvu_pres_051.txt.gz
Presure
316 193 309 309 353 362 321 343 373 307 282 262 275 256 264 267 259 219 226 226 210 197 195 189 180 178 170 157 158 156 174 172 172 170 173 169 177 173 133 92 100 160 99 164 163
209 251 312 301 327 331 335 337 327 354 293 279 269 270 258 264 261 251 224 232 204 236 201 194 179 177 181 179 179 167 164 171 172 180 181 185 158 118 90 171 172 167 118 120 133
289 273 306 305 333 345 336 346 329 323 294 309 281 281 262 265 257 253 252 216 170 226 225 211 192 190 175 177 177 173 152 176 171 182 183 178 170 167 162 167 160 107 172 89 161
282 187 318 311 351 338 325 325 335 318 332 292 289 278 268 257 252 279 251 249 214 221 221 225 213 183 180 186 185 185 173 158 152 151 144 161 154 172 176 173 170 176 178 164 99
292 295 218 310 320 350 330 322 313 327 308 329 283 283 267 263 242 242 268 250 244 211 219 202 227 215 215 225 212 195 184 164 167 177 175 170 166 176 171 170 161 185 185 176 175
283 261 329 257 105 335 312 324 320 306 317 301 304 278 280 258 243 238 260 265 246 239 211 219 213 180 214 201 213 196 221 178 184 160 157 164 170 172 165 173 177 181 179 177 169
322 319 347 366 342 332 328 314 319 315 315 299 299 283 283 255 250 241 251 251 261 247 233 204 213 212 166 210 192 200 193 178 197 179 174 175 172 166 170 176 169 177 157 173 156
325 357 371 319 309 282 300 86 310 327 299 311 296 298 287 272 253 255 248 248 266 253 240 223 209 208 213 214 207 217 197 189 174 179 178 177 171 183 178 186 184 170 167 72 185
322 368 320 479 618 567 274 209 293 307 319 292 303 293 308 289 268 267 259 239 250 261 247 251 219 211 197 213 208 206 204 203 197 192 183 178 183 188 189 186 189 200 192 176 174
368 332 456 473 497 540 499 582 327 295 307 301 312 297 287 324 280 266 245 244 243 244 256 247 240 218 210 198 209 206 212 205 197 198 192 205 197 188 188 194 200 200 200 183 187
340 459 523 529 532 528 515 536 570 473 295 293 311 301 275 294 280 276 267 247 245 247 239 250 247 239 222 211 204 208 203 207 208 206 195 195 198 200 203 198 202 198 188 190 205
342 473 492 468 462 490 480 504 489 528 468 283 300 298 273 272 318 277 278 273 257 250 241 236 237 245 237 229 203 201 197 207 208 209 210 207 197 189 200 187 189 191 200 199 191
506 461 446 433 459 457 474 493 530 540 507 275 296 294 270 276 296 280 268 271 257 257 246 240 231 241 237 238 238 215 205 200 205 206 207 198 199 198 194 197 203 192 203 201 198
466 436 438 434 427 446 477 432 519 532 500 273 290 277 283 274 273 291 266 261 269 249 254 247 243 243 244 239 240 245 221 207 204 207 203 207 208 205 199 198 199 201 204 204 201
449 426 424 418 412 418 467 450 494 465 409 274 285 274 277 274 260 263 326 317 261 266 241 245 235 233 231 238 247 246 247 228 213 212 208 207 213 195 193 189 190 197 200 202 205
441 435 415 447 430 413 470 465 453 408 266 272 268 279 272 277 262 263 269 308 274 257 243 259 243 239 242 241 240 240 247 247 243 219 210 207 198 191 195 200 204 206 207 207 210
421 423 445 444 453 452 476 485 432 391 308 225 267 268 271 266 263 263 297 306 297 257 247 241 256 246 239 228 236 240 234 246 244 243 233 215 205 194 196 195 202 204 207 205 207
420 434 425 452 465 471 482 453 375 355 304 266 258 257 265 252 263 258 286 291 294 295 255 255 257 255 255 238 239 254 254 240 237 240 245 249 236 215 95 216 214 216 220 222 223
430 460 456 488 482 390 384 343 348 340 292 261 257 268 248 261 251 291 285 279 281 283 291 288 263 259 255 260 251 244 242 253 261 259 241 238 237 233 229 236 246 246 239 225 230
446 474 508 488 387 358 353 328 324 328 274 258 259 262 251 243 277 278 270 266 269 275 275 282 291 293 290 298 298 294 284 285 288 289 278 249 239 233 234 240 238 244 218 247 246
463 477 530 373 360 355 335 329 322 291 258 249 262 241 247 268 270 270 265 263 264 264 260 260 263 262 265 260 265 268 266 263 259 261 261 256 248 243 232 232 238 240 240 242 246
505 495 375 360 349 341 338 330 318 266 255 259 254 255 265 277 268 267 260 255 250 249 248 247 249 253 248 249 247 248 250 252 253 252 250 252 233 237 233 220 223 229 245 267 270
494 383 364 346 357 342 333 327 305 261 259 244 237 254 273 270 257 246 243 240 236 233 232 233 236 233 231 227 229 233 233 229 219 214 217 218 226 255 248 248 249 243 219 291 301
396 370 348 352 346 340 342 325 268 247 247 239 248 280 267 255 243 239 237 235 232 230 230 228 223 221 223 220 217 219 241 261 256 254 243 239 233 229 227 262 293 285 279 270 391
381 358 350 356 343 343 334 270 258 239 239 240 260 265 254 247 239 235 233 232 234 236 231 223 214 255 261 257 257 256 247 240 231 223 216 228 258 246 269 261 197 260 238 273 155
375 374 365 349 341 333 273 255 255 242 239 230 269 255 241 235 237 237 236 231 226 218 278 274 265 254 248 251 240 227 221 214 209 245 240 236 245 228 250 257 256 251 265 278 287
376 361 367 361 324 313 272 208 242 240 233 231 264 251 244 238 239 235 233 221 246 280 278 258 259 241 229 219 218 207 216 226 242 237 219 244 230 237 253 256 228 223 247 264 258

GFSSW_2pvu_pres_054.txt.gz
Presure
307 165 278 273 183 314 337 312 351 357 370 366 301 285 270 265 243 272 235 224 216 226 227 200 194 182 171 171 160 180 186 172 160 166 172 165 169 171 143 162 169 157 164 137 147
312 307 293 275 331 304 323 325 223 333 344 376 339 302 278 278 267 269 230 233 234 195 224 210 214 202 182 180 174 159 182 170 170 171 171 179 187 157 145 148 130 87 84 155 122
144 304 281 322 317 323 93 330 118 335 334 331 364 309 284 271 276 240 273 221 229 215 232 187 225 194 189 185 179 175 159 144 147 180 184 177 177 177 172 147 129 165 90 90 142
315 290 269 302 322 326 277 336 332 337 328 331 331 330 311 272 250 271 273 266 255 227 221 196 222 220 190 174 178 172 176 156 164 162 162 161 158 154 171 82 173 174 148 71 165
314 269 306 328 317 350 349 346 333 322 338 331 334 342 302 275 262 265 247 259 271 252 223 206 222 220 216 203 188 179 176 172 165 163 159 155 159 152 162 168 173 182 180 176 150
303 330 332 317 368 340 103 323 344 348 323 335 315 319 325 283 269 256 265 261 256 268 249 212 213 223 218 209 214 196 179 175 175 176 152 156 162 162 156 162 176 167 171 176 173
314 329 327 370 330 319 322 308 164 310 344 332 318 317 316 305 275 263 248 256 256 261 258 245 206 218 221 220 202 200 199 188 181 175 180 185 177 79 163 168 169 176 148 155 155
358 337 364 335 447 470 461 455 371 302 138 330 207 312 302 320 291 274 252 259 245 247 262 257 249 216 213 224 173 218 213 199 195 190 180 177 170 163 102 87 152 144 147 151 162
331 340 344 517 525 513 516 465 449 400 311 313 326 323 314 304 278 275 291 263 252 245 245 262 247 236 202 216 217 212 215 213 213 200 186 184 175 179 203 190 153 154 165 169 175
341 360 455 570 542 510 505 519 489 455 339 301 304 327 304 286 310 273 265 269 255 250 251 243 268 229 234 207 212 212 213 209 215 214 211 215 209 203 198 188 189 187 174 164 163
341 349 493 467 467 477 479 501 506 534 389 312 301 315 301 302 296 279 272 258 256 258 239 239 252 263 237 215 213 214 211 207 209 208 204 206 195 189 193 198 185 180 186 185 181
367 495 468 453 439 448 462 491 494 513 449 338 299 292 295 294 287 314 271 264 273 249 245 237 238 251 256 237 227 207 204 211 206 208 208 205 197 195 203 197 185 182 184 185 182
349 440 455 435 427 425 451 438 445 525 549 344 298 278 298 294 288 275 293 261 258 251 245 236 235 246 260 257 239 228 206 209 206 212 196 212 206 196 205 205 202 200 202 205 192
354 434 427 442 427 430 407 431 446 508 545 342 306 279 276 295 287 298 308 283 269 252 248 244 243 249 256 260 247 219 222 206 207 212 197 204 209 204 190 203 203 198 191 192 196
431 433 421 437 444 448 426 424 462 518 526 327 316 281 264 295 291 285 268 293 279 268 264 253 248 236 240 252 262 241 248 225 198 203 208 208 199 197 201 202 200 206 205 204 207
435 434 431 442 442 453 435 479 491 515 408 374 319 287 260 283 285 278 264 314 273 274 282 250 258 247 241 240 243 246 246 253 246 218 206 200 204 202 200 200 207 205 204 206 206
440 448 461 458 464 461 482 473 504 409 372 357 342 268 276 279 283 270 252 284 287 258 265 277 252 238 249 250 237 236 238 247 248 243 240 216 209 200 198 201 206 205 207 207 209
461 467 500 486 485 481 495 412 362 348 198 359 278 276 270 278 271 257 258 259 321 261 264 265 270 260 256 243 247 243 238 233 243 249 233 237 235 210 204 205 208 209 207 205 208
481 511 498 423 464 449 349 334 340 330 341 274 271 275 264 267 268 261 251 258 250 309 266 259 262 266 242 256 242 245 248 239 240 240 245 241 243 247 100 118 218 216 216 215 213
522 415 464 426 396 350 330 353 360 340 285 275 277 283 263 264 267 259 258 251 250 302 294 285 257 255 263 246 245 247 238 237 239 244 242 242 237 239 242 251 255 244 243 238 234
436 391 375 373 353 334 355 349 358 284 271 264 255 266 265 257 256 255 250 285 288 287 289 289 273 268 253 249 237 246 256 253 243 239 236 242 246 248 256 206 264 257 250 242 240
389 388 373 352 348 358 343 385 287 269 266 259 263 272 253 254 253 281 282 274 275 274 279 284 287 290 254 249 251 252 262 255 253 253 260 259 255 281 285 277 270 265 261 263 265
389 390 364 341 328 342 373 299 270 263 259 268 260 249 250 251 284 280 269 265 264 267 268 266 267 271 276 281 286 287 289 283 281 274 274 264 260 258 255 254 253 252 253 252 242
405 369 363 368 331 356 304 273 262 259 252 245 241 243 264 276 270 267 256 253 255 255 254 253 250 250 251 252 255 254 252 248 248 252 247 246 241 239 233 227 229 247 255 241 278
390 394 364 357 346 306 285 274 265 262 251 248 257 272 270 258 251 244 243 241 241 241 240 240 236 238 238 237 235 230 230 233 232 223 224 235 242 249 250 206 228 264 264 260 270
383 373 363 369 353 255 279 258 244 252 252 253 274 264 257 244 236 237 236 236 237 232 229 227 227 226 225 227 217 216 218 263 255 247 246 241 234 225 182 239 262 263 252 237 252
383 381 309 356 372 278 259 246 241 249 254 266 258 256 248 236 235 236 238 233 231 232 230 219 218 232 236 262 261 250 246 239 232 225 217 221 250 240 250 257 245 250 243 231 219

GFSSW_2pvu_pres_057.txt.gz
Presure
237 265 287 319 284 301 321 324 317 330 330 317 348 346 332 338 309 308 273 240 230 238 238 184 197 207 190 195 170 177 161 162 164 169 163 174 165 160 143 148 97 112 135 132 131
240 266 231 307 319 341 329 326 278 337 321 320 259 356 346 344 313 296 277 269 241 233 201 215 196 200 202 190 199 187 169 163 154 164 183 181 165 173 134 152 153 123 72 130 130
231 313 308 288 307 208 320 322 311 316 156 107 316 298 356 335 310 291 301 266 248 252 226 229 220 224 205 193 190 189 166 166 152 169 175 187 95 165 163 169 167 161 167 81 93
252 289 318 297 307 322 346 356 362 358 353 330 328 327 338 310 307 299 286 270 262 254 246 232 232 226 227 198 188 194 189 158 174 161 169 181 183 179 168 149 148 142 149 163 168
307 309 309 296 326 364 343 323 316 338 352 342 330 332 347 341 289 291 289 278 270 244 254 239 222 222 193 230 207 194 192 175 175 168 169 168 176 183 184 174 167 136 172 155 162
276 316 311 319 353 340 365 385 284 299 304 347 336 322 335 335 330 293 277 284 283 260 248 241 237 229 219 224 229 222 199 189 196 178 172 165 167 172 178 104 174 171 165 165 167
320 319 310 315 340 465 557 527 508 459 337 303 300 337 330 121 314 335 275 275 269 278 253 248 234 231 225 224 186 222 217 198 190 186 177 169 164 159 155 169 185 176 179 176 168
324 310 319 342 439 571 556 548 553 507 472 158 313 343 339 329 309 335 304 277 267 269 254 247 251 222 224 208 225 188 222 219 205 193 176 183 177 168 65 158 181 184 167 154 154
331 310 327 348 473 489 481 481 498 544 488 437 369 311 252 314 318 322 302 295 266 259 264 271 257 256 218 220 225 221 215 191 194 222 207 191 178 170 175 172 164 155 155 152 154
324 311 352 470 484 461 451 468 474 511 515 430 416 327 332 316 313 295 301 280 275 256 256 253 250 259 255 225 217 219 219 209 186 219 131 179 178 179 179 177 171 70 157 161 161
329 340 364 451 438 446 435 445 471 491 503 430 520 331 296 305 305 302 306 267 285 261 249 266 261 260 258 255 226 225 214 209 191 218 216 216 213 172 181 179 179 180 183 185 184
325 351 440 432 421 424 434 442 460 467 496 449 434 329 288 312 303 317 306 280 276 259 251 244 249 258 244 258 263 211 220 211 195 220 179 206 210 198 199 199 194 188 189 176 177
345 369 438 423 423 419 439 425 423 461 509 453 526 314 286 311 301 302 280 286 273 273 257 258 244 244 260 250 261 259 237 221 210 213 218 215 220 213 208 208 212 209 205 198 190
346 459 442 433 436 431 440 419 435 438 477 428 419 301 282 301 300 295 284 297 273 280 270 254 240 241 248 243 247 257 253 240 218 213 193 215 211 204 209 214 214 213 209 209 211
344 477 455 444 453 431 445 432 447 507 479 447 372 297 281 297 298 288 292 296 266 268 277 272 245 241 252 240 242 257 266 241 242 218 218 201 205 198 209 210 196 214 208 200 202
506 474 473 472 462 458 457 474 495 473 468 401 320 268 282 290 292 292 301 274 273 270 265 266 274 243 254 244 246 239 244 255 254 244 224 209 209 206 198 206 209 204 199 198 208
510 513 510 497 483 479 488 518 465 449 426 360 301 200 278 276 294 294 282 269 287 274 261 259 253 251 251 253 238 231 232 249 257 258 241 219 210 207 204 204 205 205 212 192 197
551 463 517 515 434 459 425 399 361 366 348 319 300 284 273 266 288 282 273 273 271 291 270 253 255 247 259 245 240 238 229 229 261 249 251 236 229 213 210 200 209 204 210 211 211
494 539 405 369 385 376 353 333 342 346 341 317 294 285 264 263 274 284 279 282 259 288 290 284 255 250 248 239 239 237 245 244 245 252 257 241 240 241 222 213 210 206 205 202 203
402 383 373 367 363 347 350 329 333 336 334 324 303 266 249 270 285 278 275 268 263 263 303 288 285 264 245 244 246 247 244 240 233 236 244 242 245 247 240 246 227 217 216 216 217
397 377 356 359 347 338 334 339 351 338 340 385 263 260 265 273 272 269 269 261 263 263 295 283 269 272 272 271 250 244 250 237 246 242 238 232 238 241 241 249 254 253 242 241 246
399 381 368 357 390 350 320 298 278 277 277 280 268 267 272 269 272 267 261 254 260 253 251 278 267 266 259 257 262 264 250 235 237 239 241 239 244 250 251 246 249 249 261 257 254
384 357 356 373 385 289 288 271 282 278 264 283 271 269 209 273 263 258 254 252 293 292 291 291 289 264 250 247 255 257 261 247 238 244 237 237 243 249 251 248 251 255 264 268 269
379 372 345 366 303 288 259 279 254 264 273 276 265 254 254 251 248 250 280 275 275 275 278 282 284 278 275 273 260 252 251 259 255 243 249 246 257 267 258 266 285 278 267 262 255
400 373 355 310 290 259 280 265 269 273 258 251 248 246 248 267 274 271 264 264 265 264 263 265 267 276 280 278 270 263 257 250 251 248 253 263 282 279 264 254 251 129 240 254 250
419 381 362 305 285 258 264 273 264 252 249 247 251 263 272 269 264 260 260 261 260 257 251 250 251 255 259 264 266 268 264 270 272 263 256 244 238 238 231 253 248 243 249 258 263
396 400 369 292 287 269 262 253 250 254 257 259 267 270 260 251 251 250 251 246 244 242 242 242 244 244 246 245 241 239 240 237 230 228 226 224 241 245 247 241 232 255 261 256 249

GFSSW_2pvu_pres_060.txt.gz
Presure
182 223 261 290 284 309 315 147 307 321 336 178 329 301 326 106 385 349 329 304 290 225 244 245 195 202 181 184 177 180 173 174 150 150 139 166 152 146 141 151 138 135 121 110 96
206 223 279 285 321 309 318 291 306 313 325 381 336 326 315 247 371 354 318 313 294 274 249 238 230 194 191 190 181 169 168 162 162 157 77 108 139 159 149 143 144 139 115 118 112
189 229 279 310 308 327 311 295 281 315 317 325 372 335 295 311 350 351 326 317 311 289 270 245 235 215 197 194 180 173 162 160 158 165 154 159 173 169 166 164 145 148 145 142 127
124 237 221 286 317 311 323 303 307 322 321 326 326 222 327 340 358 335 328 319 309 300 273 252 225 239 201 206 190 181 174 171 159 160 159 174 171 168 165 164 159 149 140 141 145
228 265 295 305 334 316 311 322 328 330 317 352 357 323 350 328 303 346 347 319 299 308 293 264 244 236 202 240 222 198 169 174 180 172 163 169 174 162 158 146 119 168 155 154 153
236 335 301 333 330 322 335 336 398 490 265 427 374 342 338 356 312 305 314 331 308 291 293 285 239 238 236 213 226 218 188 189 174 178 188 167 169 169 117 161 165 172 178 175 169
251 300 316 309 346 353 339 508 502 541 538 484 210 367 332 345 309 332 284 326 312 304 292 280 266 235 228 247 235 219 203 185 186 185 188 192 163 167 162 114 158 163 167 176 177
329 334 317 321 360 347 473 477 474 496 503 534 547 390 349 330 323 299 301 330 310 294 304 283 274 250 232 224 217 229 216 201 183 187 187 199 184 180 176 170 169 161 151 150 174
215 321 320 358 347 454 445 450 460 452 480 483 507 447 382 307 323 313 309 325 298 298 285 281 273 263 244 228 224 229 214 222 205 187 193 198 198 188 189 179 170 168 156 133 169
343 332 352 359 462 440 425 436 438 449 483 487 478 474 413 306 316 312 307 305 295 293 272 276 267 269 256 256 228 220 218 191 216 171 211 206 194 186 188 191 175 184 166 159 164
333 340 342 461 457 434 422 425 426 437 452 480 489 470 451 303 292 310 310 316 321 281 271 267 265 266 242 251 233 234 226 215 216 227 216 125 207 190 194 188 193 197 170 167 161
336 366 379 475 440 428 430 430 433 428 435 471 523 445 444 307 291 311 311 312 279 273 275 265 265 260 262 250 245 245 228 221 220 219 221 217 223 221 215 203 199 193 190 179 167
358 358 502 466 445 433 443 415 449 421 440 491 438 469 424 303 288 313 310 322 304 294 274 266 251 256 261 260 246 236 240 228 222 220 207 213 219 198 217 223 212 205 201 193 180
375 503 496 477 423 425 403 403 433 442 456 480 411 423 392 300 284 318 304 314 312 283 284 261 251 253 262 259 250 239 242 237 225 228 216 211 205 211 215 215 187 219 225 228 215
372 528 504 493 488 440 424 458 456 473 451 413 467 395 359 295 289 311 299 310 303 270 280 278 252 249 256 267 269 272 243 248 235 226 219 211 201 201 212 221 222 187 215 218 215
363 479 496 501 493 484 487 501 414 420 417 394 374 360 318 247 282 307 300 306 299 271 284 274 279 259 246 252 252 258 261 259 255 263 226 218 210 211 210 211 209 208 215 180 216
355 428 464 456 455 446 413 429 427 457 394 341 341 323 302 235 295 305 294 296 287 271 281 260 275 265 249 246 252 251 273 258 259 253 259 249 218 212 214 210 208 204 213 215 218
387 430 398 382 373 384 392 408 454 410 356 357 328 306 289 280 299 297 286 293 283 273 267 276 257 269 251 245 249 241 253 251 248 240 251 258 264 225 213 217 217 208 206 208 197
336 381 359 363 357 358 387 410 389 366 342 333 306 288 276 301 288 292 280 287 269 283 283 275 275 268 262 247 244 255 242 240 249 243 233 243 255 259 256 239 223 221 217 215 214
327 383 345 361 340 340 391 368 345 342 318 297 285 276 276 288 281 292 270 288 273 278 299 278 266 262 267 273 251 249 239 230 249 233 229 236 240 249 258 263 253 229 221 218 221
379 381 372 348 360 340 369 342 335 313 288 275 264 238 282 280 277 275 269 288 269 262 283 295 271 257 254 253 256 254 260 237 245 236 233 235 236 237 249 263 255 259 249 238 228
383 378 350 326 362 337 339 370 322 303 285 268 268 261 276 274 279 276 272 254 281 262 257 274 293 272 253 249 251 257 261 254 241 237 242 233 244 230 252 252 252 254 250 102 249
389 386 328 305 295 293 361 317 317 291 278 265 264 274 276 286 280 263 271 263 262 261 267 298 295 286 274 251 248 240 244 248 245 244 246 236 246 249 239 236 243 247 250 251 248
392 359 320 293 305 293 289 275 287 275 281 277 249 274 274 270 266 262 263 259 261 263 256 264 284 280 274 275 263 246 245 240 241 242 240 258 251 247 242 251 258 253 246 246 253
332 363 313 298 288 289 265 273 287 280 269 269 271 272 268 267 262 259 256 256 270 284 252 273 287 278 275 270 263 263 263 260 262 263 264 252 249 244 245 256 251 249 256 259 288
319 388 320 308 291 276 270 276 279 271 265 257 258 251 253 251 252 264 283 282 278 279 278 278 279 281 283 278 256 250 251 257 255 249 257 257 264 258 252 244 252 270 269 251 244
315 397 328 285 276 274 275 269 261 255 259 252 253 258 272 278 274 268 266 264 265 264 264 269 272 272 272 268 268 270 269 268 262 263 269 263 262 262 273 261 241 237 239 247 245

GFSSW_2pvu_pres_063.txt.gz
Presure
211 147 190 238 296 308 314 310 309 312 321 335 332 218 301 330 309 323 377 228 352 339 298 217 232 205 189 186 180 173 180 150 145 151 168 158 141 92 140 149 140 137 89 125 75
176 188 195 245 311 309 319 297 310 300 177 331 323 318 291 335 335 320 216 381 379 340 332 235 239 223 207 199 171 182 183 163 164 158 155 164 169 150 142 140 100 147 142 127 120
137 95 249 323 317 320 313 311 307 303 273 322 326 325 323 328 328 321 314 327 373 351 331 319 271 238 219 214 195 162 173 171 154 97 162 172 167 166 155 139 141 142 136 142 148
116 174 288 284 298 310 321 316 310 325 327 329 331 330 331 328 281 330 318 323 372 373 333 276 295 263 218 214 197 198 176 177 170 167 157 179 176 178 161 146 154 158 146 144 139
209 217 235 296 315 321 317 321 336 345 337 175 333 317 331 329 319 317 335 311 334 367 334 324 297 277 204 235 196 192 197 157 178 169 164 170 180 181 173 177 166 153 145 147 152
231 317 293 295 334 330 342 352 344 382 459 502 493 458 405 364 340 312 341 319 319 363 330 323 317 304 270 232 239 192 207 189 168 174 170 166 167 135 171 166 164 171 164 158 153
297 299 297 349 327 347 351 414 472 459 463 487 488 103 481 408 361 325 326 309 301 343 326 315 309 313 293 253 238 201 241 216 183 175 168 178 161 168 174 178 160 169 169 165 168
309 157 338 330 360 352 459 464 442 434 441 464 457 473 514 417 361 334 318 313 303 328 333 305 309 302 298 270 229 217 200 231 199 191 177 178 174 159 84 63 154 162 161 155 160
311 301 347 374 380 482 465 437 426 416 427 445 434 450 503 555 372 329 206 314 310 327 333 302 299 298 288 296 250 231 214 234 215 197 190 175 179 176 165 165 167 159 171 166 169
268 347 373 466 493 477 441 436 424 428 415 438 461 457 476 582 359 148 300 187 306 324 329 187 307 288 298 306 265 240 229 217 226 229 185 195 172 179 177 174 176 172 167 162 167
308 376 371 515 472 455 418 435 434 429 436 424 449 460 468 553 353 320 299 310 294 284 300 305 292 294 302 296 298 250 231 227 240 222 212 189 192 188 183 173 165 178 177 181 170
309 382 527 498 470 416 411 397 414 408 412 432 459 498 481 473 340 309 300 310 300 282 279 295 297 290 277 284 296 247 232 223 225 234 221 210 209 202 197 196 188 192 178 177 182
381 390 502 512 488 436 409 413 414 428 427 441 478 498 540 423 330 303 295 309 297 305 314 290 292 290 290 282 282 281 264 231 225 225 228 188 213 214 218 202 198 174 185 187 185
367 374 400 431 487 504 436 430 431 462 451 473 500 524 454 384 316 299 291 305 293 293 309 281 273 294 280 290 285 269 235 235 220 225 238 230 198 195 225 206 188 195 191 189 182
356 396 407 394 398 428 431 424 430 433 441 446 524 459 419 359 247 297 282 304 287 284 300 278 271 274 272 269 278 258 271 264 229 217 217 214 215 218 225 190 225 204 199 199 186
353 394 388 379 392 409 425 448 458 483 513 462 419 397 374 325 203 293 301 300 293 287 293 272 270 274 257 266 268 268 260 269 256 230 215 211 211 216 217 221 206 222 220 230 231
351 388 375 324 407 418 461 443 416 413 432 392 386 349 318 304 294 289 264 303 287 292 291 279 272 270 262 255 269 267 269 269 263 251 240 219 211 219 212 217 216 221 228 227 221
343 404 370 405 446 437 398 380 379 375 371 358 357 341 316 308 290 281 306 292 292 285 290 285 270 263 264 256 259 259 270 257 260 257 228 247 242 206 215 224 212 213 216 220 220
341 404 372 385 356 367 357 357 364 356 344 349 339 327 304 285 268 294 297 298 279 280 302 282 285 282 271 260 264 276 282 273 258 255 254 250 246 247 247 233 229 223 216 219 221
335 405 335 386 346 300 355 369 327 318 319 312 307 280 267 279 308 302 292 288 271 288 279 281 278 271 266 267 258 275 268 267 264 260 258 260 258 248 236 247 256 232 228 223 216
334 408 317 322 366 370 327 310 298 288 288 275 269 266 277 293 293 286 280 283 273 275 293 274 278 277 278 276 275 266 279 250 250 244 244 254 258 256 252 251 251 259 274 259 228
330 388 321 299 378 353 321 305 289 293 284 286 293 291 285 285 285 281 295 281 272 264 290 294 271 259 267 249 262 257 265 257 244 239 233 238 249 244 242 244 241 238 249 257 262
327 357 326 307 304 328 319 298 289 281 272 266 293 289 285 287 289 275 289 289 277 272 267 289 292 290 273 264 260 255 259 257 255 249 246 245 242 240 237 239 238 243 247 247 245
331 375 329 304 294 279 318 295 274 273 273 281 278 283 284 282 288 270 269 286 289 269 262 262 290 285 275 265 258 257 262 266 267 262 250 249 242 230 248 245 242 238 237 238 242
322 314 332 310 307 282 300 290 278 277 280 281 279 281 277 275 273 278 265 263 268 270 265 262 295 283 278 267 253 246 244 242 248 251 258 258 252 236 235 240 243 255 243 253 252
333 319 350 294 306 294 265 284 277 276 280 279 281 277 274 268 263 264 257 254 255 258 261 258 287 291 280 272 262 248 246 244 245 246 249 257 259 254 254 248 242 246 263 252 240
330 310 340 311 306 290 291 283 280 257 247 267 254 264 263 258 260 259 248 264 277 282 281 259 287 282 281 277 271 271 262 251 248 250 248 248 245 239 248 262 259 263 265 263 246

GFSSW_2pvu_pres_066.txt.gz
Presure
130 167 176 237 292 286 289 317 305 320 316 318 323 318 318 233 339 224 307 273 258 385 309 348 221 216 218 198 182 182 144 171 158 154 157 150 156 140 141 162 133 144 139 125 107
233 149 153 294 301 294 294 313 325 330 319 315 308 77 316 323 338 305 224 316 280 328 225 357 341 233 227 203 199 188 190 142 168 158 163 161 161 156 140 145 155 137 136 144 113
198 198 204 306 300 295 305 322 327 324 306 308 321 320 319 325 207 328 315 322 295 304 303 279 301 325 230 217 211 183 171 160 139 166 175 167 163 166 156 143 153 143 137 150 148
190 206 312 301 304 297 325 333 330 327 324 322 322 324 301 332 320 327 318 320 333 274 309 401 344 319 243 228 224 194 178 164 163 144 178 180 172 161 166 152 145 147 136 138 146
209 319 304 308 297 339 343 343 337 334 337 338 332 324 330 326 330 319 318 311 323 325 299 292 379 303 323 247 218 212 182 177 162 161 148 164 179 174 165 159 157 146 141 141 135
202 312 314 307 354 363 357 363 367 368 392 437 437 412 375 354 126 133 314 316 321 316 316 295 384 322 327 312 218 214 210 170 182 167 160 103 174 186 170 173 162 160 149 153 143
317 310 311 361 368 421 534 510 478 460 446 452 451 456 471 540 431 370 317 313 318 313 323 303 354 362 328 243 244 236 218 211 175 177 167 167 177 173 177 178 175 160 164 159 146
311 117 361 369 478 543 512 485 465 448 436 431 427 429 464 473 512 412 377 319 308 307 315 310 335 350 332 320 268 255 232 212 214 175 174 175 173 175 177 129 158 161 160 159 157
122 324 373 431 422 496 503 469 445 433 423 416 413 419 444 457 491 448 377 339 304 307 309 304 289 323 357 314 313 271 246 207 226 201 177 184 175 172 161 154 170 177 170 162 167
319 344 368 418 411 422 450 429 421 442 424 436 423 433 452 446 478 486 372 335 299 299 307 297 315 308 230 319 314 311 244 208 220 216 191 186 149 177 167 172 180 174 179 177 173
291 378 403 408 412 419 457 432 408 407 415 409 423 431 462 447 494 449 353 325 307 300 298 301 284 301 317 334 313 304 307 237 211 227 215 202 191 184 182 170 168 178 175 166 165
321 221 421 404 414 424 428 450 412 411 413 423 427 440 479 460 558 414 343 317 305 292 309 309 298 310 306 307 328 306 299 275 229 221 199 213 196 186 186 189 175 166 171 173 174
322 375 404 358 426 426 427 435 450 436 427 448 446 476 452 515 407 360 325 305 298 287 300 286 295 295 293 316 314 306 294 296 233 230 226 193 208 198 187 189 197 184 166 170 169
331 379 399 449 435 437 447 438 431 434 450 472 484 471 527 383 361 328 302 296 296 298 294 274 307 292 304 297 311 297 300 268 275 240 230 231 202 212 226 186 200 208 187 180 166
365 403 414 512 483 443 479 488 481 449 468 471 483 528 404 366 341 308 298 295 272 268 319 303 280 294 297 308 294 302 296 293 281 265 243 230 231 235 208 185 229 219 208 198 193
128 397 355 343 410 478 423 505 505 502 465 478 432 390 369 338 312 298 195 291 276 280 297 259 285 265 296 293 275 301 288 294 275 274 251 238 229 230 224 205 190 228 213 204 181
146 397 340 362 378 415 471 447 381 383 389 384 373 351 331 315 303 296 292 287 284 282 287 279 271 273 271 275 298 297 293 285 288 285 259 239 233 226 227 229 224 233 227 216 227
354 387 331 324 360 371 389 354 361 351 333 335 339 327 316 309 302 293 283 298 284 281 289 271 275 266 275 284 286 299 289 276 287 289 281 254 236 215 219 218 226 229 230 232 220
356 374 329 367 337 340 346 373 365 342 341 317 320 316 304 302 302 286 274 299 274 276 271 283 282 275 273 275 282 285 300 292 315 281 239 267 259 229 221 218 240 221 227 243 233
349 371 336 325 295 316 313 323 356 351 330 334 351 315 303 293 284 300 299 291 277 274 284 275 286 272 269 276 278 277 284 288 278 274 271 265 233 250 226 221 218 216 211 215 219
324 379 338 308 304 317 308 297 298 294 288 285 275 278 280 270 275 259 293 286 283 280 283 281 292 280 268 260 262 281 285 268 273 266 268 260 268 249 248 229 219 215 216 217 82
300 362 340 310 311 295 299 297 295 293 288 278 282 285 283 272 300 296 285 284 280 281 288 269 274 288 288 286 282 262 268 273 263 253 256 261 260 265 261 249 244 237 227 223 226
292 339 346 319 293 311 292 286 284 292 296 295 290 301 304 303 296 290 286 285 278 274 272 282 279 271 269 271 269 274 272 270 260 261 253 263 247 245 243 259 257 253 194 255 255
360 343 366 323 302 293 281 294 287 283 295 295 289 295 291 286 282 292 287 280 273 266 276 293 290 278 290 272 260 263 263 264 268 272 241 254 255 252 250 250 245 245 246 250 254
319 307 323 339 312 296 282 300 275 273 290 294 285 287 290 281 274 280 276 283 282 269 265 273 284 286 287 267 257 272 254 262 263 257 256 263 242 241 236 238 241 241 244 242 242
327 316 339 316 325 300 281 286 262 275 280 291 293 290 288 290 274 268 264 276 281 284 261 258 257 264 283 281 273 264 259 253 251 252 259 263 264 234 236 240 232 231 243 236 235
314 348 338 326 320 319 293 271 288 283 262 244 275 283 278 271 279 270 265 264 263 263 266 261 259 303 260 279 270 265 266 260 258 254 249 251 254 258 263 241 242 239 250 248 239

GFSSW_2pvu_pres_069.txt.gz
Presure
128 216 134 127 313 193 304 301 294 283 284 297 321 316 326 319 310 291 298 318 291 129 310 209 209 205 241 234 200 195 177 182 175 158 163 151 83 62 148 151 149 150 112 97 83
134 171 181 205 243 201 301 309 346 346 338 343 305 309 321 329 320 246 310 278 318 295 179 259 319 265 256 246 200 197 191 169 168 173 166 162 160 144 154 148 97 137 138 138 136
165 107 144 310 307 314 344 357 339 332 343 326 330 335 332 322 237 301 304 260 306 326 286 294 226 228 192 253 238 193 154 168 176 178 179 159 158 164 149 136 144 149 158 149 138
118 118 318 321 312 352 355 353 351 350 347 339 345 330 335 320 308 299 293 307 308 311 317 276 339 222 337 257 247 217 175 184 172 151 178 162 74 173 154 150 153 148 144 144 149
182 188 331 124 373 365 377 462 463 448 381 353 339 332 330 234 266 316 305 161 312 323 318 286 299 311 326 212 251 250 194 171 176 179 157 183 179 136 161 152 158 151 149 150 143
182 256 176 96 362 430 422 429 507 529 520 495 442 353 333 325 178 108 224 306 308 317 316 320 270 324 343 355 255 235 228 191 175 170 120 173 183 182 173 142 161 157 149 149 148
192 340 322 131 440 410 425 447 510 483 481 467 453 448 440 341 104 330 320 294 210 318 298 313 284 286 330 398 181 256 240 214 192 187 172 181 171 180 185 169 149 160 155 155 150
202 338 384 424 426 429 437 432 508 461 459 453 446 442 456 451 458 136 103 140 297 307 313 310 313 275 302 347 368 313 253 240 215 195 185 175 182 167 179 175 167 160 157 153 154
203 176 266 428 434 442 421 419 454 437 432 432 420 419 420 430 446 477 401 151 299 309 313 313 303 295 301 311 350 342 325 244 217 200 194 187 181 183 172 180 143 172 159 159 160
212 109 418 431 473 436 421 420 438 426 410 425 420 416 415 407 428 459 487 394 331 296 306 301 305 304 291 344 360 370 334 129 227 213 201 192 185 179 184 172 175 126 156 90 164
218 242 398 370 433 440 429 437 449 412 412 414 416 412 422 418 433 459 490 389 316 350 294 298 292 298 318 279 353 345 334 325 235 216 214 196 193 186 176 183 164 155 179 179 163
242 375 384 429 374 457 451 466 435 433 424 417 417 417 422 432 474 464 474 365 318 355 297 288 306 294 312 280 304 362 345 325 323 232 216 206 203 193 180 183 181 181 108 166 176
311 344 358 434 368 449 461 481 439 423 446 424 430 441 448 472 466 450 364 369 332 318 322 287 288 289 331 307 301 294 372 330 310 277 218 212 209 206 193 180 171 179 187 157 159
337 342 352 369 451 516 512 495 463 449 452 462 472 473 455 471 492 439 354 320 326 281 340 280 288 289 308 283 295 325 357 335 277 312 256 220 204 207 206 198 168 185 175 170 170
335 197 356 381 330 416 516 504 494 455 440 456 453 480 516 414 378 347 325 326 325 287 319 278 289 293 296 283 280 333 323 349 319 301 309 243 236 215 210 196 196 197 188 180 163
335 123 351 338 331 352 379 450 504 506 461 383 367 363 382 385 364 344 318 307 299 288 279 276 284 280 280 299 285 294 311 332 325 307 303 284 225 239 231 220 191 203 208 198 190
364 271 361 332 307 363 363 344 401 389 358 369 341 313 308 314 306 299 296 292 283 273 285 280 278 275 276 281 291 292 314 331 331 308 299 291 261 221 236 231 217 196 199 208 201
360 371 342 323 309 327 316 342 342 367 361 370 324 311 291 287 297 287 282 278 271 285 263 281 271 284 278 299 305 309 295 304 316 324 293 293 282 242 226 228 232 220 218 214 211
348 362 348 297 311 313 306 302 350 358 355 343 320 311 304 300 321 298 287 276 267 269 272 271 270 282 276 294 278 287 302 306 313 318 302 288 292 271 242 230 224 226 226 226 225
350 368 332 310 310 303 300 308 298 365 340 324 319 318 302 328 305 286 280 275 262 283 219 267 270 270 276 288 301 297 305 298 300 305 307 301 298 278 259 248 238 230 225 223 226
346 294 362 335 325 295 291 291 313 297 301 321 316 301 310 300 297 293 277 271 272 263 276 278 275 277 280 278 282 279 280 307 314 306 305 303 287 286 268 256 249 240 231 224 225
347 252 344 134 314 302 293 278 295 303 295 277 283 281 287 282 281 262 292 282 281 274 270 275 284 279 281 275 274 289 286 283 294 312 283 299 299 288 281 258 253 240 239 232 228
159 344 352 343 324 303 294 277 269 305 299 313 299 286 281 280 291 302 295 281 276 278 277 273 286 283 279 280 274 272 272 271 265 275 284 290 292 274 275 274 262 246 237 227 224
137 344 305 358 335 314 295 296 283 264 292 300 303 304 302 302 299 295 289 283 277 282 283 284 287 281 279 268 266 268 265 267 271 273 266 266 263 263 266 254 251 262 254 241 224
292 330 336 338 336 322 304 294 290 268 293 298 298 300 293 292 292 288 284 281 272 276 279 275 273 275 273 282 277 277 276 273 267 266 256 256 257 259 253 246 244 251 260 256 240
349 336 336 344 335 319 315 297 278 273 258 261 300 296 292 287 285 284 278 279 271 263 263 267 274 283 281 274 268 263 268 266 261 265 262 265 279 269 242 246 246 248 249 252 252
264 327 331 328 320 336 320 307 285 285 267 256 256 285 291 282 281 277 279 282 279 272 263 263 265 264 271 277 279 275 257 261 258 264 266 265 262 265 248 259 255 240 238 240 245

GFSSW_2pvu_pres_072.txt.gz
Presure
176 233 116 134 146 326 323 335 365 362 334 323 347 312 295 298 293 278 321 294 318 253 162 298 358 253 195 183 202 154 185 168 168 193 167 156 164 147 90 149 159 138 144 129 90
132 188 225 149 193 303 370 371 368 376 354 369 330 329 345 332 295 295 309 297 312 321 304 290 302 414 132 163 123 191 193 197 170 184 174 166 161 158 117 125 156 149 135 147 87
128 289 205 331 167 355 124 358 355 354 350 346 355 349 321 315 322 284 307 305 303 317 280 291 294 285 370 223 132 146 242 174 180 169 197 168 157 142 155 149 157 150 145 151 99
242 115 311 209 100 410 449 143 453 451 394 365 353 347 344 343 311 305 289 301 306 320 308 230 300 295 100 247 210 183 140 204 188 145 193 191 164 155 171 157 156 157 144 137 147
194 265 282 359 330 398 431 429 423 445 451 460 451 374 352 363 320 317 297 288 300 309 299 309 278 293 283 378 245 195 171 235 188 196 188 190 186 125 167 161 148 155 148 140 142
148 349 376 264 418 422 437 435 454 427 437 476 513 513 468 356 345 329 320 189 298 303 309 297 298 297 291 304 367 213 225 210 207 185 193 192 167 193 118 163 162 155 152 151 143
347 260 256 397 393 396 340 473 440 425 454 464 463 473 478 456 349 353 319 137 283 292 300 300 301 280 292 277 292 399 282 212 202 200 197 196 187 163 195 159 86 160 156 156 155
286 330 243 401 411 467 476 451 427 425 456 447 439 436 446 442 421 225 122 93 207 286 295 302 289 315 308 280 301 279 243 227 195 203 192 198 85 184 165 200 160 168 144 153 158
261 89 387 386 368 504 472 438 432 440 435 424 426 423 418 428 439 370 338 305 146 287 284 296 291 290 307 296 284 356 392 298 225 247 207 199 196 198 186 183 195 165 172 151 150
261 150 373 381 362 531 496 465 476 461 419 417 408 428 420 416 428 441 356 333 321 298 288 293 296 282 300 310 282 284 279 256 341 163 219 203 201 198 195 125 129 194 168 161 160
303 250 369 141 360 442 508 484 476 438 426 418 410 418 411 415 417 437 445 350 316 291 283 287 296 288 298 302 174 281 345 376 356 258 222 211 200 185 196 193 181 193 190 168 164
265 125 360 141 370 398 539 500 456 434 432 431 410 409 425 408 431 434 435 479 320 309 287 297 296 297 278 297 301 293 279 377 334 298 222 226 210 200 195 193 189 182 189 187 176
270 319 358 358 358 351 486 514 465 458 450 446 435 431 423 420 444 448 470 503 377 316 298 287 288 214 289 301 293 297 278 279 337 367 312 232 223 213 193 194 189 186 185 188 183
306 160 357 356 350 343 527 492 471 446 442 419 415 435 461 467 487 484 443 416 425 380 309 298 284 288 293 284 294 293 292 269 330 313 355 318 139 216 212 192 190 193 189 178 176
272 274 357 349 342 328 396 407 424 432 446 478 489 475 447 479 440 347 334 331 334 356 371 294 282 287 299 286 291 294 319 288 314 357 352 300 272 233 237 211 195 185 194 188 181
209 168 275 337 340 319 374 366 341 376 377 422 361 384 419 358 328 317 307 298 299 324 321 314 287 289 299 280 292 287 292 331 291 275 302 341 336 241 231 233 214 200 186 189 187
266 190 365 340 328 319 336 349 347 343 349 365 341 332 342 329 324 317 303 291 278 291 325 331 284 274 272 282 290 294 286 310 310 316 324 240 336 351 235 233 237 226 205 191 188
231 196 290 141 328 321 310 329 349 351 336 325 342 320 335 325 330 328 301 293 287 291 325 320 296 274 278 279 283 282 286 288 330 285 278 336 330 341 309 227 228 233 223 207 198
162 225 311 347 334 320 317 318 330 358 341 317 315 311 298 285 293 300 291 284 281 274 301 292 273 314 272 277 281 286 286 291 298 331 276 265 333 329 328 286 228 226 229 219 209
265 198 291 352 332 314 319 296 319 320 323 334 333 312 305 289 293 279 287 290 286 301 294 270 275 268 284 292 286 274 286 287 305 314 327 335 333 321 299 294 269 246 230 227 226
202 155 209 340 339 327 306 302 295 294 303 297 317 355 315 295 292 288 272 283 286 280 281 277 270 272 281 283 283 302 307 319 321 313 313 316 339 330 304 282 270 265 261 252 241
173 167 242 218 337 333 314 306 291 308 307 296 284 352 311 299 290 297 278 287 284 280 267 268 280 257 290 295 298 291 285 280 285 284 296 314 320 321 306 283 293 261 258 255 231
169 163 278 183 350 334 323 299 295 280 305 309 299 287 313 295 289 291 289 277 269 286 279 271 278 277 279 286 284 291 301 292 270 302 306 300 294 310 304 288 298 274 255 252 254
174 197 154 355 338 333 320 308 293 279 275 306 307 306 289 281 274 270 273 278 270 273 277 276 278 281 271 267 275 271 268 276 274 280 292 307 295 292 299 289 284 271 267 252 246
165 154 194 207 336 330 334 313 301 292 276 285 305 306 310 306 301 309 286 282 276 273 272 274 272 271 275 278 276 277 268 265 264 269 260 271 288 290 280 285 283 290 266 258 249
144 160 229 354 233 330 336 327 306 295 288 273 271 294 299 298 300 301 301 290 279 282 272 286 280 280 274 260 260 264 266 268 259 258 273 253 261 267 273 279 284 276 285 272 260
156 143 143 122 275 341 318 321 315 298 286 283 270 264 281 261 295 293 300 288 279 276 267 270 278 284 281 272 271 266 257 259 270 280 269 261 250 253 252 253 255 259 256 263 266

GFSSW_2pvu_pres_075.txt.gz
Presure
131 185 280 323 106 399 331 388 155 307 378 362 365 324 314 301 307 292 296 290 291 301 322 331 344 328 354 126 223 127 194 203 191 176 197 168 164 96 159 157 157 154 151 87 98
123 158 311 317 327 298 326 410 400 391 384 379 374 386 328 314 300 317 299 291 294 305 320 310 337 323 322 279 122 219 179 187 208 162 173 190 176 146 166 163 167 157 144 156 150
135 175 247 374 359 122 173 399 447 442 385 398 381 377 394 341 309 287 289 286 201 307 307 308 322 330 307 322 224 120 173 184 188 101 199 207 166 164 158 149 145 158 155 147 158
120 188 409 391 417 379 365 374 439 433 439 446 437 386 381 370 353 312 295 284 286 297 285 323 315 338 311 342 271 202 203 178 216 213 158 203 208 158 157 168 159 148 155 143 149
138 257 310 420 370 356 367 424 522 495 469 458 450 455 413 384 366 332 314 293 299 278 285 303 304 327 287 298 408 216 190 205 146 215 197 161 174 152 183 168 154 163 156 121 152
123 199 131 258 379 344 366 422 529 495 480 459 441 447 448 426 371 362 332 329 303 287 208 279 293 310 325 302 311 264 196 119 120 176 220 191 203 172 107 169 162 158 161 158 148
131 185 382 389 385 366 183 449 497 467 445 433 429 460 478 484 503 367 335 329 296 291 281 292 290 312 318 302 303 323 223 109 168 172 127 183 188 164 197 186 160 167 156 159 151
228 217 193 212 373 364 356 439 495 460 440 429 442 432 432 467 474 493 355 316 300 286 252 278 291 296 309 316 293 295 376 222 164 204 163 133 176 185 194 196 187 177 171 163 156
189 232 153 393 374 364 489 520 491 461 443 441 422 421 420 427 442 458 385 328 308 292 287 295 152 281 302 302 282 326 333 290 227 202 190 206 194 126 66 192 180 193 168 168 157
229 217 259 372 352 369 437 533 495 473 449 430 421 410 416 413 421 425 445 345 306 292 283 273 116 275 301 312 281 282 276 360 285 219 185 204 198 203 197 168 180 200 177 164 162
224 174 287 150 133 361 389 365 473 455 444 428 413 407 409 407 418 430 418 405 317 292 284 240 288 280 303 286 296 262 282 302 377 282 251 214 195 67 206 203 202 189 201 167 161
221 238 179 358 356 349 434 381 472 475 456 454 434 424 410 419 411 424 423 413 334 291 285 289 276 290 295 290 289 313 303 279 314 397 257 207 180 246 209 127 175 203 198 199 170
252 157 256 280 353 346 368 432 414 415 424 462 438 439 433 425 426 445 430 461 351 305 290 278 286 279 277 290 283 293 301 298 276 280 402 220 197 194 180 205 206 205 140 198 195
196 180 177 248 358 338 358 353 444 417 430 421 468 452 457 457 444 451 441 462 420 314 295 276 280 284 280 271 277 280 292 298 300 277 278 351 270 198 183 204 193 204 205 190 199
240 212 178 171 339 334 324 344 408 440 367 367 361 349 371 497 456 480 463 434 392 321 322 274 275 280 278 275 284 275 292 298 306 295 275 293 300 254 206 204 201 159 115 208 189
170 190 184 207 213 283 324 324 364 344 345 334 340 331 337 345 351 353 393 364 367 345 320 286 272 290 276 274 288 274 281 288 301 317 292 296 265 374 332 214 210 205 180 198 202
204 175 172 171 180 338 316 328 329 358 333 345 325 326 326 316 320 314 320 334 338 366 332 296 289 284 281 281 270 284 276 292 313 319 325 291 269 350 214 349 225 235 222 208 199
130 238 163 159 230 344 324 321 323 347 333 311 331 319 304 305 303 307 303 307 330 347 328 301 281 277 274 275 279 285 288 281 290 313 311 333 293 392 333 355 320 219 230 246 217
169 135 160 138 190 212 320 313 302 329 341 349 338 305 309 303 292 293 294 296 309 313 305 312 286 278 276 275 279 285 287 319 316 294 284 332 330 294 363 298 352 299 248 236 249
171 171 194 143 171 181 290 320 299 318 309 334 322 324 321 301 290 288 306 305 282 328 315 318 287 239 290 280 243 274 307 300 305 291 298 338 348 315 262 346 348 330 285 273 233
247 144 151 147 242 175 294 328 308 292 313 350 316 318 328 307 303 291 282 298 309 313 326 306 290 308 275 272 273 278 286 301 307 298 287 289 335 362 335 262 330 337 333 284 276
213 226 248 167 240 148 335 337 322 299 298 346 321 305 298 303 309 302 299 296 288 288 287 286 289 288 286 264 280 287 297 285 280 295 292 305 325 334 346 314 306 320 296 298 278
246 245 178 206 164 263 133 328 323 302 288 314 320 307 311 303 288 282 274 297 295 276 274 273 282 296 287 281 282 280 276 300 307 314 314 312 302 311 326 336 320 314 313 300 281
138 234 223 139 243 206 198 343 328 314 293 278 305 300 303 292 281 277 294 274 265 284 278 275 265 275 277 282 277 273 291 287 282 278 291 288 291 299 316 317 333 306 303 293 298
121 211 240 271 226 139 152 341 350 317 304 288 278 306 307 292 296 280 292 277 286 277 281 272 273 282 269 284 274 275 279 278 276 283 293 298 301 289 285 291 304 303 289 290 281
242 261 160 269 204 128 272 332 338 314 317 294 278 276 303 309 302 291 283 284 287 271 281 270 265 268 269 269 266 262 265 264 268 273 272 270 286 296 280 277 284 297 283 290 268
213 171 150 190 133 184 138 288 245 331 312 302 290 280 287 278 301 302 301 291 280 280 262 275 284 269 266 266 262 258 267 267 261 259 257 253 265 272 282 288 283 281 290 290 267

GFSSW_2pvu_pres_078.txt.gz
Presure
161 223 190 121 144 134 424 403 383 287 416 132 400 368 324 323 299 300 304 299 301 294 288 297 297 300 272 241 229 227 115 143 209 156 202 147 72 174 143 169 163 167 96 131 86
164 232 168 204 290 207 397 388 253 354 360 362 429 407 375 336 319 240 282 291 301 299 293 287 296 290 290 257 202 227 252 224 99 103 144 138 176 209 161 154 168 164 157 121 117
141 126 207 163 146 96 400 379 293 361 354 424 443 384 412 384 324 310 302 281 274 293 286 290 291 312 330 270 266 260 273 194 153 123 84 200 182 203 178 149 154 168 161 163 142
161 178 203 174 242 383 322 365 457 463 460 477 420 497 444 413 363 368 310 297 286 270 285 244 306 296 280 328 354 279 327 229 89 90 100 190 194 179 205 170 171 162 157 159 158
149 123 232 254 127 389 242 467 415 493 494 494 488 492 459 439 400 357 374 306 294 278 286 294 297 290 281 319 338 330 336 244 216 216 160 200 178 174 184 194 173 173 97 154 154
148 141 238 223 377 393 267 430 553 504 461 455 444 452 464 455 429 391 339 339 309 288 296 282 154 300 300 315 322 312 324 339 224 230 224 190 192 200 190 191 186 178 164 161 157
143 126 130 192 348 252 375 467 446 495 453 429 434 420 430 433 433 437 358 358 322 290 279 283 286 285 307 311 312 325 310 304 234 247 206 178 219 214 190 181 200 179 175 159 158
140 258 162 237 236 211 374 464 540 485 453 431 434 420 435 449 467 444 441 362 320 311 287 302 285 279 293 314 306 321 303 368 239 196 217 209 198 189 191 213 214 185 173 167 169
123 126 125 161 151 205 378 468 506 493 441 432 431 428 429 440 441 478 513 361 323 306 310 308 269 270 281 290 318 323 312 302 285 221 210 214 206 155 119 185 164 209 141 170 157
224 134 136 155 299 236 313 359 447 489 466 453 437 426 418 427 432 446 506 450 334 316 302 291 275 143 285 292 314 322 319 300 372 224 214 201 205 197 188 204 91 169 195 166 147
134 153 152 166 214 174 209 354 434 464 473 473 444 420 414 419 415 425 475 410 337 335 312 293 290 284 280 280 289 299 316 274 342 383 219 216 202 199 180 189 133 199 179 192 165
121 163 251 160 193 157 239 249 354 383 403 427 468 446 425 419 418 422 429 426 390 330 305 292 319 286 284 229 281 300 303 307 279 346 253 221 210 206 195 111 192 204 212 177 161
123 176 240 143 155 184 267 366 338 374 378 406 410 468 450 428 428 422 424 433 383 332 297 295 308 285 266 177 281 284 300 306 269 323 349 224 214 219 207 194 166 193 204 197 167
129 148 157 196 159 222 209 340 330 347 355 365 349 378 512 463 438 425 440 430 446 336 304 289 296 289 270 275 270 276 285 301 306 298 301 321 218 213 213 192 175 165 167 202 187
153 165 167 183 185 165 157 339 326 318 356 363 353 349 374 472 465 462 444 432 429 333 312 289 292 285 273 277 271 272 280 295 299 274 284 333 316 222 217 213 190 183 197 153 209
157 161 159 227 230 177 266 245 265 312 335 338 330 335 336 356 451 451 479 427 430 338 312 284 295 274 279 273 268 270 275 294 290 301 271 287 272 323 230 220 210 187 195 202 160
155 160 212 181 247 276 264 236 313 326 323 317 329 317 327 322 334 345 378 379 405 345 302 290 288 280 284 277 270 279 277 296 292 292 285 282 279 344 275 269 223 209 201 201 204
145 157 235 201 254 240 142 329 163 325 322 321 327 314 302 308 308 318 346 358 386 328 310 284 276 298 281 286 269 271 285 274 284 282 287 311 328 125 319 342 276 224 209 206 196
133 156 170 145 196 260 148 330 161 316 322 338 341 323 307 320 321 317 327 330 345 326 297 283 274 278 276 277 282 276 274 281 270 297 297 304 325 96 324 276 322 300 259 210 209
168 154 237 125 231 253 173 141 180 294 313 323 330 324 309 314 312 309 315 311 320 332 302 276 275 272 273 275 280 286 277 266 284 271 302 292 303 323 348 336 280 271 348 271 264
160 107 150 161 173 182 252 140 205 303 322 341 337 336 310 299 299 315 300 312 315 326 302 293 283 272 271 274 276 275 287 277 290 289 293 300 330 339 300 313 343 279 290 284 358
161 108 172 174 257 174 198 126 200 257 206 311 340 306 333 312 295 294 297 320 318 312 318 282 296 286 272 268 275 168 277 281 282 287 331 303 303 298 326 350 361 321 285 271 276
157 173 176 213 226 194 258 132 140 219 319 315 301 314 307 311 294 294 297 298 302 321 313 318 312 289 280 277 275 271 274 279 285 298 281 286 288 290 303 313 355 343 297 271 310
190 172 166 212 181 139 178 261 125 293 221 312 300 306 305 309 300 280 303 286 290 285 298 298 302 310 291 280 273 271 275 275 279 291 285 310 288 291 310 320 333 312 318 287 257
161 157 142 153 149 171 206 263 132 354 195 207 308 293 302 304 296 286 272 298 280 285 285 283 288 292 289 298 291 270 264 281 280 293 286 272 281 296 305 304 319 324 294 305 279
151 149 146 140 171 186 248 320 163 273 353 207 308 285 286 311 299 286 284 274 294 289 261 276 290 282 277 282 272 274 276 281 291 280 278 269 284 266 291 297 300 314 321 312 299
151 130 219 139 173 143 214 129 360 178 350 329 318 298 291 291 293 299 288 287 278 285 281 283 281 282 272 259 260 261 266 268 272 275 273 268 267 291 296 283 284 288 291 313 304

GFSSW_2pvu_pres_081.txt.gz
Presure
119 117 147 176 154 208 205 95 380 326 362 229 373 383 417 398 327 297 298 279 306 300 293 281 273 249 237 218 199 187 199 188 156 168 136 156 72 174 180 177 163 159 138 139 81
122 121 202 130 135 173 199 97 269 395 436 436 405 370 365 399 399 320 310 296 302 303 301 293 290 276 247 232 222 196 193 187 79 186 94 204 101 139 201 175 166 168 160 139 118
109 192 128 202 123 134 351 349 279 325 560 541 461 426 367 366 380 382 314 321 292 306 308 300 294 288 277 246 232 222 172 169 177 168 79 201 99 179 188 160 153 171 165 162 155
130 127 225 140 148 131 144 163 400 555 502 484 503 490 508 380 349 407 372 302 309 301 299 302 295 320 288 274 237 228 215 190 179 87 169 91 208 195 185 167 193 181 147 154 159
161 154 132 138 122 125 147 216 406 547 316 462 459 451 466 499 438 400 378 355 299 316 293 292 295 295 286 284 275 239 231 218 191 175 126 173 218 183 125 185 226 185 176 162 156
117 109 143 216 252 201 152 182 257 387 487 462 287 439 448 453 479 450 429 356 327 294 295 286 291 288 289 288 284 275 244 239 192 189 193 201 86 220 149 153 186 186 187 172 163
151 125 138 245 217 248 166 300 376 530 475 459 437 420 440 435 445 458 422 367 366 312 81 296 280 283 281 291 295 280 278 276 254 220 188 209 202 103 219 170 196 174 192 181 166
132 147 181 108 129 321 310 169 160 385 471 459 446 435 437 430 430 441 418 408 348 342 293 290 291 280 274 279 305 282 281 277 272 258 209 208 206 181 128 214 175 220 172 194 177
134 149 142 119 222 176 315 170 166 355 397 482 466 445 443 446 449 456 435 393 345 356 325 301 285 285 309 275 278 307 310 314 335 273 220 227 213 187 231 197 150 189 187 184 190
143 127 104 184 186 222 291 279 147 351 353 413 472 456 429 432 432 449 497 434 379 330 319 316 301 300 329 307 275 307 305 267 323 310 253 218 205 215 235 211 208 166 200 171 190
152 144 148 174 165 214 173 211 205 352 344 386 418 471 441 434 433 439 468 426 412 346 314 308 308 307 279 314 266 267 282 297 308 321 396 252 359 232 225 210 178 212 182 204 168
151 127 157 144 214 212 300 191 300 164 335 382 370 428 463 449 436 434 461 438 397 361 328 314 307 303 274 267 262 280 282 302 310 314 309 289 337 275 212 221 199 216 208 184 172
149 168 134 157 146 176 180 300 150 326 337 365 370 352 475 460 443 433 446 434 388 412 346 309 302 297 277 278 260 281 269 286 299 316 300 347 347 362 218 219 95 211 155 211 176
104 191 100 184 161 168 269 193 254 157 334 357 353 366 366 462 456 446 435 397 385 393 325 303 298 294 297 281 280 280 259 287 299 316 297 286 376 347 226 206 215 215 197 172 194
170 154 192 164 169 130 160 269 286 256 339 332 348 337 353 361 489 461 424 381 373 397 336 300 302 296 298 280 282 264 265 265 286 297 315 288 319 361 234 222 210 229 213 218 203
195 151 171 166 170 181 242 260 268 305 313 307 327 338 342 355 371 472 477 403 396 401 342 306 296 301 295 281 295 262 276 266 282 293 304 291 286 333 336 228 221 231 218 213 210
153 171 225 132 125 163 216 256 224 338 330 317 346 322 338 338 351 360 440 417 417 416 337 304 297 290 311 279 284 272 267 276 274 292 293 310 278 260 287 258 229 223 228 140 182
175 156 220 128 146 171 193 147 179 145 299 333 333 335 319 328 333 337 373 422 442 379 326 301 294 296 287 278 293 279 277 264 278 292 281 307 319 272 317 306 277 228 228 224 213
131 160 152 146 141 204 230 232 169 209 323 313 334 322 312 321 321 325 333 371 394 331 326 303 290 294 290 286 296 288 274 269 267 275 284 290 309 306 274 291 346 283 234 226 219
162 162 219 144 152 135 132 191 224 252 278 252 240 333 319 310 316 319 331 337 356 318 301 284 278 283 286 289 290 278 273 262 279 274 279 273 292 302 307 283 289 239 301 276 247
150 210 143 165 164 217 200 250 162 309 250 305 326 297 318 312 305 317 311 339 338 311 301 284 282 275 275 289 279 278 284 267 270 270 271 283 285 284 303 317 304 265 246 331 336
155 148 145 154 166 159 129 219 219 316 196 193 327 316 323 315 304 317 318 322 330 322 299 294 275 279 273 272 278 291 268 270 277 280 273 269 277 127 283 312 321 323 256 276 272
176 127 196 135 149 216 175 249 214 310 302 339 307 326 313 307 314 304 318 310 327 324 292 274 280 267 276 275 274 271 276 272 266 275 282 269 258 273 303 307 304 334 338 326 280
172 122 145 138 153 217 193 190 218 262 170 177 178 240 314 302 307 291 299 301 312 323 322 286 282 272 255 267 272 271 269 275 280 271 274 273 266 292 300 302 310 294 365 363 314
139 177 133 142 168 211 180 249 204 171 159 302 173 321 300 292 302 304 301 291 297 306 313 316 281 279 279 271 266 264 270 280 285 267 291 265 273 277 280 279 292 303 285 363 311
147 164 132 164 158 222 187 136 245 238 152 149 153 258 291 296 302 296 290 278 281 284 301 300 309 317 279 279 278 281 281 283 280 274 241 261 269 280 293 296 304 294 316 346 334
126 131 149 131 161 221 244 264 271 232 299 359 259 254 214 299 302 293 291 287 271 293 276 290 283 288 297 304 309 308 297 284 287 261 282 281 270 281 275 279 288 289 286 312 321

GFSSW_2pvu_pres_084.txt.gz
Presure
140 114 147 117 122 140 130 125 339 254 240 479 423 455 367 376 391 380 349 319 318 322 310 284 212 204 206 202 206 198 196 250 173 214 137 105 196 100 178 197 175 163 165 101 101
111 136 123 166 151 150 266 128 246 368 388 141 402 420 113 396 371 384 376 331 311 307 318 306 286 258 217 217 209 225 149 185 187 132 112 99 85 192 186 179 177 168 170 167 170
136 103 143 204 141 127 105 123 133 392 346 451 171 460 487 527 418 359 384 377 321 308 313 320 304 291 275 263 227 212 223 174 173 182 184 237 217 195 187 205 178 189 176 172 166
142 145 156 148 121 122 102 174 289 378 375 508 164 466 462 483 445 398 355 378 389 312 300 295 317 303 290 277 260 237 217 195 186 174 184 169 80 90 182 164 174 155 177 167 174
127 101 141 136 133 129 88 256 241 326 378 515 345 452 447 459 480 446 374 345 375 368 305 294 303 303 302 286 273 254 234 221 196 115 85 186 245 173 137 170 140 202 182 165 170
127 136 154 143 118 147 185 136 233 363 376 159 492 449 435 437 452 485 426 351 339 365 320 300 277 294 293 298 285 270 244 231 207 64 191 159 187 236 169 149 176 151 211 176 165
114 177 139 194 148 177 166 173 315 369 367 375 411 469 447 438 440 453 494 410 335 358 381 310 305 274 299 289 297 283 264 238 232 199 185 191 178 189 178 175 203 192 166 77 179
126 101 142 153 141 217 168 306 314 351 365 362 242 481 462 448 445 431 462 425 357 326 353 346 293 295 283 294 311 306 294 262 242 120 203 196 192 183 162 119 171 207 177 185 186
147 136 110 153 131 116 159 147 309 271 304 373 390 381 457 462 460 432 437 446 375 333 341 343 317 285 314 276 292 307 310 281 258 146 218 206 179 189 111 104 178 211 203 149 183
120 106 192 141 150 147 192 217 153 327 307 366 377 382 392 467 454 449 432 440 405 343 330 341 335 291 288 305 267 320 290 290 274 251 236 215 65 196 126 177 176 177 162 200 169
102 142 95 154 174 162 250 166 286 307 192 377 364 350 385 469 448 446 463 438 430 394 345 329 320 320 293 285 274 269 283 272 269 264 240 241 216 206 193 64 182 239 198 215 187
151 130 122 172 152 193 152 163 275 255 292 377 354 364 374 393 461 436 454 437 435 403 362 338 332 328 306 225 282 270 278 284 278 275 266 259 242 228 205 190 154 190 194 229 217
124 164 123 137 175 184 190 171 171 302 310 321 355 358 361 375 444 438 443 445 426 405 360 344 333 318 310 308 274 287 263 261 282 277 306 270 274 272 240 204 199 186 202 202 227
146 138 116 111 143 165 162 184 159 280 314 320 355 342 332 362 397 464 451 462 391 398 412 356 314 309 311 308 278 267 275 288 261 281 264 304 272 327 273 264 208 202 192 194 192
143 161 176 177 207 166 164 177 132 202 252 207 314 348 333 352 380 459 462 424 388 398 417 339 312 312 305 304 303 275 276 300 285 285 269 312 279 329 344 262 254 220 170 193 209
146 159 145 155 190 158 157 182 176 222 301 331 302 314 339 352 366 433 466 419 383 390 408 325 306 298 291 295 297 296 286 281 286 274 267 295 310 262 312 351 291 235 219 211 205
152 151 146 159 182 174 185 153 228 254 258 184 306 301 343 336 348 363 475 398 392 374 420 316 291 290 284 298 303 295 289 276 279 264 282 274 306 310 305 321 313 242 230 84 211
154 129 158 139 195 145 163 171 235 228 266 298 362 299 343 342 337 353 368 375 396 379 344 313 288 296 296 291 304 293 292 283 279 249 257 243 297 307 321 283 286 291 323 258 290
134 124 127 139 180 144 153 171 212 145 265 259 183 291 334 333 327 342 364 388 391 382 330 330 293 293 291 292 292 286 292 284 272 276 269 266 264 290 311 309 281 294 331 342 277
154 149 146 139 143 189 181 217 227 132 291 245 214 220 260 335 329 344 349 375 461 386 327 320 291 290 291 294 285 289 278 283 281 277 258 270 260 287 292 312 288 290 302 351 287
117 147 142 123 150 160 172 207 148 184 276 172 159 206 327 317 322 322 339 363 397 423 329 319 301 282 289 299 311 283 284 276 280 278 263 266 261 251 288 293 310 317 280 283 290
161 131 112 201 196 158 157 157 164 240 265 168 148 330 335 214 317 310 337 342 344 326 321 298 285 285 287 285 284 277 292 268 282 270 258 261 262 259 279 282 286 304 301 270 280
145 150 126 138 142 141 151 225 240 177 272 314 146 313 345 327 314 307 299 327 345 309 299 304 288 288 283 290 291 287 287 290 288 273 268 262 257 257 273 274 283 293 295 304 282
144 149 107 134 132 155 173 158 218 256 265 141 165 248 164 169 312 300 307 321 319 326 307 298 283 277 268 272 268 265 272 269 273 270 273 274 261 264 274 280 284 288 290 306 294
133 149 146 135 186 180 210 196 224 210 188 246 410 143 155 154 291 299 297 302 321 317 314 297 286 278 278 274 277 276 276 273 269 277 276 273 267 264 256 275 280 287 284 314 317
135 110 136 203 144 202 236 152 227 230 216 483 152 142 135 154 217 298 295 292 303 314 319 301 292 288 288 279 277 274 270 268 268 271 278 272 282 259 270 275 277 286 284 302 317
120 120 172 120 163 212 146 159 167 191 239 502 451 145 148 127 156 300 287 298 286 295 301 303 293 278 272 278 287 284 278 261 270 276 269 270 263 263 268 274 277 288 300 301 309

GFSSW_2pvu_pres_087.txt.gz
Presure
128 134 117 118 109 130 131 138 139 134 312 172 406 511 515 334 167 375 393 375 344 334 321 317 302 230 211 235 222 187 203 174 173 206 217 98 217 189 200 194 153 171 189 145 166
152 130 133 101 133 135 116 143 181 240 251 270 404 492 484 472 245 395 371 390 356 332 343 322 314 295 221 209 241 201 213 179 221 170 234 217 194 229 170 200 179 179 205 167 158
132 128 124 167 130 145 125 148 304 228 161 193 395 524 203 162 492 438 367 378 382 345 332 340 324 300 290 220 210 230 172 190 176 176 86 155 191 233 210 144 175 180 192 181 168
132 125 110 123 157 120 124 115 126 304 102 395 389 420 448 431 464 498 402 352 365 367 336 334 309 316 301 284 219 228 191 178 183 180 181 257 209 81 135 90 164 186 173 191 173
145 116 108 122 118 142 123 125 115 293 221 393 380 391 450 169 453 467 501 386 341 379 351 326 323 317 318 297 277 215 229 185 186 225 136 163 219 197 210 170 207 93 182 187 185
109 130 115 109 129 150 137 201 139 268 328 356 385 378 419 478 456 419 481 402 369 351 364 340 317 292 315 312 289 257 211 205 187 189 212 195 189 252 193 201 191 94 108 176 183
125 134 116 104 141 126 127 122 184 245 300 366 370 377 367 415 482 467 467 498 393 346 372 357 324 309 301 304 303 283 246 221 195 199 190 87 118 180 195 206 169 211 128 150 174
110 119 131 123 125 146 158 140 168 145 264 333 357 354 366 388 486 477 457 480 453 371 335 370 340 310 296 288 302 306 284 252 210 81 80 206 199 187 182 188 199 235 137 182 149
142 139 164 130 140 187 107 136 215 206 282 296 372 349 377 372 483 470 454 461 454 383 356 332 350 319 301 292 291 308 298 291 260 236 157 204 215 197 133 174 199 244 207 176 177
99 159 117 116 171 123 123 152 173 142 262 312 252 334 356 365 454 468 465 453 444 405 362 328 361 375 331 292 291 295 334 300 271 254 235 216 206 61 196 169 177 191 83 172 185
147 143 162 146 209 116 164 138 185 115 272 320 322 339 362 371 400 475 461 447 453 439 365 341 317 372 338 303 294 285 290 288 277 260 249 240 228 211 203 62 66 174 84 215 167
123 143 143 129 145 168 198 189 157 264 285 235 322 309 330 359 374 482 465 465 449 431 388 353 315 348 362 322 289 284 264 300 282 276 262 251 238 229 209 200 193 194 171 228 202
118 113 147 131 110 156 153 154 197 180 259 307 293 331 332 367 362 412 465 470 447 428 397 358 319 334 366 339 303 293 284 262 271 279 299 263 250 241 226 205 195 190 187 175 216
151 159 159 165 128 130 143 174 156 221 270 280 179 156 315 353 356 399 456 473 452 424 384 375 317 327 351 322 316 296 284 267 268 286 277 301 267 252 245 219 201 197 189 184 175
148 158 146 146 176 148 159 213 162 207 247 273 293 226 187 355 356 376 464 476 451 415 374 341 333 305 347 342 320 286 267 274 275 264 298 276 281 263 252 247 217 204 203 187 187
139 157 129 135 125 145 172 170 216 196 278 245 278 173 182 349 352 367 448 455 417 425 373 385 315 314 310 326 326 301 280 274 278 266 269 285 282 270 261 258 250 221 207 204 197
152 126 148 96 142 146 157 207 192 225 190 239 157 169 338 338 348 352 393 390 394 406 397 361 323 308 301 298 318 308 318 284 273 304 258 265 272 277 270 266 265 250 231 188 203
142 153 139 97 102 146 165 191 180 166 224 278 310 234 314 350 339 338 363 396 391 399 395 358 299 299 295 302 299 312 312 321 270 265 266 270 281 282 273 300 319 271 267 242 221
116 143 154 112 97 185 176 161 232 178 184 226 171 250 289 352 334 335 347 389 384 403 404 331 297 311 293 289 298 301 310 289 296 271 265 273 283 282 280 266 322 293 286 282 277
130 130 131 136 115 151 172 152 183 176 252 284 268 182 162 231 270 333 348 363 402 398 369 333 292 290 289 293 308 299 304 292 291 288 280 274 272 265 274 275 307 321 293 293 349
114 136 147 151 156 151 169 194 219 182 189 243 192 274 154 149 168 183 337 354 434 369 342 325 304 292 297 303 293 291 288 302 285 280 266 256 273 264 260 268 265 301 296 295 302
98 148 143 152 138 205 167 148 163 226 155 265 237 155 133 146 149 269 329 340 444 371 334 310 316 300 292 290 289 296 298 280 281 270 266 263 265 260 276 272 252 266 289 309 283
135 122 119 128 157 146 147 229 157 172 200 138 180 293 394 151 132 151 326 335 387 348 330 322 294 290 290 292 285 287 289 280 278 276 269 264 266 262 270 262 276 273 277 286 299
116 140 122 154 138 149 155 222 131 199 223 158 250 389 394 143 131 139 321 322 315 342 310 306 303 288 285 271 272 278 289 270 267 262 262 256 259 267 270 261 272 265 255 278 282
133 141 133 121 105 184 166 124 180 190 220 197 270 358 392 149 139 283 145 322 319 301 309 300 315 302 292 266 272 271 273 269 272 279 265 258 268 268 273 273 269 262 265 283 302
141 138 122 159 113 176 155 219 135 213 214 176 211 151 402 139 124 313 143 188 314 318 301 299 293 294 292 280 276 293 284 282 279 276 277 274 271 269 279 269 264 272 280 280 291
122 116 116 120 148 161 128 194 167 202 169 227 330 451 409 333 120 216 140 292 291 319 311 300 299 298 290 279 279 271 267 266 261 257 256 259 271 276 270 273 268 270 268 290 294

GFSSW_2pvu_pres_093.txt.gz
Presure
104 153 132 158 134 182 187 112 141 98 140 151 143 126 200 143 370 325 135 508 422 393 384 347 334 245 297 295 276 227 254 220 202 184 197 156 183 132 195 190 213 170 174 171 182
151 139 126 183 147 102 131 112 111 105 93 141 138 139 144 191 238 301 503 525 425 382 388 172 172 333 309 300 291 259 274 266 214 187 128 198 136 179 185 187 197 201 186 172 177
145 147 162 161 170 166 162 135 93 119 134 154 106 155 195 315 239 93 496 503 440 397 149 177 163 345 323 311 301 273 250 211 228 207 191 208 199 185 195 193 183 199 183 199 185
194 120 149 190 202 138 165 105 124 153 124 122 137 184 312 321 391 398 414 491 361 403 379 366 353 364 336 319 314 302 276 256 267 241 203 151 200 135 186 189 179 190 199 200 174
203 125 139 137 172 188 129 129 122 108 119 130 172 130 309 339 408 388 301 494 493 415 378 381 348 368 341 330 325 309 283 261 274 263 236 216 197 208 75 190 202 195 190 198 196
137 131 131 146 181 215 137 160 208 172 172 181 150 151 308 311 418 385 381 497 473 453 389 378 354 339 347 331 331 307 294 274 211 272 247 215 212 207 191 188 150 199 193 198 200
150 128 161 128 115 165 137 214 142 183 146 176 154 243 322 305 349 388 356 489 478 486 403 360 371 336 358 328 322 314 299 286 277 282 263 236 197 212 206 145 101 199 155 190 202
111 134 131 139 161 165 135 140 135 120 147 190 215 255 298 309 355 368 366 433 479 461 450 372 358 343 334 325 321 316 299 287 278 282 274 250 195 206 82 194 189 194 197 189 186
132 146 139 160 186 163 115 110 152 159 152 122 191 193 244 314 351 232 368 486 474 469 475 384 342 365 332 321 325 311 308 291 280 282 272 262 235 219 207 113 189 179 192 196 189
135 141 136 158 214 150 131 143 132 155 135 169 133 253 243 309 358 379 368 477 461 459 470 408 355 343 353 329 316 303 313 295 279 277 277 266 238 218 220 223 196 183 181 188 197
136 147 109 153 139 174 142 134 133 131 120 132 180 311 225 286 392 292 365 473 459 446 458 421 366 337 362 340 316 322 310 158 280 277 277 255 257 237 218 225 237 199 162 187 189
135 144 148 149 147 163 186 123 148 132 131 178 179 205 286 316 371 367 362 467 449 450 446 438 383 344 334 349 324 312 344 291 283 280 273 258 249 243 229 213 245 196 188 148 171
133 152 146 156 165 158 149 129 180 172 182 167 301 284 299 313 367 177 348 466 455 451 427 443 382 351 322 358 333 315 295 295 288 281 275 260 253 247 237 188 216 233 190 151 163
147 167 153 167 147 150 146 125 117 136 119 154 192 252 286 144 363 274 376 205 456 469 416 427 385 353 316 319 330 319 295 288 291 280 272 265 254 249 244 215 190 180 221 172 175
149 139 124 151 161 130 133 185 113 108 172 197 195 283 222 382 280 279 171 451 458 435 422 414 378 356 311 307 335 331 301 287 340 277 274 265 260 248 250 244 212 194 180 210 194
139 154 128 134 163 139 179 109 125 127 116 119 175 248 392 298 358 156 157 324 445 412 407 406 372 352 312 303 327 342 303 290 325 272 283 272 261 256 250 240 225 211 195 195 184
147 148 145 150 162 142 126 122 152 159 112 188 175 289 210 370 138 228 271 424 178 419 395 394 370 347 308 295 316 325 300 291 316 276 274 310 266 255 250 242 233 221 214 203 200
134 174 149 146 157 125 130 133 179 156 167 170 206 312 394 370 269 144 140 373 412 404 388 377 352 328 306 298 310 324 318 285 284 281 283 309 272 259 254 250 242 238 226 214 208
151 155 121 144 156 161 121 134 127 169 175 173 185 267 359 335 353 135 317 371 386 392 377 357 342 313 301 304 311 351 304 302 286 283 278 271 269 277 267 258 252 243 233 225 213
149 152 147 144 161 127 135 140 156 148 163 160 174 240 334 367 353 147 158 366 391 378 373 362 342 308 301 302 297 314 307 328 302 274 262 265 261 274 278 273 267 267 248 240 232
155 152 150 159 154 168 169 110 165 106 122 158 178 260 323 256 352 343 135 140 415 369 355 337 334 303 300 300 302 329 326 343 303 281 279 254 270 243 266 279 270 266 268 272 269
157 148 149 155 158 164 168 134 151 154 156 154 146 245 358 367 358 339 123 142 278 347 351 330 315 300 297 294 321 330 323 342 285 272 269 254 255 250 251 266 267 263 265 273 279
155 135 148 156 156 108 178 95 136 141 158 175 146 141 181 375 261 348 364 126 395 420 354 321 299 296 298 299 296 318 325 304 308 276 273 262 273 265 246 246 256 259 267 279 278
153 150 144 139 160 146 159 127 110 146 164 186 208 153 294 184 193 349 367 262 404 387 332 314 297 292 298 313 299 296 298 307 286 304 274 259 273 272 269 259 248 247 247 250 263
151 149 145 135 125 164 119 96 149 176 198 155 173 187 264 196 369 354 345 141 165 338 323 315 305 297 291 289 285 302 289 296 294 299 298 260 252 265 260 253 255 262 273 270 242
149 146 197 153 100 141 121 135 161 115 189 137 166 138 125 268 183 353 349 133 137 139 318 312 285 304 300 289 294 276 276 287 291 308 278 271 263 266 250 264 272 261 263 266 274
145 143 219 146 155 158 158 160 153 149 160 200 187 189 164 261 236 276 345 175 152 265 310 311 293 295 286 282 289 285 273 274 278 289 274 272 281 272 272 259 252 254 257 269 261

GFSSW_2pvu_pres_096.txt.gz
Presure
113 182 139 139 156 162 132 182 144 149 94 123 116 112 145 145 231 113 151 184 259 466 118 378 378 335 396 322 233 166 108 228 190 186 157 152 96 149 158 163 105 195 198 185 144
127 103 140 95 155 139 113 212 190 170 112 96 93 135 137 203 140 142 246 410 406 492 468 384 377 357 354 327 310 178 177 266 197 191 192 191 185 86 125 170 172 184 134 159 175
118 130 160 131 118 137 147 192 148 108 165 108 95 151 178 173 157 329 303 408 445 512 446 398 370 365 357 352 312 303 152 96 228 189 187 219 201 191 177 163 177 179 172 181 185
170 123 165 142 156 144 161 168 160 238 118 90 135 143 159 138 189 242 406 405 409 505 450 407 355 372 356 396 317 308 292 254 261 227 197 238 192 76 192 178 167 176 180 190 193
118 118 147 127 130 151 158 166 161 158 134 109 137 153 138 258 142 321 359 401 401 490 458 412 362 365 357 348 346 144 231 289 264 270 260 238 180 213 197 182 185 174 168 183 187
149 145 136 117 125 143 123 170 223 184 115 135 144 194 148 131 244 316 405 395 389 486 464 419 339 353 349 343 167 212 258 281 285 265 246 256 233 214 193 197 144 181 133 185 191
150 153 132 139 142 134 118 169 149 144 138 151 139 150 130 137 225 361 400 385 250 493 470 421 358 358 357 344 165 163 162 288 288 267 258 274 257 233 91 198 199 175 179 180 183
160 147 144 123 103 128 148 107 174 241 161 144 142 139 166 171 312 400 390 383 377 497 473 422 386 344 343 337 335 309 297 289 283 272 262 256 260 234 132 186 192 186 174 174 182
205 134 189 132 147 158 128 135 190 154 119 122 137 121 191 162 386 397 381 266 400 483 466 424 400 336 344 337 337 338 303 292 277 280 271 272 254 264 250 218 163 186 189 173 177
214 138 123 154 143 136 164 97 202 150 143 140 140 132 134 262 412 384 376 371 481 475 462 442 401 346 341 342 333 340 344 306 289 278 282 266 262 248 252 266 168 203 192 184 181
147 143 123 161 128 156 147 100 158 118 156 114 120 120 128 413 404 376 369 382 175 469 465 457 400 358 348 354 336 337 336 337 286 276 286 274 241 257 242 255 251 236 203 193 178
205 146 123 160 142 157 150 114 134 161 150 141 149 186 126 147 389 377 365 319 168 426 452 456 397 378 333 341 332 348 336 334 312 288 288 279 263 270 248 256 261 254 231 191 189
181 174 143 145 145 119 154 158 136 142 197 150 135 170 142 406 336 371 360 158 218 199 443 482 387 358 343 348 333 323 340 289 320 307 294 284 268 268 264 264 255 254 245 207 192
146 167 130 151 143 128 160 101 205 147 127 123 151 186 286 184 377 363 136 143 153 167 447 467 396 358 345 335 340 332 313 331 310 308 300 284 268 270 268 270 259 282 250 210 170
190 129 159 200 150 161 158 131 135 118 189 119 156 177 232 273 372 360 373 128 291 206 415 459 402 350 341 324 331 338 315 322 306 298 290 285 277 264 271 264 252 254 253 237 197
137 204 199 158 145 158 124 132 184 148 141 160 118 133 354 324 371 362 365 149 133 346 394 427 380 347 339 336 317 328 363 314 317 286 287 281 282 276 270 258 263 259 243 247 229
145 147 136 123 152 138 154 168 131 156 139 127 203 121 167 197 368 353 364 141 292 382 393 427 363 340 334 324 298 331 331 327 295 285 280 287 286 279 275 265 261 255 252 252 241
126 128 132 214 155 187 159 168 125 106 147 120 214 150 157 160 356 350 356 145 142 399 368 397 367 339 329 316 298 325 351 321 305 287 287 293 292 279 279 266 264 255 249 251 238
221 115 168 145 155 149 158 152 150 131 149 183 165 178 202 212 368 345 368 177 143 137 369 374 364 344 320 310 304 309 316 326 350 310 284 288 285 274 276 263 264 257 252 246 243
134 141 143 224 152 147 148 153 147 142 151 107 159 175 173 303 374 272 376 258 192 137 236 366 350 330 312 311 300 297 327 320 326 318 280 279 287 285 277 265 259 259 252 244 242
138 132 140 154 152 150 150 163 130 114 153 164 185 210 224 185 321 349 380 350 344 129 377 348 341 326 317 311 305 290 309 334 302 364 286 271 322 301 270 262 262 257 251 249 247
219 136 226 153 156 153 159 164 115 131 166 177 213 146 158 174 364 363 401 420 375 365 352 338 324 313 304 312 300 286 324 314 320 352 319 301 311 276 275 266 299 261 256 251 252
126 141 144 157 157 154 146 163 101 125 118 160 217 164 177 195 170 366 404 422 233 135 137 271 317 316 307 307 295 292 316 310 308 321 338 279 291 266 265 297 272 267 261 256 252
145 208 144 194 145 149 143 163 137 136 116 156 183 159 233 245 250 319 358 402 132 135 138 325 318 314 298 302 298 279 309 314 314 326 306 283 293 293 267 266 260 278 273 264 263
208 135 142 155 144 152 177 106 180 96 159 176 161 146 163 172 284 172 360 352 417 124 128 320 313 312 303 291 285 311 290 303 314 291 304 282 279 258 256 273 265 250 263 259 262
156 191 144 147 145 167 146 117 135 124 139 113 194 187 147 183 256 158 276 371 388 336 120 139 142 301 300 250 297 283 313 298 292 298 291 285 271 287 282 271 253 255 249 246 255
146 178 169 141 147 150 155 182 173 166 143 140 160 152 171 248 191 235 272 340 369 353 337 222 302 288 307 295 265 298 295 290 295 293 299 291 286 267 274 269 259 258 253 248 248

GFSSW_2pvu_pres_099.txt.gz
Presure
117 105 134 144 113 147 143 141 121 174 134 173 117 95 85 135 153 126 130 173 99 197 406 229 474 428 390 202 336 310 193 269 260 226 108 197 108 78 155 183 134 137 166 140 176
138 137 145 104 157 141 148 131 172 138 166 198 94 115 158 129 129 163 144 135 181 420 393 390 498 413 382 377 368 347 160 283 270 254 88 84 138 118 138 106 137 147 110 154 191
133 132 142 150 154 129 122 148 123 121 127 133 116 104 143 161 157 106 141 212 326 407 386 454 445 399 374 366 366 363 253 154 136 91 223 106 140 150 113 150 148 135 122 155 154
133 131 169 134 156 116 147 125 132 166 99 165 207 221 110 105 173 97 136 170 416 398 377 447 439 389 363 232 366 366 310 268 262 242 259 243 127 61 151 158 179 154 160 133 170
124 137 141 139 154 135 184 149 143 134 134 157 195 170 124 147 138 128 185 257 333 389 372 453 442 377 358 359 360 373 322 275 270 278 238 257 193 231 112 166 178 179 143 169 166
141 184 146 149 148 137 117 141 138 127 106 197 224 87 132 132 140 201 324 412 391 380 369 476 362 336 353 357 358 383 335 282 288 278 262 165 261 247 179 188 174 173 177 175 171
139 139 136 144 177 130 203 101 128 161 165 220 166 213 123 127 131 131 144 391 383 376 354 409 189 367 348 347 352 389 333 247 287 303 263 170 184 253 189 179 186 179 190 163 175
103 123 156 143 148 146 151 143 128 111 217 181 139 155 167 156 239 138 142 383 380 446 501 476 427 365 368 341 360 373 326 329 305 277 282 220 285 187 194 189 191 185 180 210 168
135 203 133 118 139 133 170 165 152 154 203 148 144 123 139 158 188 159 392 378 386 337 499 468 432 370 351 359 349 331 339 336 292 297 272 275 177 167 222 186 90 205 181 97 187
155 158 150 151 160 179 154 154 130 174 155 230 139 150 159 159 281 270 384 382 410 486 480 195 429 369 357 350 363 359 378 316 297 167 285 267 243 270 250 209 191 191 174 182 189
133 138 126 149 154 128 152 147 124 166 231 180 138 134 159 127 142 262 160 398 441 459 161 167 427 364 375 335 343 337 348 318 307 178 161 210 163 253 263 277 240 198 245 206 192
136 129 195 128 177 172 161 149 146 197 182 135 154 160 143 127 358 307 385 416 313 161 235 395 428 387 350 340 332 329 332 369 319 283 277 270 194 175 254 245 258 201 264 185 194
180 152 149 150 113 154 152 160 145 174 154 113 143 139 138 145 347 229 398 447 461 141 138 329 432 400 348 344 332 335 326 353 314 292 277 268 260 256 265 242 261 264 282 247 163
135 196 140 211 161 130 133 153 159 161 139 197 146 120 130 120 389 370 394 462 489 475 135 152 428 401 350 343 330 334 325 319 359 330 279 272 263 269 260 272 254 252 260 270 179
137 216 140 125 144 134 151 156 155 158 163 141 122 148 174 221 304 368 388 408 412 214 142 462 425 399 372 341 327 310 319 311 307 289 302 279 271 261 265 287 267 260 257 252 256
215 184 133 128 141 147 154 141 161 201 174 136 167 140 125 331 377 363 389 413 398 150 143 460 400 362 361 339 338 312 312 318 313 352 301 275 276 282 270 265 277 275 265 256 199
140 121 123 217 137 146 171 157 165 169 147 141 162 149 135 398 219 368 399 330 377 208 144 142 287 340 363 368 326 322 311 309 309 313 298 308 269 277 273 272 270 267 276 278 253
129 128 167 147 123 139 158 224 165 185 151 107 135 189 176 204 257 378 405 437 379 119 131 140 331 343 341 346 317 334 314 320 315 343 314 321 317 279 274 284 269 266 281 276 260
145 190 139 141 131 186 160 174 165 168 107 137 131 174 140 313 181 319 410 435 393 122 407 171 336 340 343 350 345 307 320 311 313 297 332 341 320 337 306 277 271 275 286 275 272
205 164 234 135 135 149 219 237 157 147 145 104 145 135 169 191 165 420 415 392 390 392 255 343 330 325 329 327 313 324 310 325 303 307 314 307 339 319 311 292 351 281 288 273 259
198 239 213 231 226 155 155 146 150 154 106 135 149 154 172 280 287 385 414 389 387 387 135 139 338 316 318 322 322 301 345 308 304 318 316 323 306 295 291 316 289 288 274 266 263
245 139 235 135 148 214 170 150 152 167 109 157 177 149 167 258 217 384 422 405 378 331 138 130 333 316 317 311 311 303 292 314 314 330 328 309 298 283 305 277 349 279 276 271 262
236 235 154 139 193 225 148 141 160 120 110 125 143 131 182 181 169 246 394 367 364 353 132 125 330 317 315 310 298 297 286 290 332 328 321 350 293 305 323 313 281 295 277 269 264
190 227 161 219 150 184 148 149 165 163 122 123 119 205 112 188 236 214 344 418 363 349 226 123 136 332 312 309 294 296 318 301 313 313 347 330 325 300 277 297 283 301 274 266 269
225 227 144 170 148 168 147 149 145 165 120 129 120 148 139 125 167 250 240 230 372 325 342 333 319 304 302 297 294 295 304 304 298 297 316 318 314 302 303 268 287 268 304 262 268
135 216 144 139 148 138 144 134 150 90 167 119 129 131 131 169 243 160 261 261 263 360 347 317 137 304 296 292 265 285 290 305 338 304 308 310 337 306 281 279 302 282 275 289 255
231 227 215 216 205 146 157 127 150 128 172 125 142 183 125 152 172 162 164 257 190 342 337 337 155 242 304 299 291 303 294 286 310 294 308 305 298 279 272 287 270 292 302 267 270

GFSSW_2pvu_pres_102.txt.gz
Presure
122 122 128 138 127 145 112 117 124 166 124 164 129 128 173 161 114 94 180 169 143 134 90 134 143 165 338 386 277 383 138 279 310 313 127 215 187 169 188 142 184 162 132 119 103
122 145 119 134 164 150 126 135 112 151 147 149 155 163 157 174 102 123 173 153 128 143 134 159 176 345 474 492 383 385 370 334 248 302 290 95 232 93 109 194 183 130 145 140 120
126 127 149 139 132 119 96 140 133 154 147 126 165 139 128 142 204 180 126 138 158 145 187 167 373 417 435 452 458 386 381 343 303 85 290 246 94 207 168 194 164 104 160 144 152
143 139 137 135 148 115 134 156 227 120 110 160 107 131 95 96 98 83 133 129 129 119 152 315 377 417 420 458 406 382 376 341 316 290 286 137 163 166 93 105 179 172 121 158 107
133 144 140 133 140 131 137 143 158 136 157 116 110 112 196 152 162 134 173 146 211 214 157 386 375 430 420 485 389 380 370 361 314 283 252 234 253 160 227 195 180 189 170 141 168
181 132 136 144 147 148 138 140 150 125 173 167 157 123 140 120 114 127 159 240 161 288 386 381 368 423 414 411 386 374 368 327 312 326 268 188 211 127 128 204 155 185 177 161 159
169 130 131 107 110 129 120 159 229 139 134 159 201 122 144 88 99 171 140 145 264 384 382 460 435 410 404 192 379 364 355 312 292 315 316 271 264 261 254 142 149 190 169 178 128
185 141 136 136 194 146 137 128 148 134 211 158 128 200 158 165 122 161 157 150 287 400 431 398 474 421 187 327 300 355 350 314 310 278 271 292 152 161 253 263 135 147 168 177 173
131 144 142 141 148 160 149 183 131 156 154 135 188 212 128 163 163 132 145 251 409 438 475 470 450 174 383 365 361 348 350 312 286 294 266 264 286 253 255 250 194 174 203 173 180
127 135 139 142 137 178 124 124 149 123 138 155 161 157 158 174 128 145 157 308 436 465 474 490 172 169 381 365 362 353 361 324 293 297 265 273 261 250 270 269 242 227 202 191 177
141 117 166 119 143 155 131 118 127 233 142 157 223 150 157 123 126 246 145 422 467 464 451 135 162 332 182 361 363 351 349 348 302 273 268 278 307 242 262 248 246 256 232 210 179
139 148 134 135 146 149 148 224 178 168 170 167 228 155 149 164 159 189 150 435 465 463 447 333 135 153 367 355 410 351 341 332 319 278 274 257 263 288 254 297 240 174 151 140 171
184 120 127 138 161 138 125 147 139 157 188 204 212 152 159 141 143 146 417 432 429 485 449 462 140 350 359 354 406 362 338 354 320 279 276 275 258 258 261 226 277 207 240 269 182
143 117 126 139 168 128 125 124 147 182 212 238 153 143 124 130 151 404 427 423 418 439 461 170 305 369 371 353 353 331 347 370 334 289 273 268 259 285 259 223 257 174 157 245 287
132 189 194 215 189 137 196 164 218 137 147 161 173 122 142 133 175 342 426 413 410 409 450 148 141 143 355 343 354 347 328 345 323 297 271 270 256 251 274 285 190 265 156 160 179
129 202 200 162 125 148 155 185 249 233 186 175 165 133 140 148 133 259 347 402 405 420 439 241 143 253 343 349 360 333 351 327 330 322 287 277 270 258 246 250 267 260 159 154 187
199 200 120 140 144 113 134 140 222 234 189 214 145 153 163 124 260 134 415 399 333 429 436 119 293 345 337 336 358 319 335 344 310 300 307 275 271 255 251 248 247 251 266 255 159
197 204 169 140 125 193 132 143 228 235 202 148 159 135 134 171 368 251 429 406 400 367 370 168 390 347 347 336 338 314 311 331 307 312 312 283 273 258 257 255 250 251 246 254 269
188 170 184 216 230 206 142 235 198 192 158 142 131 151 129 133 142 133 395 404 391 360 359 354 135 335 340 337 340 320 310 310 339 318 344 278 283 281 275 263 265 270 252 253 257
159 204 183 233 186 182 242 227 147 112 138 181 146 116 151 142 192 172 389 414 424 377 357 318 130 352 359 332 339 310 307 308 311 343 316 332 264 274 275 267 264 275 268 258 255
150 212 227 199 178 195 210 229 167 141 190 154 158 139 138 148 162 141 137 404 414 377 348 288 224 342 356 357 352 318 304 313 304 324 304 318 318 269 263 269 270 266 270 280 309
212 221 211 209 161 133 225 238 204 149 143 140 120 148 123 119 162 222 181 369 429 374 345 335 124 130 329 340 337 299 345 311 308 301 319 323 308 313 291 283 272 276 275 273 268
220 228 152 141 231 226 143 138 201 146 174 171 133 126 148 158 147 182 287 367 390 383 350 336 303 319 321 322 327 329 304 316 344 327 321 343 310 350 321 319 295 272 273 271 248
218 200 155 244 210 222 142 121 144 151 169 184 154 138 131 238 113 171 186 233 244 347 349 340 333 179 142 315 315 303 294 318 326 328 337 341 325 335 307 318 343 386 375 311 291
202 227 250 229 172 153 140 192 171 138 154 161 127 149 140 147 167 189 118 274 251 257 351 343 321 316 131 214 300 302 305 295 293 327 329 309 330 317 303 313 283 330 308 286 302
191 249 169 228 221 182 134 200 145 139 105 151 151 117 157 133 209 136 161 158 218 129 338 316 315 312 296 118 300 293 302 296 312 313 327 336 313 333 306 294 306 312 280 307 288
219 240 225 215 222 224 138 196 189 144 151 154 129 114 166 170 137 155 130 150 166 172 273 337 323 304 163 304 301 295 303 309 307 298 312 323 302 313 325 299 288 279 286 289 289

GFSSW_2pvu_pres_105.txt.gz
Presure
120 125 123 122 112 169 147 133 195 131 134 137 146 147 142 159 142 127 109 115 93 88 121 106 113 94 137 124 161 145 122 139 126 108 172 83 133 238 123 151 151 190 160 170 118
127 129 128 123 109 139 147 143 128 141 126 114 170 159 128 115 152 139 157 177 133 100 156 109 141 87 179 127 138 166 171 228 104 126 237 244 101 122 154 150 186 68 157 176 146
127 124 126 122 130 139 148 143 134 123 143 123 157 178 129 137 170 179 126 92 119 99 97 123 154 192 160 156 158 158 402 401 385 318 181 123 291 133 155 149 163 199 150 174 170
129 137 130 134 135 123 136 140 127 139 136 152 139 134 166 227 117 172 190 115 134 161 121 125 153 159 128 160 202 400 411 392 365 346 86 92 286 167 134 224 100 192 183 171 163
137 129 129 157 134 138 120 140 140 129 146 129 120 174 140 157 157 141 157 150 163 153 156 151 154 153 297 256 412 434 423 387 357 94 81 289 301 97 283 186 122 142 196 155 173
158 129 139 102 138 150 111 110 127 110 136 141 123 135 147 162 147 203 121 154 125 133 147 148 168 350 379 373 421 427 457 385 344 325 287 287 293 266 211 190 84 96 130 110 138
129 135 139 135 141 167 138 139 125 124 133 124 135 194 171 128 128 169 180 134 165 236 166 166 406 415 422 378 418 422 397 376 311 295 290 273 259 304 263 97 200 131 192 142 111
122 135 134 136 136 145 142 144 133 138 131 137 153 136 149 138 179 101 126 166 166 163 153 225 443 443 445 401 402 141 399 365 306 287 283 274 268 257 277 160 245 151 204 158 85
121 136 139 129 141 127 128 130 182 127 121 160 133 167 170 148 242 161 159 176 147 191 466 462 464 462 433 409 395 374 252 373 296 296 281 296 267 262 339 257 241 157 217 170 113
118 131 136 134 177 122 141 131 188 132 127 190 148 153 159 170 145 126 120 156 202 316 472 457 468 465 399 339 177 365 396 178 424 307 291 272 272 248 281 284 153 155 187 202 182
192 121 132 174 133 125 140 132 153 148 132 127 161 208 159 243 108 133 147 146 165 439 468 450 455 437 139 166 291 384 387 408 295 279 272 272 285 287 241 316 257 249 236 208 186
131 121 151 135 122 144 128 111 135 129 210 132 172 199 240 110 153 133 144 143 312 376 479 457 478 411 138 144 251 241 390 351 315 283 270 271 269 300 246 268 282 251 159 202 202
177 201 193 144 119 140 164 160 130 133 209 139 174 188 185 151 145 162 128 210 350 431 480 465 451 391 241 264 375 387 373 303 299 305 274 275 265 270 277 257 246 165 294 195 224
243 200 191 170 119 132 181 188 137 183 122 217 140 214 162 152 160 135 174 193 417 323 475 466 386 380 147 190 370 379 359 308 289 277 294 288 272 266 266 283 249 250 233 246 248
254 223 147 189 124 190 127 139 123 217 138 249 134 201 236 145 154 131 388 423 181 437 454 478 377 205 143 217 377 384 352 345 292 278 285 285 288 296 249 243 286 254 206 276 258
187 184 193 203 134 176 176 213 145 137 204 208 211 164 123 148 151 134 163 446 453 446 490 398 119 125 212 379 381 365 377 300 278 278 269 269 281 284 260 270 244 289 303 253 249
185 160 191 124 196 193 193 126 175 136 235 192 204 185 151 136 131 142 138 252 248 390 431 378 229 327 137 365 373 351 347 297 285 273 269 267 260 250 282 258 242 238 249 285 169
224 188 222 196 196 169 137 219 125 191 171 147 112 152 108 142 134 195 139 356 376 384 436 383 345 145 135 331 372 364 367 296 293 288 274 273 271 256 277 260 259 251 262 245 250
233 184 184 193 196 165 214 230 212 237 153 140 188 114 190 149 152 130 134 230 339 366 380 363 350 131 141 360 340 335 337 376 279 274 278 272 264 264 264 278 283 263 253 249 242
181 189 193 200 213 205 200 208 243 226 150 136 163 142 219 141 130 183 325 384 141 299 391 338 331 343 133 283 339 341 319 347 364 276 271 267 263 262 256 253 255 265 275 253 255
176 191 188 212 200 221 208 249 133 214 195 153 196 183 153 130 201 169 181 135 393 309 373 375 366 337 267 332 341 311 339 326 316 346 279 271 269 257 261 254 247 251 269 257 259
191 192 210 206 220 215 237 236 204 149 162 152 161 153 140 125 143 159 149 436 271 148 346 342 357 351 344 130 248 324 310 312 338 322 304 284 263 260 256 252 277 249 257 274 269
191 203 210 220 222 141 240 133 177 177 150 152 196 183 148 145 150 131 130 159 262 361 338 178 333 345 345 135 131 321 328 309 317 340 329 300 267 274 263 254 255 251 251 250 250
195 207 216 224 133 243 230 226 180 143 209 143 158 159 140 132 143 221 160 175 192 306 142 342 333 334 325 288 123 292 310 319 329 317 341 328 307 267 265 262 257 256 254 266 245
210 210 205 203 134 233 90 211 147 171 142 111 188 200 130 121 124 119 149 173 192 188 347 195 327 328 317 323 322 322 315 311 309 348 324 320 299 311 301 268 265 268 263 257 256
209 218 202 132 235 229 224 141 196 194 176 144 150 227 186 148 165 142 238 153 244 218 300 330 328 322 314 313 311 309 308 301 323 321 331 358 339 331 308 316 277 273 268 270 271
218 213 211 239 231 225 215 188 169 141 193 149 169 222 165 142 239 146 152 160 141 147 174 248 334 324 321 323 311 305 294 305 296 294 304 339 332 335 362 351 322 276 272 273 267

GFSSW_2pvu_pres_108.txt.gz
Presure
128 149 125 119 138 128 129 109 125 150 146 146 104 186 130 142 155 153 148 129 151 163 147 145 145 191 107 163 122 126 107 114 132 151 106 87 131 131 119 116 131 122 213 148 146
156 131 130 126 135 132 115 133 130 140 103 151 149 126 128 129 141 125 175 117 149 131 140 95 170 110 182 124 116 132 115 112 112 139 91 103 146 173 121 133 137 121 231 132 147
136 155 141 138 125 140 142 146 133 124 145 190 145 121 128 150 138 111 134 144 144 172 146 127 181 153 110 142 102 115 154 126 183 185 149 129 99 80 114 96 105 115 129 194 136
139 184 143 176 139 142 144 149 140 131 140 126 124 125 145 136 161 135 123 140 112 125 174 167 151 98 113 107 141 111 126 136 118 128 139 133 156 159 168 132 84 107 143 122 158
135 135 194 172 162 131 127 138 152 126 138 130 137 123 131 150 148 153 123 84 106 147 172 137 131 178 134 125 140 180 173 142 145 162 170 179 152 137 123 233 178 163 252 196 176
126 172 139 132 132 193 98 132 148 124 109 118 141 137 133 169 134 140 168 201 170 159 142 192 155 115 147 151 125 130 172 175 366 293 378 285 296 93 115 90 88 246 109 209 119
117 157 134 141 127 119 97 142 126 143 170 126 128 154 130 145 179 83 137 161 142 122 122 111 131 132 117 137 393 403 380 378 390 406 389 337 83 74 303 301 271 279 246 219 131
140 179 119 136 127 135 132 130 182 129 129 120 135 130 121 140 127 207 156 212 223 129 104 187 268 178 232 436 423 427 386 423 451 402 379 242 108 285 272 306 282 270 255 244 154
220 185 172 123 136 179 163 128 124 173 122 140 131 129 134 135 133 181 144 157 144 145 163 155 238 431 455 453 440 426 422 416 403 292 383 317 290 275 250 289 261 275 239 227 121
245 230 157 166 166 187 130 136 118 133 125 135 169 129 127 127 149 242 162 186 126 129 168 356 479 456 464 465 434 387 391 406 431 398 315 316 260 259 254 278 272 280 260 245 229
182 255 243 208 206 180 127 196 137 118 136 139 135 139 140 126 158 225 215 127 161 168 422 442 469 457 467 429 248 373 350 182 394 310 306 225 267 262 260 266 282 255 283 254 227
182 257 241 122 200 177 127 122 141 135 123 200 130 123 204 149 242 177 180 133 153 163 364 469 460 463 440 387 367 157 162 157 315 286 187 274 272 275 242 261 275 262 260 258 241
234 172 254 258 254 126 171 118 178 162 124 206 133 140 124 154 212 199 176 162 165 147 447 244 468 424 389 367 375 147 151 190 331 300 271 274 270 275 238 251 283 323 260 266 204
236 232 206 275 211 127 121 112 183 130 202 133 139 157 170 153 156 204 154 139 389 153 406 465 490 389 365 369 197 151 327 319 322 290 260 260 245 246 270 247 264 287 272 265 250
243 148 274 265 240 193 125 132 180 131 136 137 134 132 151 250 180 162 144 133 165 193 473 490 385 373 365 372 145 143 314 301 299 278 269 264 251 254 243 268 273 286 302 253 263
246 242 231 253 251 224 211 147 197 184 146 137 163 134 153 195 174 179 137 166 141 213 158 381 366 358 118 359 220 147 309 295 292 276 278 272 262 245 249 236 235 274 271 261 260
242 243 258 251 226 241 138 190 188 180 205 131 138 145 149 196 184 164 147 198 222 372 356 350 347 345 121 320 139 349 375 289 286 273 265 287 260 268 247 242 254 260 257 239 259
230 210 246 239 146 226 228 225 193 127 244 233 146 148 174 203 109 149 147 170 327 201 360 348 352 365 330 135 144 384 366 299 285 273 264 264 279 256 249 244 234 233 242 276 317
243 242 239 231 236 145 213 191 176 226 241 135 171 215 96 104 123 162 229 141 193 204 157 348 336 334 126 133 136 414 343 354 287 284 294 280 275 260 254 248 253 249 266 259 269
254 240 238 227 169 181 142 188 228 211 232 142 162 162 141 197 136 138 128 297 159 153 363 342 337 322 324 132 339 343 329 273 297 271 270 281 269 267 254 261 245 233 234 231 247
248 235 234 202 189 200 188 195 214 233 220 149 150 148 185 162 149 149 152 166 175 335 151 354 349 339 347 338 367 135 381 291 284 276 273 274 263 257 249 257 262 241 265 252 237
236 233 184 217 198 193 157 213 236 227 152 146 143 158 186 193 147 128 143 197 132 143 143 367 339 322 312 341 336 131 162 275 272 268 262 278 274 267 262 255 249 241 234 236 243
199 175 196 192 130 177 201 239 230 217 146 147 146 194 166 167 147 223 137 131 136 300 340 146 364 339 319 321 325 197 336 312 282 267 262 273 281 271 270 275 270 265 249 254 245
154 169 206 171 220 158 208 231 221 211 150 146 180 188 211 143 144 188 145 148 202 131 354 175 361 368 363 340 331 313 324 348 291 264 265 263 255 264 271 252 260 262 253 249 237
222 194 189 208 220 209 166 229 215 174 145 152 185 139 224 167 137 141 158 189 147 269 134 340 146 334 330 340 374 344 327 315 327 274 277 260 264 254 254 258 258 258 254 258 256
220 210 194 229 194 238 230 219 209 170 161 150 149 167 235 152 174 145 185 181 151 122 143 200 143 135 322 319 327 325 329 340 327 328 339 272 271 264 261 254 253 253 258 256 268
132 191 230 214 241 204 229 214 205 176 206 188 151 138 210 107 148 150 149 214 211 247 134 146 316 333 316 313 317 308 314 319 325 326 332 326 270 265 257 261 258 254 261 261 258

GFSSW_2pvu_pres_111.txt.gz
Presure
134 145 183 139 126 180 109 141 124 119 111 122 132 140 147 113 142 131 143 137 166 136 143 136 225 137 159 160 136 154 171 174 196 131 120 127 121 103 106 120 150 113 143 134 119
185 132 157 144 170 185 142 107 134 128 113 129 130 119 149 142 137 128 155 140 152 135 128 177 229 183 153 176 189 160 171 185 184 216 110 119 111 125 116 105 90 96 134 130 134
195 209 155 170 173 162 179 139 131 117 141 138 124 141 186 130 131 125 161 134 159 152 143 140 117 258 169 245 138 108 163 215 120 137 217 122 125 131 116 127 96 137 103 127 114
181 174 199 136 129 181 125 151 187 140 170 145 132 140 138 125 126 123 132 145 175 165 131 140 158 171 101 94 131 114 90 146 132 124 124 88 128 88 126 108 135 120 117 129 113
258 227 163 215 221 192 178 165 168 174 141 143 125 151 131 140 130 132 133 134 132 194 143 109 183 150 123 191 164 182 154 117 124 136 124 128 125 128 115 89 87 119 159 106 124
279 225 233 228 192 195 145 144 169 188 130 135 141 117 122 152 160 136 162 152 131 101 149 157 188 178 167 144 179 178 129 171 118 126 150 145 134 126 123 87 81 136 123 106 80
152 265 215 231 142 233 167 156 117 141 143 134 150 130 208 138 134 185 140 140 170 128 246 119 193 175 174 135 117 109 149 165 157 130 141 151 181 125 189 127 138 136 126 129 153
282 167 224 292 216 174 214 152 142 125 132 142 143 143 147 129 135 181 137 150 140 153 153 171 159 192 140 178 172 168 226 135 132 183 363 158 408 194 188 144 179 145 158 155 140
217 242 235 250 268 160 225 169 141 118 142 129 144 132 146 141 136 160 142 172 140 155 189 145 159 186 157 166 291 300 269 438 389 253 399 394 370 330 320 274 214 142 89 146 118
332 293 249 258 263 255 192 131 214 131 175 127 156 130 149 194 135 159 134 145 188 168 214 129 151 167 172 219 429 460 443 437 396 384 395 386 357 308 302 85 85 258 232 274 244
346 290 230 175 146 250 269 249 125 178 131 128 140 134 140 161 148 199 135 156 163 171 226 190 128 179 468 179 468 467 416 427 397 385 411 397 333 298 302 187 317 302 300 286 237
328 278 232 275 261 264 179 238 248 209 145 139 128 116 130 191 133 150 156 168 221 131 150 135 169 415 470 460 394 400 398 394 411 455 429 316 302 303 285 318 331 307 294 285 237
282 249 312 250 243 248 200 252 127 216 126 189 132 146 172 128 150 158 168 170 175 149 152 149 163 223 393 388 372 374 375 397 382 188 167 296 286 277 270 276 275 314 293 313 243
295 285 274 257 150 252 148 245 153 247 220 242 132 155 214 124 197 142 169 150 121 141 150 242 415 381 375 364 367 374 369 403 149 149 154 165 266 216 276 286 259 287 293 298 252
282 277 253 253 231 236 233 266 251 179 122 183 152 135 142 142 142 157 207 161 169 167 153 149 253 371 366 363 352 359 393 170 264 279 201 288 279 260 270 276 284 321 311 304 246
251 282 256 247 256 217 228 129 211 125 217 237 132 154 219 143 150 128 218 147 199 140 383 357 374 351 375 372 356 270 149 146 144 189 269 268 279 280 277 256 273 269 259 296 269
152 278 262 241 196 210 243 237 225 182 191 142 194 131 140 152 158 141 225 163 140 157 372 186 270 363 367 362 127 226 335 374 296 280 269 272 271 262 260 254 251 243 269 251 267
285 265 232 221 241 229 199 232 229 174 205 143 156 145 134 231 185 161 185 165 150 160 177 225 337 331 356 388 365 138 142 352 291 284 270 266 256 247 243 261 252 223 234 260 269
250 257 199 247 233 237 231 223 224 222 210 136 182 150 214 214 135 132 125 166 147 143 155 209 340 336 339 355 131 132 144 302 305 295 279 265 264 263 269 264 262 250 236 245 267
275 228 245 243 239 230 206 192 192 207 130 199 146 192 152 148 117 215 165 166 193 150 349 219 306 346 336 359 224 284 238 272 273 269 263 259 256 242 249 237 239 256 272 227 264
262 252 169 239 217 224 224 214 212 134 214 140 148 191 150 168 190 280 173 161 218 188 212 329 324 342 338 353 310 296 132 278 278 269 274 274 260 259 264 260 256 247 253 250 289
246 208 241 222 228 224 205 214 134 213 230 220 212 178 147 155 206 149 168 152 252 334 147 340 148 158 345 352 301 375 127 190 287 268 265 258 252 255 238 264 251 266 235 228 260
252 246 221 229 226 209 207 194 210 228 170 149 205 190 148 162 117 189 217 157 150 364 386 168 138 330 334 347 361 279 310 293 280 263 259 263 259 256 252 245 232 238 243 246 239
251 234 203 226 216 212 197 195 201 218 212 209 148 163 181 179 212 115 270 148 363 163 348 376 148 270 256 343 343 309 283 294 284 270 262 261 260 254 251 252 253 254 244 249 239
237 233 207 209 208 180 227 236 218 216 150 202 182 179 108 180 206 149 139 171 193 343 136 206 148 279 346 336 330 357 351 286 288 288 273 262 263 256 259 260 246 250 253 258 247
175 230 140 213 199 181 232 228 213 177 203 195 149 147 131 177 200 149 141 148 254 265 255 139 137 343 335 392 343 334 355 359 290 284 290 278 274 265 260 266 255 251 244 235 239
233 167 185 199 229 233 232 215 206 205 212 191 187 145 200 174 194 143 227 216 152 151 268 216 156 128 149 336 333 344 347 352 343 289 277 290 280 261 279 282 265 263 252 246 243

GFSSW_2pvu_pres_114.txt.gz
Presure
182 161 134 146 162 139 187 201 179 121 125 125 116 119 113 125 137 116 176 144 137 141 135 123 178 159 205 143 133 162 141 151 159 184 123 169 115 114 162 132 138 89 124 140 123
273 219 220 187 158 168 168 192 174 117 121 112 119 117 120 125 121 148 145 128 140 119 215 141 146 125 197 208 185 191 225 188 170 152 161 134 180 83 91 134 99 141 109 107 102
264 218 271 231 150 205 181 138 152 154 117 121 125 126 119 122 143 127 167 133 149 130 214 142 142 176 132 124 238 170 181 261 168 241 135 182 186 131 206 103 141 97 122 113 107
249 175 260 259 244 143 177 171 142 179 139 116 146 110 133 111 191 136 147 135 129 137 136 143 229 167 236 230 150 166 159 180 142 170 162 141 321 85 133 116 122 115 109 114 141
165 239 320 157 229 182 205 203 200 171 196 180 170 175 193 133 128 145 177 134 132 132 241 132 172 142 121 148 133 213 283 194 187 150 163 163 227 152 153 106 132 115 114 114 110
223 274 282 216 152 204 252 245 179 146 231 190 201 204 140 135 159 139 135 132 147 142 147 129 224 197 96 155 219 103 159 131 182 158 163 165 114 117 208 93 117 117 103 122 84
353 288 316 286 300 283 249 153 254 190 189 130 177 171 195 138 198 125 125 125 136 134 153 131 156 106 155 263 185 173 182 152 174 243 123 120 170 94 130 111 138 115 145 119 123
330 290 195 290 294 234 265 274 195 171 235 214 180 152 132 149 184 131 145 136 138 161 216 114 134 143 160 233 170 225 182 174 155 160 163 162 176 178 137 185 124 129 156 99 87
272 237 233 287 222 309 255 259 252 239 235 213 159 180 141 143 152 135 140 134 193 119 193 107 150 203 167 179 315 147 142 140 146 126 271 160 172 162 142 143 99 123 129 163 188
360 295 255 258 278 259 199 255 228 250 257 174 143 142 145 140 142 125 132 143 228 142 131 170 163 167 181 135 133 175 156 152 179 330 166 324 143 131 199 157 151 128 139 125 166
353 285 298 296 286 305 255 286 219 241 256 136 255 195 148 153 128 124 143 109 162 132 284 160 167 143 134 133 133 124 163 143 270 423 400 393 342 141 135 134 119 139 135 166 127
361 211 292 257 295 278 191 202 216 231 138 224 144 146 134 143 130 206 201 179 184 140 155 161 134 139 144 399 161 393 416 411 412 428 410 391 407 392 395 353 341 369 389 184 157
283 317 307 259 290 291 271 185 210 222 176 199 251 244 230 130 134 147 149 198 174 159 165 121 156 219 186 258 394 388 394 403 429 410 382 395 406 399 367 338 331 394 371 304 202
397 368 304 269 301 277 275 243 132 244 183 166 163 141 157 133 157 164 142 159 152 144 180 137 169 328 189 391 382 379 376 383 367 353 390 426 368 351 333 336 330 344 345 199 88
398 374 304 287 264 257 266 251 209 197 224 140 211 122 133 137 262 155 131 253 145 383 118 158 167 328 369 365 370 355 355 335 329 342 401 358 171 320 323 320 320 325 302 294 237
381 328 270 249 283 183 241 233 159 247 169 237 132 171 167 147 237 180 150 158 264 126 155 162 152 308 349 354 349 341 330 322 318 332 269 146 156 159 301 321 333 322 292 293 246
332 291 313 279 255 234 189 233 208 215 231 232 200 131 143 224 149 214 154 186 245 141 147 154 179 154 346 352 340 330 326 247 309 225 149 144 272 247 287 280 309 338 357 296 249
304 303 272 158 253 179 226 185 232 234 153 229 132 133 236 257 147 159 181 346 146 140 157 187 334 338 357 348 351 329 180 195 152 147 148 148 149 280 304 275 305 351 389 275 271
296 279 247 237 244 150 236 191 229 208 134 136 136 218 140 193 215 157 159 180 155 158 128 282 254 333 370 357 355 323 309 142 140 263 268 268 289 281 276 283 299 315 413 262 236
275 253 262 242 234 242 225 224 221 133 216 184 215 199 170 158 169 165 153 135 147 131 163 311 151 249 349 348 359 317 128 134 289 286 270 265 262 267 272 285 293 302 336 339 241
265 186 249 229 234 238 223 220 136 212 183 206 228 161 147 164 166 152 229 379 171 130 279 335 329 280 360 339 343 313 296 174 134 281 279 254 268 252 273 267 261 283 302 302 244
261 200 232 238 233 223 222 147 166 225 202 229 224 141 153 157 299 154 294 118 145 281 125 150 156 326 329 350 350 311 292 295 130 129 272 270 252 252 257 267 252 268 283 280 299
233 248 194 234 193 207 219 215 144 204 226 221 208 182 149 156 212 127 265 161 146 231 334 128 338 298 335 344 366 300 291 282 134 234 275 261 271 264 254 244 257 255 249 275 307
245 243 220 232 209 222 217 198 215 222 212 207 192 149 166 149 212 227 224 128 138 157 367 270 146 217 334 343 349 300 298 281 272 266 267 260 254 273 249 261 246 242 252 259 269
248 241 180 218 217 185 209 199 218 207 211 150 162 195 171 141 189 210 267 245 148 249 118 154 360 270 348 347 311 327 321 272 262 265 265 264 258 268 252 240 254 255 263 265 258
245 233 211 225 211 207 199 216 216 206 200 155 202 151 151 174 101 113 230 154 203 164 131 128 141 151 336 345 343 292 326 287 277 272 272 265 266 252 259 249 267 244 265 268 269
238 180 216 221 228 230 217 215 193 203 151 190 175 211 151 223 151 204 155 111 185 160 144 156 133 292 346 354 370 334 285 289 285 284 271 264 261 261 254 254 245 240 247 238 243

GFSSW_2pvu_pres_117.txt.gz
Presure
308 283 243 199 252 226 177 171 179 174 161 125 138 133 118 135 122 118 121 135 144 130 125 120 149 140 138 138 141 104 140 141 201 144 181 181 139 154 140 200 108 168 171 171 100
220 254 197 291 348 325 198 164 159 157 128 128 117 122 133 133 118 123 115 119 150 118 180 145 129 180 155 130 150 158 135 149 185 186 150 151 156 156 146 89 105 119 135 184 112
299 219 226 336 306 370 332 229 140 152 185 155 125 126 143 125 122 123 121 129 153 132 147 139 156 143 130 194 145 157 149 210 251 223 173 139 120 149 255 200 170 133 132 144 107
272 226 338 219 279 181 344 341 228 159 236 175 135 127 129 146 123 122 121 131 138 128 154 137 139 157 124 197 158 148 154 187 158 141 158 264 75 140 137 116 162 149 165 129 127
189 285 282 336 326 356 227 326 292 221 148 168 242 131 122 146 137 126 126 125 137 138 147 139 125 141 134 148 156 192 168 212 165 201 149 167 163 172 158 148 112 163 111 106 210
267 308 336 366 303 313 338 161 330 252 258 174 207 185 127 190 170 142 121 133 141 155 181 137 129 133 214 142 123 171 127 164 220 242 216 264 142 164 176 188 162 99 140 220 124
294 359 310 365 338 265 327 238 300 302 303 252 260 215 121 114 174 152 131 143 141 142 140 141 186 143 161 136 144 141 269 150 150 160 160 174 148 243 161 149 190 101 170 281 143
285 397 283 362 271 319 323 303 265 306 281 167 239 147 157 124 187 196 214 142 148 129 120 154 167 163 135 143 150 94 161 166 153 97 96 117 137 105 76 161 126 169 230 109 117
392 381 331 359 255 285 161 215 305 270 287 313 189 233 221 205 136 168 149 144 131 143 123 223 131 124 120 187 145 158 184 189 88 187 140 181 184 204 247 108 115 119 215 155 93
405 390 336 362 341 267 269 126 286 277 193 280 263 236 185 259 149 141 139 144 156 134 155 149 125 164 133 201 320 244 190 182 221 170 307 162 224 158 186 196 193 250 162 216 188
374 383 395 368 328 269 268 290 293 282 285 260 275 137 255 241 222 127 154 260 144 146 169 166 143 146 155 154 168 187 185 152 165 172 120 167 189 151 132 163 169 179 141 165 201
385 390 411 367 314 236 268 272 246 291 270 239 239 199 156 177 257 243 141 123 153 117 120 183 306 144 182 204 223 146 150 142 134 169 213 137 132 175 177 151 122 153 180 169 178
375 387 406 324 307 263 286 190 276 176 258 244 181 143 185 144 173 265 138 218 135 141 141 180 172 172 174 353 127 143 143 241 200 275 166 290 183 148 242 291 180 149 161 187 180
377 385 399 286 286 280 261 272 246 238 223 252 129 203 163 158 263 211 273 202 139 140 251 149 167 176 347 139 165 141 365 321 320 357 393 391 393 391 407 256 415 144 139 158 167
384 385 322 243 288 295 263 268 253 243 177 156 213 243 148 265 266 136 247 147 152 149 160 180 174 207 133 130 130 188 203 342 345 360 354 339 347 401 413 403 384 377 147 147 159
391 350 294 284 291 254 262 203 155 197 243 163 232 250 207 145 238 147 144 141 177 225 190 267 212 137 167 137 162 325 330 317 329 340 346 327 323 369 393 382 363 379 375 178 141
396 297 319 247 258 260 249 200 213 149 234 241 233 133 198 245 176 137 127 289 154 169 354 216 162 247 160 178 326 321 316 318 317 330 333 319 311 330 363 337 359 393 380 387 310
302 306 242 267 254 243 237 235 233 231 236 139 148 144 246 151 137 150 365 150 173 283 212 124 167 319 306 323 312 324 311 309 323 321 322 319 321 335 322 336 356 363 358 289 256
268 239 256 171 237 242 231 231 232 184 238 225 172 253 160 142 240 140 151 168 267 233 143 133 164 148 151 143 317 316 303 307 317 318 339 296 148 143 147 151 332 317 269 256 223
258 267 255 240 200 227 231 236 232 230 163 228 140 209 141 204 144 147 170 160 349 171 145 319 174 343 319 310 312 308 310 306 309 315 137 139 142 142 141 178 299 355 255 241 222
184 250 242 230 222 234 233 231 205 226 226 207 208 211 261 228 151 379 152 361 229 151 120 172 166 238 268 311 312 312 307 311 182 133 239 260 247 243 300 329 340 347 281 216 220
255 245 225 227 229 231 201 224 200 216 235 196 234 245 273 159 230 160 201 362 167 136 107 180 152 317 313 194 315 308 302 305 125 126 126 279 277 285 276 308 322 337 269 229 198
244 231 242 241 229 178 222 226 215 230 211 195 225 252 173 254 253 150 269 283 240 152 136 157 330 169 332 331 320 306 292 281 294 287 252 156 286 278 277 279 315 330 244 210 199
212 243 226 233 226 224 220 214 161 197 225 177 221 241 160 250 222 203 286 211 194 146 158 140 145 334 335 343 333 296 281 275 272 257 255 125 279 275 282 290 294 310 223 219 193
243 241 233 225 226 221 206 226 214 201 199 188 178 154 202 254 152 196 180 262 178 251 114 300 259 221 353 342 345 294 285 276 266 261 253 271 276 270 272 279 291 296 293 224 216
171 236 226 226 220 222 225 212 205 208 197 158 234 156 231 152 147 239 244 170 132 296 261 299 247 341 341 349 338 305 291 272 273 266 266 276 271 246 254 273 270 290 284 303 235
237 221 233 220 223 224 213 220 224 197 207 233 208 230 222 135 242 161 244 178 181 169 222 179 317 293 357 365 345 304 275 292 281 267 277 266 253 259 254 270 275 276 276 273 246

GFSSW_2pvu_pres_120.txt.gz
Presure
213 182 240 262 285 297 312 283 192 153 131 141 186 127 159 130 125 130 130 131 119 116 141 134 132 138 126 122 126 151 157 134 148 126 151 149 157 153 165 135 118 103 148 153 136
222 218 226 272 246 262 303 290 313 286 217 128 158 127 158 134 132 145 130 142 116 119 125 122 136 122 142 168 163 109 128 147 128 146 174 134 137 222 154 147 146 104 102 160 162
250 197 271 227 276 282 300 234 228 356 380 157 182 170 165 170 135 137 132 142 120 120 128 127 139 127 145 175 175 126 138 154 114 209 132 193 143 224 213 142 141 152 168 135 130
238 252 170 200 252 288 230 241 225 250 378 350 179 142 170 136 129 166 115 133 136 130 128 122 135 151 133 176 126 135 190 138 112 143 145 192 148 81 165 165 161 169 162 103 125
253 254 260 270 255 287 221 313 251 254 342 257 349 266 226 128 141 120 128 142 139 131 129 118 140 156 133 149 136 177 142 138 105 187 160 156 145 143 136 153 145 163 127 158 124
256 267 273 277 287 272 272 312 371 295 343 335 338 340 300 152 175 130 155 167 132 129 130 127 134 142 132 148 142 143 167 147 144 173 128 168 140 177 136 133 142 135 157 142 159
260 265 277 283 299 322 244 380 261 354 327 323 325 336 313 152 170 134 251 148 116 126 132 118 130 131 146 240 145 138 150 149 178 226 129 139 131 125 76 145 139 153 143 282 87
268 280 292 312 341 387 372 353 252 325 260 327 260 295 289 308 276 217 136 126 126 124 119 127 138 140 131 222 140 150 132 139 106 156 134 146 159 129 184 194 134 130 164 96 167
285 297 349 383 375 385 372 359 316 321 316 309 307 298 181 279 267 269 143 123 166 209 193 126 144 134 163 120 158 136 168 141 123 137 139 156 129 191 241 105 162 151 119 106 151
312 386 397 399 394 191 368 362 317 316 313 317 264 292 261 274 287 147 247 166 171 134 148 146 145 133 260 175 140 138 125 129 123 149 220 237 162 85 97 261 208 106 151 105 102
402 405 410 402 410 402 375 361 312 291 263 305 260 282 178 276 283 269 143 279 151 247 283 163 160 155 167 118 86 138 119 251 155 163 159 297 95 251 201 139 163 179 165 167 183
404 403 373 382 394 404 375 319 294 237 291 280 269 289 275 269 260 271 266 148 158 124 185 148 132 125 138 132 174 154 112 155 158 181 237 224 184 229 230 187 410 365 216 245 148
404 369 371 383 404 383 325 272 282 279 265 274 203 274 261 254 193 203 207 121 194 231 158 139 122 115 146 154 166 136 210 183 294 174 212 229 196 163 158 158 167 114 195 323 213
392 351 373 388 356 322 271 264 214 265 259 135 262 259 244 237 142 163 170 191 218 127 293 141 181 141 155 131 202 317 381 319 161 137 151 143 145 138 154 157 177 161 130 185 230
378 374 379 343 303 281 310 262 253 250 251 242 242 251 254 157 126 114 162 255 129 110 140 136 137 166 151 388 247 354 317 155 130 138 148 150 164 164 232 162 359 163 134 147 205
369 388 331 282 259 257 253 239 243 243 236 228 175 156 141 189 229 164 126 243 288 139 244 148 187 184 304 190 248 162 166 138 146 141 228 335 326 343 347 386 281 150 348 161 204
397 324 309 242 252 237 242 241 238 234 242 175 139 252 223 153 236 251 134 226 238 143 132 267 266 177 327 150 141 140 262 224 321 318 315 325 342 332 358 351 407 257 247 152 173
321 299 246 265 256 242 236 239 234 241 179 239 221 183 162 141 332 393 130 340 145 134 189 171 346 228 162 133 318 181 308 324 316 312 303 313 319 327 344 325 326 362 305 246 151
295 273 269 245 233 236 236 169 251 252 182 224 153 195 232 173 133 244 136 346 172 149 159 293 235 139 194 192 132 152 299 333 308 296 300 284 296 309 314 335 345 372 409 386 191
264 236 246 237 239 215 149 152 242 188 141 186 169 181 211 327 395 325 275 162 204 152 181 170 201 215 134 145 280 292 305 318 312 304 303 300 290 309 321 329 328 348 369 400 373
168 242 240 243 239 221 244 248 219 169 211 224 248 257 274 280 323 181 160 162 308 325 324 203 199 178 131 286 280 292 291 299 309 301 290 289 281 290 295 199 312 338 381 406 360
250 213 177 239 232 243 241 215 204 241 180 231 250 242 257 279 162 299 156 345 257 193 320 161 165 303 312 314 232 142 304 310 288 286 271 275 138 142 148 150 151 144 143 154 338
232 214 237 232 239 227 214 197 224 241 231 252 248 249 213 153 273 149 352 342 223 171 142 139 325 311 140 304 310 310 308 281 275 274 274 131 133 125 161 323 257 186 221 306 183
240 236 241 239 189 202 207 225 195 237 240 247 230 255 287 286 192 180 163 157 213 185 142 131 324 328 229 305 304 272 276 280 273 271 253 232 274 282 126 248 297 288 290 312 268
239 236 222 229 216 227 218 202 207 234 258 254 255 210 172 173 208 181 193 220 195 327 159 357 333 201 327 239 308 266 293 282 275 271 283 292 267 286 132 293 308 305 250 244 228
239 236 180 227 218 216 208 245 204 240 241 176 238 149 253 140 181 273 166 136 157 137 334 334 229 337 332 339 310 266 279 267 284 272 287 278 267 272 278 278 286 295 246 250 229
236 223 225 221 220 207 243 238 226 233 194 197 188 247 219 246 200 167 264 223 289 140 157 236 358 215 338 346 281 278 290 260 272 281 275 279 279 282 291 273 242 231 221 220 221

GFSSW_2pvu_pres_123.txt.gz
Presure
247 188 229 222 252 235 236 234 242 286 271 293 181 182 184 159 141 137 135 127 125 123 139 128 142 130 129 136 120 151 169 116 143 132 166 134 144 144 175 126 141 155 147 126 219
246 246 235 251 241 253 217 209 248 263 274 267 128 165 167 170 207 125 143 129 128 131 125 134 131 132 123 128 145 138 130 140 132 134 138 172 164 168 149 190 154 157 141 96 147
242 250 247 252 255 243 259 269 223 275 248 232 304 214 255 162 195 174 129 126 127 129 126 143 127 127 132 129 136 118 151 123 129 116 131 146 130 150 123 141 194 139 160 142 131
245 265 252 256 230 257 262 279 273 247 232 285 272 250 259 139 315 177 152 140 139 132 134 137 123 124 127 130 118 148 127 146 143 205 142 126 116 152 134 166 138 155 209 176 164
247 255 257 266 255 277 274 282 293 254 246 236 269 319 332 337 284 193 134 248 145 137 149 137 180 126 124 130 127 141 134 123 145 141 140 172 155 141 114 151 141 93 126 175 163
254 267 263 267 262 267 213 279 304 306 243 325 244 354 237 254 310 145 249 149 145 136 143 139 167 131 121 130 138 133 123 131 136 146 145 160 140 157 127 131 210 146 224 153 132
254 258 270 266 267 274 275 296 308 313 338 199 363 296 259 249 353 269 151 189 162 142 136 143 133 134 116 124 132 131 145 133 140 157 131 184 126 163 164 152 125 90 133 88 95
268 268 265 268 275 287 298 314 349 374 367 363 332 355 324 333 277 233 327 298 173 132 130 133 148 127 125 130 116 133 131 140 151 203 142 145 174 187 143 152 193 166 155 106 223
272 274 279 285 299 311 337 364 376 322 361 369 355 325 264 325 320 319 250 337 134 135 141 129 139 131 112 132 145 131 129 151 210 194 140 142 129 137 137 138 164 83 97 171 184
294 303 310 323 363 386 390 382 368 362 342 366 329 239 321 307 297 303 316 336 308 151 131 129 229 143 134 123 144 143 154 158 156 135 133 144 157 160 131 146 141 129 132 140 229
356 358 357 378 402 408 409 393 374 375 328 319 297 298 289 263 304 300 304 306 309 307 153 130 145 113 326 196 113 255 167 162 119 134 131 141 139 126 144 136 125 134 151 234 147
374 367 383 397 393 364 385 399 378 203 296 312 283 292 283 295 268 287 268 277 278 284 156 181 142 153 280 146 153 181 140 125 126 135 99 150 136 133 133 89 93 208 131 101 108
375 384 357 357 376 376 394 382 351 292 268 277 278 281 272 284 240 285 287 143 209 273 208 148 122 315 135 252 134 175 117 141 136 138 146 139 149 151 155 158 135 163 122 157 132
406 349 342 358 383 382 383 267 282 281 273 275 266 264 270 265 269 200 162 298 215 160 157 293 150 129 133 129 111 130 133 145 143 278 189 144 152 161 180 440 384 171 232 335 303
384 347 356 383 378 369 250 240 264 261 257 253 263 258 270 141 290 282 271 276 267 261 148 281 211 107 267 143 126 156 173 285 143 143 152 156 344 182 175 176 187 206 209 236 141
378 361 362 292 257 256 251 263 267 259 267 263 259 174 265 269 274 217 269 156 277 128 143 194 192 122 231 151 158 222 147 145 168 244 209 341 298 174 151 138 155 148 205 252 167
382 285 264 242 263 255 264 261 213 235 259 255 249 262 267 201 148 132 231 217 125 184 180 130 138 142 146 144 288 166 140 341 327 186 165 181 151 132 156 162 152 158 144 146 164
279 278 257 261 265 258 251 251 249 239 235 240 247 246 192 138 134 130 154 269 125 134 392 128 255 146 195 188 301 337 331 176 171 179 179 300 193 333 306 324 330 322 357 161 148
270 254 262 257 253 249 234 236 231 229 239 246 258 133 136 229 135 300 332 355 146 134 145 148 167 169 313 318 312 280 166 141 259 307 291 161 310 319 308 322 334 348 379 395 166
269 262 260 249 194 240 231 223 218 217 199 228 232 275 135 295 317 139 351 146 249 168 181 148 197 319 243 178 170 138 319 307 298 152 149 295 302 317 308 314 318 342 368 388 399
270 256 251 224 225 232 239 233 247 264 266 138 262 375 341 388 355 353 283 262 215 304 270 319 307 168 312 270 311 258 302 292 290 286 294 296 294 297 304 245 323 329 376 383 397
261 250 204 147 221 238 236 236 212 247 256 381 326 374 374 211 170 348 170 190 330 225 309 306 298 305 148 136 216 148 290 277 283 280 286 287 301 287 300 308 295 316 344 373 365
142 217 217 220 220 202 257 230 272 274 240 280 299 199 220 200 357 185 183 334 189 188 296 148 149 275 294 285 309 253 280 282 272 269 290 280 283 253 135 141 248 309 301 350 380
224 224 222 245 213 222 223 268 265 261 240 270 194 155 216 279 173 170 344 255 216 240 320 135 145 186 300 307 275 266 280 280 267 265 274 238 220 200 130 123 125 138 171 188 382
227 216 193 235 262 232 250 241 248 257 250 264 181 260 160 142 211 315 311 341 193 155 213 287 312 260 300 252 276 219 267 276 267 265 268 273 276 127 129 255 251 126 152 151 195
224 178 242 262 245 212 251 225 249 252 245 150 181 164 245 266 295 153 354 311 247 137 133 116 207 318 259 256 270 271 268 275 278 263 269 268 279 279 279 266 277 132 276 285 290
226 242 230 238 245 239 256 211 218 162 218 241 244 147 241 172 246 199 245 179 133 244 157 343 297 158 294 272 282 277 275 271 269 263 256 267 269 265 281 257 261 280 283 281 293